[[{"header":{"parameterUnit":"m.s-1","parameterCategory":1,"la1":31.0,"la2":29.5877,"lo1":-88.7671,"lo2":-86.6584,"dx":0.0162,"dy":0.0185,"nx":115,"ny":88,"refTime":"2023-01-04T06:00:00:Z","depth":0,"parameterNumber":2,"parameterNumberName":"U-component_of_WINDS"},"data":[0.0,0.0,0.0,0.0,0.0,0.0,0.0,0.0,0.0,0.0,0.0,0.0,0.0,0.0,0.0,0.0,0.0,0.0,0.0,0.0,0.0,0.0,0.0,0.0,0.0,0.0,0.0,0.0,0.0,0.0,0.0,0.0,0.0,0.0,0.0,0.0,0.0,0.0,0.0,0.0,0.0,0.0,0.0,0.0,0.0,0.0,0.0,0.0,0.0,0.0,0.0,0.0,0.0,0.0,0.0,0.0,0.0,0.0,0.0,0.0,0.0,0.0,0.0,0.0,0.0,0.0,0.0,0.0,0.0,0.0,0.0,0.0,0.0,0.0,0.0,0.0,0.0,0.0,0.0,0.0,0.0,0.0,0.0,0.0,0.0,0.0,0.0,0.0,0.0,0.0,0.0,0.0,0.0,0.0,0.0,0.0,0.0,0.0,0.0,0.0,0.0,0.0,0.0,0.0,0.0,0.0,0.0,0.0,0.0,0.0,0.0,0.0,0.0,0.0,0.0,0.0,0.0,0.0,0.0,0.0,0.0,0.0,0.0,0.0,0.0,0.0,0.0,0.0,0.0,0.0,0.0,0.0,0.0,0.0,0.0,0.0,0.0,0.0,0.0,0.0,0.0,0.0,0.0,0.0,0.0,0.0,0.0,0.0,0.0,0.0,0.0,0.0,0.0,0.0,0.0,0.0,0.0,0.0,0.0,0.0,0.0,0.0,0.0,0.0,0.0,0.0,0.0,0.0,0.0,0.0,0.0,0.0,0.0,0.0,0.0,0.0,0.0,0.0,0.0,0.0,0.0,0.0,0.0,0.0,0.0,0.0,0.0,0.0,0.0,0.0,0.0,0.0,0.0,0.0,0.0,0.0,0.0,0.0,0.0,0.0,0.0,0.0,0.0,0.0,0.0,0.0,0.0,0.0,0.0,0.0,0.0,0.0,0.0,0.0,0.0,0.0,0.0,0.0,0.0,0.0,0.0,0.0,0.0,0.0,0.0,0.0,0.0,0.0,0.0,0.0,0.0,0.0,0.0,0.0,0.0,0.0,0.0,0.0,0.0,0.0,0.0,0.0,0.0,0.0,0.0,0.0,0.0,0.0,0.0,0.0,0.0,0.0,0.0,0.0,0.0,0.0,0.0,0.0,0.0,0.0,0.0,0.0,0.0,0.0,0.0,0.0,0.0,0.0,0.0,0.0,0.0,0.0,0.0,0.0,0.0,0.0,0.0,0.0,0.0,0.0,0.0,0.0,0.0,0.0,0.0,0.0,0.0,0.0,0.0,0.0,0.0,0.0,0.0,0.0,0.0,0.0,0.0,0.0,0.0,0.0,0.0,0.0,0.0,0.0,0.0,0.0,0.0,0.0,0.0,0.0,0.0,0.0,0.0,0.0,0.0,0.0,0.0,0.0,0.0,0.0,0.0,0.0,0.0,0.0,0.0,0.0,0.0,0.0,0.0,0.0,0.0,0.0,0.0,0.0,0.0,0.0,0.0,0.0,0.0,0.0,0.0,0.0,0.0,0.0,0.0,0.0,0.0,0.0,0.0,0.0,0.0,0.0,0.0,0.0,0.0,0.0,0.0,0.0,0.0,0.0,0.0,0.0,0.0,0.0,0.0,0.0,0.0,0.0,0.0,0.0,0.0,0.0,0.0,0.0,0.0,0.0,0.0,0.0,0.0,0.0,0.0,0.0,0.0,0.0,0.0,0.0,0.0,0.0,0.0,0.0,0.0,0.0,0.0,0.0,0.0,0.0,0.0,0.0,0.0,0.0,0.0,0.0,0.0,0.0,0.0,0.0,0.0,0.0,0.0,0.0,0.0,0.0,0.0,0.0,0.0,0.0,0.0,0.0,0.0,0.0,0.0,0.0,0.0,0.0,0.0,0.0,0.0,0.0,0.0,0.0,0.0,0.0,0.0,0.0,0.0,0.0,0.0,0.0,0.0,0.0,0.0,0.0,0.0,0.0,0.0,0.0,0.0,0.0,0.0,0.0,0.0,0.0,0.0,0.0,0.0,0.0,0.0,0.0,0.0,0.0,0.0,0.0,0.0,0.0,0.0,0.0,0.0,0.0,0.0,0.0,0.0,0.0,0.0,0.0,0.0,0.0,0.0,0.0,0.0,0.0,0.0,0.0,0.0,0.0,0.0,0.0,0.0,0.0,0.0,0.0,0.0,0.0,0.0,0.0,0.0,0.0,0.0,0.0,0.0,0.0,0.0,0.0,0.0,0.0,0.0,0.0,0.0,0.0,0.0,0.0,0.0,0.0,0.0,0.0,0.0,0.0,0.0,0.0,0.0,0.0,0.0,0.0,0.0,0.0,0.0,0.0,0.0,0.0,0.0,0.0,0.0,0.0,0.0,0.0,0.0,0.0,0.0,0.0,0.0,0.0,0.0,0.0,0.0,0.0,0.0,0.0,0.0,0.0,0.0,0.0,0.0,0.0,0.0,0.0,0.0,0.0,0.0,0.0,0.0,0.0,0.0,0.0,0.0,0.0,0.0,0.0,0.0,0.0,0.0,0.0,0.0,0.0,0.0,0.0,0.0,0.0,0.0,0.0,0.0,0.0,0.0,0.0,0.0,0.0,0.0,0.0,0.0,0.0,0.0,0.0,0.0,0.0,0.0,0.0,0.0,0.0,0.0,0.0,0.0,0.0,0.0,0.0,0.0,0.0,0.0,0.0,0.0,0.0,0.0,0.0,0.0,0.0,0.0,0.0,0.0,0.0,0.0,0.0,0.0,0.0,0.0,0.0,0.0,0.0,0.0,0.0,0.0,0.0,0.0,0.0,0.0,0.0,0.0,0.0,0.0,0.0,0.0,0.0,0.0,0.0,0.0,0.0,0.0,0.0,0.0,0.0,0.0,0.0,0.0,0.0,0.0,0.0,0.0,0.0,0.0,0.0,0.0,0.0,0.0,0.0,0.0,0.0,0.0,0.0,0.0,0.0,0.0,0.0,0.0,0.0,0.0,0.0,0.0,0.0,0.0,0.0,0.0,0.0,0.0,0.0,0.0,0.0,0.0,0.0,0.0,0.0,0.0,0.0,0.0,0.0,0.0,0.0,0.0,0.0,0.0,0.0,0.0,0.0,0.0,0.0,0.0,0.0,0.0,0.0,0.0,0.0,0.0,0.0,0.0,0.0,0.0,0.0,0.0,0.0,0.0,0.0,0.0,0.0,0.0,0.0,0.0,0.0,0.0,0.0,0.0,0.0,0.0,0.0,0.0,0.0,0.0,0.0,0.0,0.0,0.0,0.0,0.0,0.0,0.0,0.0,0.0,0.0,0.0,0.0,0.0,0.0,0.0,0.0,0.0,0.0,0.0,0.0,0.0,0.0,0.0,0.0,0.0,0.0,0.0,0.0,0.0,0.0,0.0,0.0,0.0,0.0,0.0,0.0,0.0,0.0,0.0,0.0,0.0,0.0,0.0,0.0,0.0,0.0,0.0,0.0,0.0,0.0,0.0,0.0,0.0,0.0,0.0,0.0,0.0,0.0,0.0,0.0,0.0,0.0,0.0,0.0,0.0,0.0,0.0,0.0,0.0,0.0,0.0,0.0,0.0,0.0,0.0,0.0,0.0,0.0,0.0,0.0,0.0,0.0,0.0,0.0,0.0,0.0,0.0,0.0,0.0,0.0,0.0,0.0,0.0,0.0,0.0,0.0,0.0,0.0,0.0,0.0,0.0,0.0,0.0,0.0,0.0,0.0,0.0,0.0,0.0,0.0,0.0,0.0,0.0,0.0,0.0,0.0,0.0,0.0,0.0,0.0,0.0,0.0,0.0,0.0,0.0,0.0,0.0,0.0,0.0,0.0,0.0,0.0,0.0,0.0,0.0,0.0,0.0,0.0,0.0,0.0,0.0,0.0,0.0,0.0,0.0,0.0,0.0,0.0,0.0,0.0,0.0,0.0,0.0,0.0,0.0,0.0,0.0,0.0,0.0,0.0,0.0,0.0,0.0,0.0,0.0,0.0,0.0,0.0,0.0,0.0,0.0,0.0,0.0,0.0,0.0,0.0,0.0,0.0,0.0,0.0,0.0,0.0,0.0,0.0,0.0,0.0,0.0,0.0,0.0,0.0,0.0,0.0,0.0,0.0,0.0,0.0,0.0,0.0,0.0,0.0,0.0,0.0,0.0,0.0,0.0,0.0,0.0,0.0,0.0,0.0,0.0,0.0,0.0,0.0,0.0,0.0,0.0,0.0,0.0,0.0,0.0,0.0,0.0,0.0,0.0,0.0,0.0,0.0,0.0,0.0,-2.8676,0.0,0.0,0.0,-3.1568,0.0,0.0,0.0,0.0,0.0,0.0,0.0,0.0,0.0,0.0,0.0,0.0,0.0,0.0,0.0,0.0,0.0,0.0,0.0,0.0,0.0,0.0,0.0,0.0,0.0,0.0,0.0,0.0,0.0,0.0,0.0,0.0,0.0,0.0,0.0,0.0,0.0,0.0,0.0,0.0,0.0,0.0,0.0,0.0,0.0,0.0,0.0,0.0,0.0,0.0,0.0,0.0,0.0,0.0,0.0,0.0,0.0,0.0,0.0,0.0,0.0,0.0,0.0,0.0,0.0,0.0,0.0,0.0,0.0,0.0,0.0,0.0,0.0,0.0,0.0,0.0,0.0,0.0,0.0,0.0,0.0,0.0,0.0,0.0,0.0,0.0,0.0,0.0,0.0,0.0,0.0,0.0,0.0,0.0,0.0,0.0,0.0,0.0,0.0,0.0,0.0,0.0,0.0,0.0,0.0,0.0,0.0,0.0,0.0,0.0,-2.8156,-2.8382,-2.9453,-3.0176,-3.0574,0.0,0.0,0.0,0.0,0.0,0.0,0.0,0.0,0.0,0.0,0.0,0.0,0.0,0.0,0.0,0.0,0.0,0.0,0.0,0.0,0.0,0.0,0.0,0.0,0.0,0.0,0.0,0.0,0.0,0.0,0.0,0.0,0.0,0.0,0.0,0.0,0.0,0.0,0.0,0.0,0.0,0.0,0.0,0.0,0.0,0.0,0.0,0.0,0.0,0.0,0.0,0.0,0.0,0.0,0.0,0.0,0.0,0.0,0.0,0.0,0.0,0.0,0.0,0.0,0.0,0.0,0.0,0.0,0.0,0.0,0.0,0.0,0.0,0.0,0.0,0.0,0.0,0.0,0.0,0.0,0.0,0.0,0.0,0.0,0.0,0.0,0.0,0.0,0.0,0.0,0.0,0.0,0.0,0.0,0.0,0.0,0.0,0.0,0.0,0.0,0.0,0.0,0.0,0.0,0.0,0.0,0.0,0.0,0.0,0.0,0.0,0.0,-2.8911,-2.9781,-3.0076,0.0,0.0,0.0,0.0,0.0,0.0,0.0,0.0,0.0,0.0,0.0,0.0,0.0,0.0,0.0,0.0,0.0,0.0,0.0,0.0,0.0,0.0,0.0,0.0,0.0,0.0,0.0,0.0,0.0,0.0,0.0,0.0,0.0,0.0,0.0,0.0,0.0,0.0,0.0,0.0,0.0,0.0,0.0,0.0,0.0,0.0,0.0,0.0,0.0,0.0,0.0,0.0,0.0,0.0,0.0,0.0,0.0,0.0,0.0,0.0,0.0,0.0,0.0,0.0,0.0,0.0,0.0,0.0,0.0,0.0,0.0,0.0,0.0,0.0,0.0,0.0,0.0,0.0,0.0,0.0,0.0,0.0,0.0,0.0,0.0,0.0,0.0,0.0,0.0,0.0,0.0,0.0,0.0,0.0,0.0,0.0,0.0,0.0,0.0,0.0,0.0,0.0,0.0,0.0,0.0,0.0,0.0,0.0,0.0,0.0,-2.7213,-2.7168,-2.8528,0.0,-3.1275,0.0,0.0,0.0,0.0,0.0,0.0,0.0,0.0,0.0,0.0,0.0,0.0,0.0,0.0,0.0,0.0,0.0,0.0,0.0,0.0,0.0,0.0,0.0,0.0,0.0,0.0,0.0,0.0,0.0,0.0,0.0,0.0,0.0,0.0,0.0,0.0,0.0,0.0,0.0,0.0,0.0,0.0,0.0,0.0,0.0,0.0,0.0,0.0,0.0,0.0,0.0,0.0,0.0,0.0,0.0,0.0,0.0,0.0,0.0,0.0,0.0,0.0,0.0,0.0,0.0,0.0,0.0,0.0,0.0,0.0,0.0,0.0,0.0,0.0,0.0,0.0,0.0,0.0,0.0,0.0,0.0,0.0,0.0,0.0,0.0,0.0,0.0,0.0,0.0,0.0,0.0,0.0,0.0,0.0,0.0,0.0,0.0,0.0,0.0,0.0,0.0,0.0,0.0,0.0,0.0,0.0,0.0,0.0,0.0,0.0,-2.7039,-2.6991,-2.8355,-2.9614,0.0,0.0,0.0,0.0,0.0,0.0,0.0,0.0,0.0,0.0,0.0,0.0,0.0,0.0,0.0,0.0,0.0,0.0,0.0,0.0,0.0,0.0,0.0,0.0,0.0,0.0,0.0,0.0,0.0,0.0,0.0,0.0,0.0,0.0,0.0,0.0,0.0,0.0,0.0,0.0,0.0,0.0,0.0,0.0,0.0,0.0,0.0,0.0,0.0,0.0,0.0,0.0,0.0,0.0,0.0,0.0,0.0,0.0,0.0,0.0,0.0,0.0,0.0,0.0,0.0,0.0,0.0,0.0,0.0,0.0,0.0,0.0,0.0,0.0,0.0,0.0,0.0,0.0,0.0,0.0,0.0,0.0,0.0,0.0,0.0,0.0,0.0,0.0,0.0,0.0,0.0,0.0,0.0,0.0,0.0,0.0,0.0,0.0,0.0,0.0,0.0,0.0,0.0,0.0,0.0,0.0,0.0,0.0,0.0,0.0,-2.7452,-2.7079,-2.7505,-2.847,-2.9367,-3.0151,0.0,0.0,0.0,0.0,0.0,0.0,0.0,0.0,0.0,0.0,0.0,0.0,0.0,0.0,0.0,0.0,0.0,0.0,0.0,0.0,0.0,0.0,0.0,0.0,0.0,0.0,0.0,0.0,0.0,0.0,0.0,0.0,0.0,0.0,0.0,0.0,0.0,0.0,0.0,0.0,0.0,0.0,0.0,0.0,0.0,0.0,0.0,0.0,0.0,0.0,0.0,0.0,0.0,0.0,0.0,0.0,0.0,0.0,0.0,0.0,0.0,0.0,0.0,0.0,0.0,0.0,0.0,0.0,0.0,0.0,0.0,0.0,0.0,0.0,0.0,0.0,0.0,0.0,0.0,0.0,0.0,0.0,0.0,0.0,0.0,0.0,0.0,0.0,0.0,0.0,0.0,0.0,0.0,0.0,0.0,0.0,0.0,0.0,0.0,0.0,0.0,0.0,0.0,0.0,0.0,0.0,0.0,0.0,-2.9019,-2.7538,-2.7419,-2.8825,-2.8959,-2.9348,0.0,0.0,0.0,0.0,0.0,0.0,0.0,0.0,0.0,0.0,0.0,0.0,0.0,0.0,0.0,0.0,0.0,0.0,0.0,0.0,0.0,0.0,0.0,0.0,0.0,0.0,0.0,0.0,0.0,0.0,0.0,0.0,0.0,0.0,0.0,0.0,0.0,0.0,0.0,0.0,0.0,0.0,0.0,0.0,0.0,0.0,0.0,0.0,0.0,0.0,0.0,0.0,0.0,0.0,0.0,0.0,0.0,0.0,0.0,0.0,0.0,0.0,0.0,0.0,0.0,0.0,0.0,0.0,0.0,0.0,0.0,0.0,0.0,0.0,0.0,0.0,0.0,0.0,0.0,0.0,0.0,0.0,0.0,0.0,0.0,0.0,0.0,0.0,0.0,0.0,0.0,0.0,0.0,0.0,0.0,0.0,0.0,0.0,0.0,0.0,0.0,0.0,0.0,0.0,0.0,0.0,0.0,0.0,0.0,-2.8979,-2.7521,-2.7436,-2.8908,-2.8993,-2.9348,0.0,0.0,0.0,0.0,0.0,0.0,0.0,0.0,0.0,0.0,0.0,0.0,0.0,0.0,0.0,0.0,0.0,0.0,0.0,0.0,0.0,0.0,0.0,0.0,0.0,0.0,0.0,0.0,0.0,0.0,0.0,0.0,0.0,0.0,0.0,0.0,0.0,0.0,0.0,0.0,0.0,0.0,0.0,0.0,0.0,0.0,0.0,0.0,0.0,0.0,0.0,0.0,0.0,0.0,0.0,0.0,0.0,0.0,0.0,0.0,0.0,0.0,0.0,0.0,0.0,0.0,0.0,0.0,0.0,0.0,0.0,0.0,0.0,0.0,0.0,0.0,0.0,0.0,0.0,0.0,0.0,0.0,0.0,0.0,0.0,0.0,0.0,0.0,0.0,0.0,0.0,0.0,0.0,0.0,0.0,0.0,0.0,0.0,0.0,0.0,0.0,0.0,0.0,0.0,0.0,0.0,0.0,0.0,0.0,-2.8602,-2.7841,-2.8062,-2.9297,-2.9365,-2.9583,0.0,0.0,0.0,0.0,0.0,0.0,0.0,0.0,0.0,0.0,0.0,0.0,0.0,0.0,0.0,0.0,0.0,0.0,0.0,0.0,0.0,0.0,0.0,0.0,0.0,0.0,0.0,0.0,0.0,0.0,0.0,0.0,0.0,0.0,0.0,0.0,0.0,0.0,0.0,0.0,0.0,0.0,0.0,0.0,0.0,0.0,0.0,0.0,0.0,0.0,0.0,0.0,0.0,0.0,0.0,0.0,0.0,0.0,0.0,0.0,0.0,0.0,0.0,0.0,0.0,0.0,0.0,0.0,0.0,0.0,0.0,0.0,0.0,0.0,0.0,0.0,0.0,0.0,0.0,0.0,0.0,0.0,0.0,0.0,0.0,0.0,0.0,0.0,0.0,0.0,0.0,0.0,0.0,0.0,0.0,0.0,0.0,0.0,0.0,0.0,0.0,0.0,0.0,0.0,0.0,0.0,0.0,0.0,-2.867,-2.7908,-2.8569,-2.9281,-3.0074,-3.0074,-3.0108,0.0,0.0,0.0,0.0,0.0,0.0,0.0,0.0,0.0,0.0,0.0,0.0,0.0,0.0,0.0,0.0,0.0,0.0,0.0,0.0,0.0,0.0,0.0,0.0,0.0,0.0,0.0,0.0,0.0,0.0,0.0,0.0,0.0,0.0,0.0,0.0,0.0,0.0,0.0,0.0,0.0,0.0,0.0,0.0,0.0,0.0,0.0,0.0,0.0,0.0,0.0,0.0,0.0,0.0,0.0,0.0,0.0,0.0,0.0,0.0,0.0,0.0,0.0,0.0,0.0,0.0,0.0,0.0,0.0,0.0,0.0,0.0,0.0,0.0,0.0,0.0,0.0,0.0,0.0,0.0,0.0,0.0,0.0,0.0,0.0,0.0,0.0,0.0,0.0,0.0,0.0,0.0,0.0,0.0,0.0,0.0,0.0,0.0,0.0,0.0,0.0,0.0,0.0,0.0,0.0,0.0,0.0,0.0,0.0,-2.8687,-2.8874,-2.9365,-3.0057,-3.0089,-3.0345,0.0,0.0,0.0,0.0,0.0,0.0,0.0,0.0,0.0,0.0,0.0,0.0,0.0,0.0,0.0,0.0,0.0,0.0,0.0,0.0,0.0,0.0,0.0,0.0,0.0,0.0,0.0,0.0,0.0,0.0,0.0,0.0,0.0,0.0,0.0,0.0,0.0,0.0,0.0,0.0,0.0,0.0,0.0,0.0,0.0,0.0,0.0,0.0,0.0,0.0,0.0,0.0,0.0,0.0,0.0,0.0,0.0,0.0,0.0,0.0,0.0,0.0,0.0,0.0,0.0,0.0,0.0,0.0,0.0,0.0,0.0,0.0,0.0,0.0,0.0,0.0,0.0,0.0,0.0,0.0,0.0,0.0,0.0,0.0,0.0,0.0,0.0,0.0,0.0,0.0,0.0,0.0,0.0,0.0,0.0,0.0,0.0,0.0,0.0,0.0,0.0,0.0,0.0,0.0,0.0,0.0,0.0,0.0,0.0,-3.0625,-3.0287,-3.0526,-3.1326,-3.0743,-3.0813,-3.1549,0.0,0.0,0.0,0.0,0.0,0.0,0.0,0.0,0.0,0.0,0.0,0.0,0.0,0.0,0.0,0.0,0.0,0.0,0.0,0.0,0.0,0.0,0.0,0.0,0.0,0.0,0.0,0.0,0.0,0.0,0.0,0.0,0.0,0.0,0.0,0.0,0.0,0.0,0.0,0.0,0.0,0.0,0.0,0.0,0.0,0.0,0.0,0.0,0.0,0.0,0.0,0.0,0.0,0.0,0.0,0.0,0.0,0.0,0.0,0.0,0.0,0.0,0.0,0.0,0.0,0.0,0.0,0.0,0.0,0.0,0.0,0.0,0.0,0.0,0.0,0.0,0.0,0.0,0.0,0.0,0.0,0.0,0.0,0.0,0.0,0.0,0.0,0.0,0.0,0.0,0.0,0.0,0.0,0.0,0.0,0.0,0.0,0.0,0.0,0.0,0.0,0.0,0.0,0.0,0.0,0.0,0.0,0.0,-3.3266,-3.2517,-3.2513,-3.3322,-3.1898,-3.1493,0.0,0.0,0.0,0.0,0.0,0.0,0.0,0.0,0.0,0.0,0.0,0.0,0.0,0.0,0.0,0.0,0.0,0.0,0.0,0.0,0.0,0.0,0.0,0.0,0.0,0.0,0.0,0.0,0.0,0.0,0.0,0.0,0.0,0.0,0.0,0.0,0.0,0.0,0.0,0.0,0.0,0.0,0.0,0.0,0.0,0.0,0.0,0.0,0.0,0.0,0.0,0.0,0.0,0.0,0.0,0.0,0.0,0.0,0.0,0.0,0.0,0.0,0.0,0.0,0.0,0.0,0.0,0.0,0.0,0.0,0.0,0.0,0.0,0.0,0.0,0.0,0.0,0.0,0.0,0.0,0.0,0.0,0.0,0.0,0.0,0.0,0.0,0.0,0.0,0.0,0.0,0.0,0.0,0.0,0.0,0.0,0.0,0.0,0.0,0.0,0.0,0.0,0.0,0.0,0.0,0.0,0.0,0.0,0.0,-3.3829,-3.2915,-3.2722,-3.3364,-3.2892,-3.2504,0.0,0.0,0.0,0.0,0.0,0.0,0.0,0.0,0.0,0.0,0.0,0.0,0.0,0.0,0.0,0.0,0.0,0.0,0.0,0.0,0.0,0.0,0.0,0.0,0.0,0.0,0.0,0.0,0.0,0.0,0.0,0.0,0.0,0.0,0.0,0.0,0.0,0.0,0.0,0.0,0.0,0.0,0.0,0.0,0.0,0.0,0.0,0.0,0.0,0.0,0.0,0.0,0.0,0.0,0.0,0.0,0.0,0.0,0.0,0.0,0.0,0.0,0.0,0.0,0.0,0.0,0.0,0.0,0.0,0.0,0.0,0.0,0.0,0.0,0.0,0.0,0.0,0.0,0.0,0.0,0.0,0.0,0.0,0.0,0.0,0.0,0.0,0.0,0.0,0.0,0.0,0.0,0.0,0.0,0.0,0.0,0.0,0.0,0.0,0.0,0.0,0.0,0.0,0.0,0.0,0.0,0.0,0.0,-3.242,-3.3571,-3.2967,-3.2765,-3.3048,-3.2773,-3.247,0.0,0.0,0.0,0.0,0.0,0.0,0.0,0.0,0.0,0.0,0.0,0.0,0.0,0.0,0.0,0.0,0.0,0.0,0.0,0.0,0.0,0.0,0.0,0.0,0.0,0.0,0.0,0.0,0.0,0.0,0.0,0.0,0.0,0.0,0.0,0.0,0.0,0.0,0.0,0.0,0.0,0.0,0.0,0.0,0.0,0.0,0.0,0.0,0.0,0.0,0.0,0.0,0.0,0.0,0.0,0.0,0.0,0.0,0.0,0.0,0.0,0.0,0.0,0.0,0.0,0.0,0.0,0.0,0.0,0.0,0.0,0.0,0.0,0.0,0.0,0.0,0.0,0.0,0.0,0.0,0.0,0.0,0.0,0.0,0.0,0.0,0.0,0.0,0.0,0.0,0.0,0.0,0.0,0.0,0.0,0.0,0.0,0.0,0.0,0.0,0.0,0.0,0.0,0.0,0.0,0.0,0.0,0.0,-3.1656,-3.2828,-3.2753,-3.2679,-3.2563,-3.2112,-3.1907,0.0,0.0,0.0,0.0,0.0,0.0,0.0,0.0,0.0,0.0,0.0,0.0,0.0,0.0,0.0,0.0,0.0,0.0,0.0,0.0,0.0,0.0,0.0,0.0,0.0,0.0,0.0,0.0,0.0,0.0,0.0,0.0,0.0,0.0,0.0,0.0,0.0,0.0,0.0,0.0,0.0,0.0,0.0,0.0,0.0,0.0,0.0,0.0,0.0,0.0,0.0,0.0,0.0,0.0,0.0,0.0,0.0,0.0,0.0,0.0,0.0,0.0,0.0,0.0,0.0,0.0,0.0,0.0,0.0,0.0,0.0,0.0,0.0,0.0,0.0,0.0,0.0,0.0,0.0,0.0,0.0,0.0,0.0,0.0,0.0,0.0,0.0,0.0,0.0,0.0,0.0,0.0,0.0,0.0,0.0,0.0,0.0,0.0,0.0,0.0,0.0,0.0,0.0,0.0,0.0,0.0,0.0,0.0,-3.1785,-3.322,-3.2547,-3.2249,-3.245,-3.2441,-3.2031,0.0,0.0,0.0,0.0,0.0,0.0,0.0,0.0,0.0,0.0,0.0,0.0,0.0,0.0,0.0,0.0,0.0,0.0,0.0,0.0,0.0,0.0,0.0,0.0,0.0,0.0,0.0,0.0,0.0,0.0,0.0,0.0,0.0,0.0,0.0,0.0,0.0,0.0,0.0,0.0,0.0,0.0,0.0,0.0,0.0,0.0,0.0,0.0,-2.4112,0.0,0.0,0.0,0.0,0.0,0.0,0.0,0.0,0.0,0.0,0.0,0.0,0.0,0.0,0.0,0.0,0.0,0.0,0.0,0.0,0.0,0.0,0.0,0.0,0.0,0.0,0.0,0.0,0.0,0.0,0.0,0.0,0.0,0.0,0.0,0.0,0.0,0.0,0.0,0.0,0.0,0.0,0.0,0.0,0.0,0.0,0.0,0.0,0.0,0.0,0.0,0.0,0.0,0.0,0.0,0.0,0.0,0.0,0.0,-3.0998,-3.2304,-3.1717,-3.144,-3.1506,-3.1616,-3.1336,0.0,0.0,0.0,0.0,0.0,0.0,0.0,0.0,0.0,0.0,0.0,0.0,0.0,0.0,0.0,0.0,0.0,0.0,0.0,0.0,0.0,0.0,0.0,0.0,0.0,0.0,0.0,0.0,0.0,0.0,0.0,0.0,0.0,0.0,0.0,0.0,0.0,0.0,0.0,0.0,0.0,0.0,0.0,0.0,0.0,0.0,0.0,0.0,0.0,0.0,0.0,0.0,0.0,0.0,0.0,0.0,0.0,0.0,0.0,0.0,0.0,0.0,0.0,0.0,0.0,0.0,0.0,0.0,0.0,0.0,0.0,0.0,0.0,0.0,0.0,0.0,0.0,0.0,0.0,0.0,0.0,0.0,0.0,0.0,0.0,0.0,0.0,0.0,0.0,0.0,0.0,0.0,0.0,0.0,0.0,0.0,0.0,0.0,0.0,0.0,0.0,0.0,0.0,0.0,0.0,0.0,0.0,-2.9971,-3.0335,-3.1363,-3.1054,-3.0829,-3.0806,-3.0711,-3.0483,-3.0042,0.0,0.0,0.0,0.0,0.0,0.0,0.0,0.0,0.0,0.0,0.0,0.0,0.0,0.0,0.0,0.0,0.0,0.0,0.0,0.0,0.0,0.0,0.0,0.0,0.0,0.0,0.0,0.0,0.0,0.0,0.0,0.0,0.0,0.0,0.0,0.0,0.0,0.0,-2.3619,-2.3867,0.0,0.0,0.0,0.0,0.0,0.0,0.0,0.0,-2.4369,0.0,0.0,0.0,0.0,0.0,0.0,0.0,0.0,0.0,0.0,0.0,0.0,0.0,0.0,0.0,0.0,0.0,0.0,0.0,0.0,0.0,0.0,0.0,0.0,0.0,0.0,0.0,0.0,0.0,0.0,0.0,0.0,0.0,0.0,0.0,0.0,0.0,0.0,0.0,0.0,0.0,0.0,0.0,0.0,0.0,0.0,0.0,0.0,0.0,0.0,0.0,0.0,0.0,0.0,0.0,0.0,-3.0472,-3.0871,-3.1518,-3.2415,-3.1918,-3.1788,-3.2123,-3.1091,-3.0263,-2.9714,0.0,0.0,0.0,0.0,0.0,0.0,0.0,0.0,0.0,0.0,0.0,0.0,0.0,0.0,0.0,0.0,0.0,0.0,0.0,0.0,0.0,0.0,0.0,0.0,0.0,0.0,0.0,0.0,0.0,0.0,0.0,0.0,0.0,0.0,0.0,0.0,0.0,0.0,0.0,-2.4272,-2.4088,0.0,0.0,0.0,0.0,0.0,0.0,0.0,0.0,-2.4576,0.0,0.0,0.0,0.0,0.0,0.0,0.0,0.0,0.0,0.0,0.0,0.0,0.0,0.0,0.0,0.0,0.0,0.0,0.0,0.0,0.0,0.0,0.0,0.0,0.0,0.0,0.0,0.0,0.0,0.0,0.0,0.0,0.0,0.0,0.0,0.0,0.0,0.0,0.0,0.0,0.0,0.0,0.0,0.0,0.0,0.0,0.0,0.0,0.0,0.0,0.0,0.0,0.0,0.0,0.0,-3.1042,-3.1217,-3.1799,-3.2775,-3.2145,-3.2014,-3.2452,-3.121,-3.0208,0.0,0.0,0.0,0.0,0.0,0.0,0.0,0.0,0.0,0.0,0.0,0.0,0.0,0.0,0.0,0.0,0.0,0.0,0.0,0.0,0.0,0.0,0.0,0.0,0.0,0.0,0.0,0.0,0.0,0.0,0.0,0.0,0.0,0.0,0.0,0.0,0.0,0.0,0.0,0.0,-2.4441,-2.4408,-2.4287,0.0,0.0,0.0,0.0,0.0,0.0,-2.4716,-2.4198,0.0,0.0,0.0,0.0,0.0,0.0,0.0,0.0,0.0,0.0,0.0,0.0,0.0,0.0,0.0,0.0,0.0,0.0,0.0,0.0,0.0,0.0,0.0,0.0,0.0,0.0,0.0,0.0,0.0,0.0,0.0,0.0,0.0,0.0,0.0,0.0,0.0,0.0,0.0,0.0,0.0,0.0,0.0,0.0,0.0,0.0,0.0,0.0,0.0,0.0,0.0,0.0,0.0,0.0,0.0,-3.1473,-3.1443,-3.2013,-3.3089,-3.2443,-3.2268,-3.2721,-3.1477,-3.0413,0.0,0.0,0.0,0.0,0.0,0.0,0.0,0.0,0.0,0.0,0.0,0.0,0.0,0.0,0.0,0.0,0.0,0.0,0.0,0.0,0.0,0.0,0.0,0.0,0.0,0.0,0.0,0.0,0.0,0.0,0.0,0.0,0.0,0.0,0.0,0.0,0.0,0.0,0.0,0.0,0.0,-2.4728,-2.4249,-2.4734,0.0,0.0,0.0,0.0,-2.5498,-2.4607,0.0,0.0,0.0,0.0,0.0,0.0,0.0,0.0,0.0,0.0,0.0,0.0,0.0,0.0,0.0,0.0,0.0,0.0,0.0,0.0,0.0,0.0,0.0,0.0,0.0,0.0,0.0,0.0,0.0,0.0,0.0,0.0,0.0,0.0,0.0,0.0,0.0,0.0,0.0,0.0,0.0,0.0,0.0,0.0,0.0,0.0,0.0,0.0,0.0,0.0,0.0,0.0,0.0,0.0,0.0,0.0,-3.1221,-3.179,-3.2684,-3.3787,-3.3226,-3.3123,-3.3623,-3.2371,-3.099,0.0,0.0,0.0,0.0,0.0,0.0,0.0,0.0,0.0,0.0,0.0,0.0,0.0,0.0,0.0,0.0,0.0,0.0,0.0,0.0,0.0,0.0,0.0,0.0,0.0,0.0,0.0,0.0,0.0,0.0,0.0,0.0,0.0,0.0,0.0,0.0,0.0,0.0,0.0,0.0,0.0,-2.4838,-2.5095,-2.4826,-2.4752,0.0,0.0,-2.5517,-2.5613,-2.5078,0.0,0.0,0.0,0.0,0.0,0.0,0.0,0.0,0.0,0.0,0.0,0.0,0.0,0.0,0.0,0.0,0.0,0.0,0.0,0.0,0.0,0.0,0.0,0.0,0.0,0.0,0.0,0.0,0.0,0.0,0.0,0.0,0.0,0.0,0.0,0.0,0.0,0.0,0.0,0.0,0.0,0.0,0.0,0.0,0.0,0.0,0.0,0.0,0.0,0.0,0.0,0.0,0.0,0.0,0.0,-2.9919,-3.0922,-3.1925,-3.2851,-3.3653,-3.3109,-3.3018,-3.3484,-3.1946,-3.0468,0.0,0.0,0.0,0.0,0.0,0.0,0.0,0.0,0.0,0.0,0.0,0.0,0.0,0.0,0.0,0.0,0.0,0.0,0.0,0.0,0.0,0.0,0.0,0.0,0.0,0.0,0.0,0.0,0.0,0.0,0.0,0.0,0.0,0.0,0.0,0.0,0.0,0.0,0.0,0.0,0.0,0.0,-2.531,-2.5599,0.0,0.0,0.0,-2.5714,-2.5576,0.0,0.0,0.0,0.0,0.0,0.0,0.0,0.0,0.0,0.0,0.0,0.0,0.0,0.0,0.0,0.0,0.0,0.0,0.0,0.0,0.0,0.0,0.0,0.0,0.0,0.0,0.0,0.0,0.0,0.0,0.0,0.0,0.0,0.0,0.0,0.0,0.0,0.0,0.0,0.0,0.0,0.0,0.0,0.0,0.0,0.0,0.0,0.0,0.0,0.0,0.0,0.0,0.0,0.0,0.0,0.0,0.0,-3.0661,-3.1973,-3.2901,-3.3348,-3.3075,-3.3054,-3.3367,-3.1874,0.0,0.0,0.0,0.0,0.0,0.0,0.0,0.0,0.0,0.0,0.0,0.0,0.0,0.0,0.0,0.0,0.0,0.0,0.0,0.0,0.0,0.0,0.0,0.0,0.0,0.0,0.0,-2.1552,0.0,0.0,0.0,0.0,0.0,0.0,0.0,0.0,0.0,0.0,0.0,0.0,0.0,0.0,-2.607,-2.5469,-2.599,-2.6341,0.0,0.0,-2.567,-2.5414,-2.5032,-2.4503,0.0,0.0,0.0,0.0,0.0,0.0,0.0,0.0,0.0,0.0,0.0,0.0,0.0,0.0,0.0,0.0,0.0,0.0,0.0,0.0,0.0,0.0,0.0,0.0,0.0,0.0,0.0,0.0,0.0,0.0,0.0,0.0,0.0,0.0,0.0,0.0,0.0,0.0,0.0,0.0,0.0,0.0,0.0,0.0,0.0,0.0,0.0,0.0,0.0,0.0,0.0,0.0,0.0,0.0,0.0,-3.0522,-3.2063,-3.293,-3.3037,-3.3549,-3.3762,-3.368,-3.2942,-3.1869,0.0,0.0,0.0,0.0,0.0,0.0,0.0,0.0,0.0,0.0,0.0,0.0,0.0,0.0,0.0,0.0,0.0,0.0,0.0,0.0,0.0,0.0,0.0,0.0,0.0,0.0,0.0,0.0,0.0,0.0,0.0,0.0,0.0,0.0,0.0,0.0,0.0,0.0,0.0,0.0,0.0,-2.6142,-2.5717,-2.5564,-2.5721,0.0,0.0,-2.5333,-2.5093,-2.5381,-2.5397,-2.4703,0.0,0.0,0.0,0.0,0.0,0.0,0.0,0.0,0.0,0.0,0.0,0.0,0.0,0.0,0.0,0.0,0.0,0.0,0.0,0.0,0.0,0.0,0.0,0.0,0.0,0.0,0.0,0.0,0.0,0.0,0.0,0.0,0.0,0.0,0.0,0.0,0.0,0.0,0.0,0.0,0.0,0.0,0.0,0.0,0.0,0.0,0.0,0.0,0.0,0.0,0.0,0.0,0.0,-2.8828,-2.9754,-3.1542,-3.2483,-3.2515,-3.3159,-3.3499,-3.339,-3.2815,-3.1718,0.0,0.0,0.0,0.0,0.0,0.0,0.0,0.0,0.0,0.0,0.0,0.0,0.0,0.0,0.0,0.0,0.0,0.0,0.0,0.0,0.0,0.0,0.0,0.0,0.0,0.0,0.0,0.0,-2.4818,-2.5118,-2.5018,0.0,0.0,0.0,0.0,0.0,0.0,0.0,0.0,0.0,0.0,-2.632,-2.6462,-2.6633,0.0,0.0,-2.6962,-2.6572,-2.6053,-2.5961,-2.5645,-2.4831,-2.4515,0.0,0.0,0.0,0.0,0.0,0.0,0.0,0.0,0.0,0.0,0.0,0.0,0.0,0.0,0.0,0.0,0.0,0.0,0.0,0.0,0.0,0.0,0.0,0.0,0.0,0.0,0.0,0.0,0.0,0.0,0.0,0.0,0.0,0.0,0.0,0.0,0.0,0.0,0.0,0.0,0.0,0.0,0.0,0.0,0.0,0.0,0.0,0.0,0.0,0.0,0.0,0.0,-2.8664,-2.9501,-3.1329,-3.2268,-3.2272,-3.2936,-3.3275,-3.3225,-3.2687,-3.171,0.0,0.0,0.0,0.0,0.0,0.0,0.0,0.0,0.0,0.0,0.0,0.0,0.0,0.0,0.0,0.0,0.0,0.0,0.0,0.0,0.0,0.0,0.0,0.0,0.0,0.0,0.0,0.0,-2.5628,-2.5884,-2.5462,0.0,0.0,0.0,0.0,0.0,0.0,0.0,0.0,0.0,0.0,-2.6855,-2.71,-2.7529,-2.7875,-2.7918,-2.7875,-2.7632,-2.6925,-2.6666,-2.6208,-2.5285,0.0,0.0,0.0,0.0,0.0,0.0,0.0,0.0,0.0,0.0,0.0,0.0,0.0,0.0,0.0,0.0,0.0,0.0,0.0,0.0,0.0,0.0,0.0,0.0,0.0,0.0,0.0,0.0,0.0,0.0,-2.8621,0.0,0.0,0.0,0.0,0.0,0.0,0.0,0.0,0.0,0.0,0.0,0.0,0.0,0.0,0.0,0.0,0.0,0.0,0.0,0.0,0.0,0.0,-2.8738,-2.9993,-3.1552,-3.239,-3.2432,-3.2988,-3.3312,-3.3269,-3.2707,-3.2103,-3.1457,0.0,0.0,0.0,0.0,0.0,0.0,0.0,0.0,0.0,0.0,0.0,0.0,0.0,0.0,0.0,0.0,0.0,0.0,0.0,0.0,0.0,0.0,0.0,0.0,0.0,0.0,-2.5014,-2.6012,-2.657,0.0,0.0,0.0,0.0,0.0,0.0,0.0,0.0,0.0,0.0,-2.7067,-2.7689,-2.751,-2.8015,-2.8464,-2.8657,-2.8496,-2.8153,-2.7431,-2.7445,-2.7234,0.0,0.0,0.0,0.0,0.0,0.0,0.0,0.0,0.0,0.0,0.0,0.0,0.0,0.0,0.0,0.0,0.0,0.0,0.0,0.0,0.0,0.0,0.0,0.0,0.0,0.0,0.0,-2.9261,-2.8824,0.0,0.0,0.0,0.0,0.0,0.0,0.0,0.0,0.0,0.0,0.0,-2.875,-2.8764,0.0,0.0,0.0,0.0,0.0,0.0,0.0,0.0,0.0,0.0,0.0,0.0,-2.9183,-3.0319,-3.1312,-3.2005,-3.2412,-3.3002,-3.3276,-3.3276,-3.308,-3.2736,-3.2103,0.0,0.0,0.0,0.0,0.0,0.0,0.0,0.0,0.0,0.0,0.0,0.0,0.0,0.0,0.0,0.0,0.0,0.0,0.0,0.0,0.0,0.0,0.0,0.0,0.0,-2.5877,0.0,0.0,0.0,0.0,0.0,0.0,0.0,0.0,0.0,0.0,0.0,-2.6295,-2.6941,-2.7249,-2.7625,-2.823,-2.8749,-2.9152,0.0,0.0,0.0,0.0,0.0,0.0,0.0,0.0,0.0,0.0,0.0,0.0,0.0,0.0,-2.3011,-2.2787,-2.2618,-2.2327,-2.1735,0.0,0.0,0.0,0.0,0.0,0.0,0.0,0.0,0.0,0.0,0.0,0.0,0.0,0.0,-2.9292,0.0,-2.9217,0.0,0.0,0.0,0.0,0.0,0.0,0.0,0.0,-2.988,-2.9891,-2.963,-2.9645,-2.9645,0.0,-2.997,-2.9343,0.0,0.0,0.0,0.0,0.0,0.0,0.0,0.0,-2.9724,-3.0825,-3.1485,-3.2216,-3.3016,-3.3403,-3.3733,-3.393,-3.355,-3.3094,-3.2736,-3.1427,-3.0508,0.0,0.0,0.0,0.0,0.0,0.0,0.0,0.0,0.0,0.0,0.0,0.0,0.0,0.0,0.0,0.0,0.0,0.0,0.0,0.0,0.0,0.0,0.0,-2.6557,0.0,0.0,0.0,0.0,0.0,0.0,0.0,0.0,0.0,-2.5565,-2.6191,-2.6888,-2.7603,-2.7865,-2.821,-2.8884,0.0,0.0,0.0,0.0,0.0,0.0,0.0,-2.7623,-2.7038,-2.666,-2.6481,-2.6638,-2.5884,-2.5098,-2.4516,0.0,0.0,-2.368,-2.3495,-2.3185,-2.2621,-2.2084,-2.1618,-2.1267,-2.1078,-2.0953,0.0,0.0,0.0,0.0,0.0,0.0,0.0,0.0,-2.9381,-2.9245,0.0,-2.9135,0.0,0.0,0.0,0.0,0.0,-3.0425,0.0,0.0,-3.1791,-3.2061,-3.1504,-3.1599,-3.1594,-3.1518,-3.1608,-3.1001,-2.9718,-2.9278,0.0,0.0,0.0,0.0,0.0,0.0,-3.0277,-3.1485,-3.2089,-3.2988,-3.4133,-3.4203,-3.4506,-3.5119,-3.3986,-3.3319,-3.3276,-3.2202,-3.1447,-3.1224,-3.0081,0.0,0.0,0.0,0.0,0.0,0.0,0.0,0.0,0.0,0.0,0.0,0.0,0.0,0.0,0.0,0.0,0.0,0.0,0.0,0.0,-2.6432,0.0,0.0,0.0,0.0,0.0,0.0,0.0,0.0,0.0,0.0,-2.6792,-2.7065,-2.7449,-2.7966,0.0,0.0,0.0,0.0,-3.0216,-3.0204,-3.0216,-2.9953,-2.925,-2.8307,-2.7511,-2.6947,0.0,0.0,-2.5381,-2.4822,-2.4453,-2.4638,-2.4776,-2.4635,-2.3575,-2.3354,-2.3227,-2.2813,-2.2514,-2.2346,-2.2117,-2.1762,-2.1556,-3.2854,0.0,0.0,0.0,0.0,-3.1052,-3.0922,-3.0998,-3.1071,-3.0781,-3.024,-3.0714,0.0,0.0,0.0,0.0,0.0,0.0,-3.0866,-3.1284,-3.1631,-3.1654,-3.1485,-3.1551,-3.1537,-3.1499,-3.1968,-3.1982,-3.1626,-3.1912,-3.0847,-2.8538,0.0,0.0,0.0,0.0,-3.1345,-3.2089,-3.2314,-3.3002,-3.4161,-3.4217,-3.452,-3.5175,-3.4393,-3.395,-3.3922,-3.3178,-3.2498,-3.1866,-3.1099,0.0,0.0,0.0,0.0,0.0,0.0,0.0,0.0,0.0,0.0,0.0,0.0,0.0,0.0,0.0,0.0,0.0,0.0,0.0,-2.7748,-2.7814,-2.7629,0.0,0.0,0.0,0.0,0.0,0.0,0.0,0.0,0.0,-2.8602,-2.8157,-2.8092,0.0,0.0,-2.963,-2.9963,-3.0124,-3.0216,-3.0216,-3.0216,0.0,0.0,-2.9432,-2.8816,-2.7583,-2.6723,-2.5942,-2.514,-2.5188,-2.5083,-2.4466,-2.4378,-2.4294,-2.4011,-2.385,-2.3662,-2.3211,-2.2668,-2.2213,-2.1951,-2.1805,-2.1725,-3.3837,-3.3482,-3.2662,-3.2228,-3.2065,-3.1674,-3.154,-3.157,-3.1681,-3.1443,-3.1021,-3.1434,-3.1584,-3.1523,-3.1057,0.0,0.0,0.0,-3.1612,-3.223,-3.2455,-3.2581,-3.2595,-3.2834,-3.2981,-3.296,-3.3326,-3.3241,-3.2778,-3.3347,-3.2497,-3.0263,0.0,0.0,-3.0937,-3.1541,-3.2047,-3.2412,-3.289,-3.3571,-3.459,-3.5068,-3.5391,-3.5541,-3.5152,-3.4645,-3.4071,-3.3806,-3.317,-3.2109,-3.1839,-3.1071,0.0,0.0,0.0,0.0,0.0,0.0,0.0,0.0,0.0,0.0,0.0,-2.5931,-2.5873,0.0,0.0,0.0,-2.757,-2.814,-2.8425,-2.8277,0.0,0.0,0.0,0.0,0.0,0.0,0.0,-2.8103,-2.831,-2.8734,-2.941,-2.8964,-2.8884,-2.9676,-2.978,-2.9894,-3.017,0.0,-3.0216,-3.0216,-3.0216,-3.0136,-2.9931,-2.9301,-2.8258,-2.6532,-2.5926,-2.5401,-2.4784,-2.4883,-2.4873,-2.4399,-2.4211,-2.4211,-2.4211,-2.4119,-2.4022,-2.3688,-2.3313,-2.2928,-2.2783,-2.2598,-2.2395,-3.4467,-3.4385,-3.3615,-3.2896,-3.2367,-3.2335,-3.2103,-3.1743,-3.171,-3.1752,-3.1814,-3.178,-3.2055,-3.252,-3.2548,0.0,-3.2416,-3.2402,-3.2709,-3.3268,-3.379,-3.4078,-3.4119,-3.4687,-3.499,-3.499,-3.499,-3.4393,-3.3274,-3.3776,-3.3505,-3.243,-3.2402,-3.2143,-3.168,-3.2212,-3.2485,-3.243,-3.3483,-3.4371,-3.506,-3.6207,-3.6543,-3.5945,-3.5941,-3.5186,-3.3856,-3.3965,-3.3449,-3.2144,-3.2219,-3.193,-3.1034,0.0,0.0,0.0,0.0,0.0,0.0,0.0,0.0,0.0,0.0,0.0,0.0,0.0,0.0,0.0,-2.8035,0.0,-2.8399,-2.8201,0.0,0.0,0.0,-2.9017,-2.9604,-2.9402,-2.918,-2.9102,0.0,0.0,-2.9537,-2.9606,-2.9722,-3.0158,-3.0216,-3.0216,-3.0216,-3.0216,-3.0159,-3.0034,-3.008,-2.9988,-2.9497,-2.82,-2.6628,-2.4922,-2.4251,-2.4251,-2.4251,-2.426,-2.4211,-2.4211,-2.4211,-2.4211,-2.4211,-2.4214,-2.4211,-2.4165,-2.4174,-2.4183,-2.4048,-2.3683,-2.3326,-3.5056,-3.4923,-3.4723,-3.4235,-3.3614,-3.3357,-3.347,-3.3755,-3.3614,-3.3859,-3.4317,-3.4317,-3.3996,-3.3479,-3.3929,-3.356,-3.247,-3.247,-3.2536,-3.2707,-3.2853,-3.2919,-3.2919,-3.3065,-3.3157,-3.3157,-3.3157,-3.2972,-3.2682,-3.2853,-3.2735,-3.247,-3.2456,-3.2533,-3.2586,-3.3168,-3.3168,-3.247,-3.2773,-3.3223,-3.3807,-3.4566,-3.4872,-3.4725,-3.4299,-3.3874,-3.3528,-3.3132,-3.2736,-3.2397,-3.2048,-3.1495,-3.0637,-3.0165,0.0,0.0,0.0,0.0,0.0,0.0,0.0,0.0,0.0,-2.731,-2.7427,0.0,-2.83,0.0,-2.8682,-2.9326,-3.0245,-2.9754,0.0,0.0,-2.9251,-2.931,-2.947,-2.9945,-3.0139,-2.9941,-3.0206,-3.0421,-3.0347,-3.0134,-3.0078,-3.0204,-3.0216,-3.0216,-3.0216,-3.0216,-2.9943,-2.9244,-2.9095,-2.8771,-2.7955,-2.6877,-2.5926,-2.5401,-2.4686,-2.4211,-2.4211,-2.4211,-2.4211,-2.4211,-2.4211,-2.4211,-2.4211,-2.4211,-2.4211,-2.4211,-2.4211,-2.4152,-2.3954,-2.3795,-2.3646,-3.5567,-3.5354,-3.5246,-3.5011,-3.4661,-3.4498,-3.4625,-3.4937,-3.4719,-3.4843,-3.5166,-3.503,-3.4478,-3.3621,-3.3953,-3.3516,-3.2553,-3.2501,-3.2501,-3.2514,-3.2775,-3.2892,-3.2892,-3.3193,-3.331,-3.331,-3.331,-3.318,-3.2892,-3.2892,-3.2775,-3.2501,-3.2762,-3.2763,-3.2581,-3.3013,-3.3093,-3.2865,-3.2892,-3.3193,-3.3768,-3.4136,-3.4293,-3.4293,-3.3951,-3.363,-3.3229,-3.3016,-3.2731,-3.2354,-3.2147,-3.1811,-3.1234,-3.0906,-3.0266,0.0,0.0,0.0,0.0,0.0,0.0,0.0,0.0,0.0,0.0,0.0,-2.9143,-2.9349,-2.9549,-2.9927,-3.0663,-3.0182,-2.9855,-3.0069,-3.0008,-3.0016,-3.0229,-3.0668,-3.0802,-3.057,-3.084,-3.0927,-3.0826,-3.0646,-3.0499,-3.0397,-3.0352,-3.0352,-3.017,-2.984,-2.9336,-2.8828,-2.8341,-2.7673,-2.6675,-2.6061,-2.5548,-2.506,-2.4587,-2.4211,-2.4211,-2.4211,-2.4211,-2.4211,-2.4211,-2.4211,-2.4211,-2.4211,-2.4211,-2.4211,-2.4211,-2.4152,-2.3994,-2.3904,-2.3755,-3.6143,-3.5882,-3.5807,-3.5818,-3.5904,-3.5849,-3.5713,-3.5574,-3.5264,-3.5162,-3.5179,-3.4946,-3.4338,-3.3478,-3.3522,-3.3222,-3.262,-3.2542,-3.2542,-3.2632,-3.301,-3.3232,-3.3294,-3.3814,-3.4047,-3.4089,-3.4124,-3.3904,-3.3398,-3.3385,-3.3111,-3.2645,-3.3098,-3.3049,-3.2366,-3.2444,-3.271,-3.3068,-3.3137,-3.3439,-3.3959,-3.3972,-3.3972,-3.3972,-3.3972,-3.3606,-3.2895,-3.3049,-3.2836,-3.2097,-3.2215,-3.2179,-3.1959,-3.1634,-3.0957,0.0,-2.9677,0.0,0.0,0.0,0.0,0.0,0.0,0.0,0.0,-2.9675,-2.9975,-3.0678,-3.0392,-3.0302,-3.0543,-3.0229,-3.0324,-3.0915,-3.0869,-3.0918,-3.1291,-3.135,-3.1261,-3.1107,-3.1062,-3.1017,-3.1074,-3.0972,-3.0838,-3.0501,-3.0342,-3.0205,-2.993,-2.9241,-2.8689,-2.8463,-2.7583,-2.6669,-2.5937,-2.5712,-2.5377,-2.4575,-2.4463,-2.4358,-2.4413,-2.4395,-2.4385,-2.4385,-2.4422,-2.4395,-2.4367,-2.4339,-2.4293,-2.4312,-2.4266,-2.4211,-2.4202,-2.4003,-2.3845,-3.749,-3.7062,-3.7502,-3.7956,-3.8414,-3.7812,-3.693,-3.5934,-3.514,-3.4927,-3.5182,-3.5539,-3.5184,-3.4388,-3.4376,-3.3938,-3.3134,-3.2674,-3.2755,-3.3134,-3.2372,-3.2262,-3.2645,-3.28,-3.2849,-3.2885,-3.3301,-3.3448,-3.3305,-3.3305,-3.3268,-3.317,-3.3268,-3.3433,-3.3589,0.0,0.0,0.0,-3.2005,-3.2054,-3.2196,-3.2208,-3.2208,-3.2196,-3.2208,0.0,-3.1945,-3.1991,-3.1974,-3.1787,-3.143,0.0,0.0,0.0,0.0,0.0,0.0,0.0,0.0,0.0,0.0,0.0,-3.0016,-3.0012,-3.0221,-3.0108,-3.0242,-3.0791,-3.0809,-3.0946,-3.1424,-3.1372,-3.142,-3.1504,-3.1504,-3.1521,-3.1605,-3.1617,-3.1629,-3.1584,-3.1395,-3.1229,-3.122,-3.0904,-3.0468,-2.9978,-2.9659,-2.9361,-2.8824,-2.8683,-2.8183,-2.7016,-2.6255,-2.5712,-2.5484,-2.5465,-2.541,-2.5194,-2.5142,-2.5176,-2.5148,-2.5157,-2.5176,-2.5157,-2.5194,-2.5166,-2.5166,-2.4886,-2.4707,-2.4716,-2.445,-2.4211,-2.4211,-2.4161,-2.4152,-3.78,0.0,-3.735,-3.7656,0.0,-3.7395,-3.6764,-3.6157,-3.5543,-3.5276,-3.5277,-3.5232,-3.4904,-3.4308,-3.405,-3.3722,-3.3272,-3.3008,-3.3032,-3.3248,-3.2719,-3.2611,-3.2887,-3.2887,-3.2887,-3.2899,-3.3164,-3.3284,-3.3284,-3.3284,-3.3284,-3.3284,-3.3284,-3.3416,-3.3645,-3.314,-3.2491,-3.1717,-3.1982,-3.1982,-3.1729,-3.1982,-3.1982,-3.1717,0.0,0.0,0.0,0.0,0.0,0.0,0.0,0.0,0.0,0.0,0.0,-3.0677,-3.0737,-3.07,-3.0469,-3.0907,-3.1047,-3.0677,-3.0894,-3.093,-3.0689,-3.0809,-3.1019,-3.1284,-3.1308,-3.1416,-3.1681,-3.1705,-3.1705,-3.1705,-3.1705,-3.1705,-3.1705,-3.1705,-3.1781,-3.2034,-3.198,-3.1793,-3.147,-3.1275,-3.0692,-2.9814,-2.9521,-2.9034,-2.8074,-2.7828,-2.7289,-2.6066,-2.561,-2.5414,-2.5372,-2.5372,-2.5381,-2.5372,-2.5372,-2.5372,-2.5372,-2.5372,-2.5372,-2.5372,-2.5372,-2.5372,-2.5414,-2.5207,-2.512,-2.506,-2.4955,-2.4808,-2.478,-2.4486,-2.4211,-3.7781,-3.682,-3.6914,-3.6967,-3.698,-3.6652,-3.634,-3.6074,0.0,0.0,0.0,-3.4761,-3.4443,-3.4138,-3.3741,-3.3573,-3.3549,-3.3464,-3.3477,-3.3561,-3.3368,-3.3332,-3.3416,-3.3416,-3.3416,-3.3428,-3.3513,-3.3561,-3.3561,-3.3549,-3.3561,-3.3561,-3.3561,-3.3513,-3.3428,-3.3428,-3.2935,-3.2066,-3.2406,-3.2418,-3.203,-3.2406,-3.2418,-3.2006,-3.1994,-3.2006,-3.1994,-3.1898,-3.1862,-3.1849,-3.1765,-3.1705,-3.1705,-3.1705,-3.1512,-3.1103,-3.1055,-3.0874,-3.041,-3.1223,-3.1524,-3.1079,-3.1464,-3.1524,-3.1048,-3.1464,-3.1705,-3.1705,-3.1705,-3.1705,-3.1705,-3.1705,-3.1741,-3.1837,-3.1849,-3.1898,-3.1982,-3.1994,-3.2223,-3.2551,-3.2635,-3.2446,-3.1983,-3.1639,-3.1109,-2.9976,-2.9395,-2.8811,-2.7517,-2.6975,-2.6528,-2.5767,-2.5653,-2.5628,-2.5601,-2.5628,-2.5582,-2.5708,-2.5628,-2.5582,-2.5582,-2.5592,-2.5582,-2.5656,-2.5592,-2.5619,-2.5592,-2.5546,-2.5571,-2.5626,-2.5571,-2.5552,-2.5561,-2.5047,-2.4578,-3.7851,-3.7261,-3.7817,-3.8063,-3.8017,-3.746,-3.6548,-3.5373,-3.5453,-3.5025,-3.4244,-3.463,-3.4727,-3.4667,-3.4595,-3.4619,-3.4583,-3.4102,-3.4126,-3.4559,-3.3705,-3.3513,-3.3886,-3.3886,-3.3886,-3.3922,-3.4342,-3.4607,-3.4607,-3.4546,-3.4619,-3.4607,-3.457,-3.4378,-3.3922,-3.3874,-3.3645,-3.308,-3.314,-3.314,-3.3068,-3.3128,-3.314,-3.308,-3.3044,-3.3056,-3.3056,-3.2623,-3.2382,-3.237,-3.1925,-3.1705,-3.1705,-3.1729,-3.1681,-3.1597,-3.1597,-3.156,-3.1476,-3.1633,-3.1681,-3.1609,-3.1669,-3.1681,-3.1609,-3.1669,-3.1705,-3.1717,-3.1729,-3.1705,-3.1705,-3.1753,-3.1958,-3.2322,-3.2382,-3.2551,-3.2935,-3.3008,-3.3032,-3.3152,-3.3176,-3.3154,-3.29,-3.2063,-3.1192,-3.0227,-2.9216,-2.7878,-2.7034,-2.6354,-2.6097,-2.5975,-2.6197,-2.638,-2.6325,-2.6408,-2.6344,-2.6417,-2.6362,-2.6316,-2.6307,-2.6307,-2.6316,-2.6389,-2.6334,-2.6344,-2.6353,-2.6114,-2.6104,-2.6224,-2.614,-2.6039,-2.6243,-2.5958,-2.5635,-3.7548,-3.6871,-3.7163,-3.7254,-3.7235,-3.6642,-3.5966,-3.5199,-3.5099,-3.4822,-3.4487,-3.4679,-3.4775,-3.4775,-3.4775,-3.4775,-3.4763,-3.4522,-3.4546,-3.4739,-3.4294,-3.4246,-3.4402,-3.4426,-3.4426,-3.4438,-3.4667,-3.4775,-3.4775,-3.4775,-3.4775,-3.4775,-3.4775,-3.4655,-3.4438,-3.4426,-3.4354,-3.4126,-3.3837,-3.3561,-3.3296,-3.3561,-3.3573,-3.3296,-3.3284,-3.3284,-3.3284,-3.3056,-3.2923,-3.2923,-3.2683,-3.2551,-3.2584,-3.2319,-3.2118,-3.2106,-3.1874,-3.1705,-3.1705,-3.1705,-3.1705,-3.1705,-3.1705,-3.1837,-3.2138,-3.1886,-3.1837,-3.2082,-3.2163,-3.2238,-3.256,-3.2539,-3.2647,-3.2887,-3.2923,-3.3032,-3.3236,-3.3284,-3.3392,-3.3645,-3.3693,-3.3565,-3.3288,-3.2718,-3.1968,-3.1091,-2.9591,-2.8196,-2.7196,-2.6652,-2.6352,-2.6316,-2.6472,-2.6564,-2.6591,-2.6591,-2.6591,-2.6591,-2.6591,-2.6591,-2.6591,-2.6591,-2.6591,-2.6591,-2.6591,-2.6591,-2.6591,-2.6444,-2.6426,-2.6472,-2.6463,-2.6417,-2.6527,-2.6573,-2.6334,-3.7083,-3.6417,-3.6417,-3.637,-3.6263,-3.58,-3.5416,-3.5175,-3.492,-3.4775,-3.4775,-3.4775,-3.4775,-3.4775,-3.4775,-3.4775,-3.4775,-3.4775,-3.4775,-3.4775,-3.4775,-3.4775,-3.4775,-3.4775,-3.4775,-3.4775,-3.4775,-3.4775,-3.4775,-3.4775,-3.4775,-3.4775,-3.4775,-3.4775,-3.4775,-3.4775,-3.4775,-3.4751,-3.439,-3.3982,-3.3669,-3.397,-3.4042,-3.3669,-3.3645,-3.3633,-3.3633,-3.3525,-3.3452,-3.3452,-3.3344,-3.3284,-3.3272,-3.2899,-3.2671,-3.2635,-3.2319,-3.2018,-3.1865,-3.1898,-3.1898,-3.1898,-3.2006,-3.2214,-3.2575,-3.2286,-3.219,-3.2599,-3.2683,-3.2839,-3.3152,-3.3248,-3.3332,-3.3428,-3.3452,-3.3537,-3.3621,-3.3633,-3.3765,-3.4102,-3.4162,-3.4029,-3.3653,-3.3362,-3.2555,-3.1162,-2.9817,-2.8465,-2.7584,-2.7008,-2.6745,-2.6691,-2.6636,-2.6591,-2.6591,-2.6591,-2.6591,-2.6591,-2.6591,-2.6591,-2.6591,-2.6591,-2.6591,-2.6591,-2.6591,-2.6591,-2.6591,-2.6573,-2.6619,-2.671,-2.6738,-2.6729,-2.6756,-2.694,-2.6848,-3.6499,-3.6405,-3.6417,-3.6275,-3.6003,-3.5704,-3.5476,-3.5175,-3.4932,-3.4775,-3.4823,-3.4775,-3.4823,-3.4775,-3.4775,-3.4775,-3.4775,-3.4775,-3.4775,-3.4775,-3.4775,-3.4775,-3.4775,-3.4775,-3.4775,-3.4775,-3.4775,-3.4775,-3.4775,-3.4775,-3.4775,-3.4775,-3.4775,-3.4775,-3.4775,-3.4775,-3.4775,-3.4775,-3.4739,-3.4679,-3.4643,-3.4679,-3.4739,-3.4691,-3.4667,-3.4643,-3.4607,-3.4174,-3.3922,-3.3886,-3.3549,-3.3308,-3.3308,-3.3248,-3.3212,-3.3224,-3.3164,-3.2935,-3.2491,-3.243,-3.2466,-3.2466,-3.2875,-3.314,-3.3224,-3.3164,-3.314,-3.3236,-3.3236,-3.326,-3.3296,-3.3344,-3.3561,-3.3886,-3.3934,-3.4102,-3.4462,-3.4643,-3.4667,-3.4691,-3.4594,-3.4678,-3.4348,-3.361,-3.2224,-3.0214,-2.9081,-2.8101,-2.7485,-2.7107,-2.689,-2.689,-2.6791,-2.6636,-2.6591,-2.6591,-2.6591,-2.6591,-2.6591,-2.6591,-2.6591,-2.6591,-2.6591,-2.6591,-2.6591,-2.6591,-2.6591,-2.66,-2.671,-2.6866,-2.6985,-2.7077,-2.7114,-2.7141,-2.6921,-3.6417,-3.6417,-3.6417,-3.637,-3.6181,-3.5955,-3.5668,-3.5428,-3.532,-3.5175,-3.5078,-3.5211,-3.5126,-3.4823,-3.4775,-3.4775,-3.4775,-3.4775,-3.4775,-3.4775,-3.4775,-3.4775,-3.4775,-3.4775,-3.4775,-3.4775,-3.4775,-3.4775,-3.4775,-3.4775,-3.4775,-3.4775,-3.4775,-3.4775,-3.4775,-3.4775,-3.4775,-3.4775,-3.4775,-3.4775,-3.4775,-3.4775,-3.4775,-3.4775,-3.4775,-3.4775,-3.4763,-3.4607,-3.445,-3.4438,-3.4306,-3.4198,-3.4198,-3.3909,-3.3729,-3.3729,-3.3682,-3.3645,-3.3382,-3.3658,-3.3873,-3.3873,-3.3777,-3.3849,-3.4138,-3.3921,-3.3861,-3.4114,-3.3921,-3.3837,-3.4126,-3.4198,-3.4294,-3.4414,-3.4462,-3.4546,-3.4727,-3.4775,-3.4775,-3.4787,-3.4213,-3.3857,-3.3709,-3.2889,-3.1615,-3.0068,-2.9134,-2.8455,-2.7628,-2.7152,-2.6935,-2.6791,-2.6691,-2.6636,-2.6591,-2.6591,-2.6591,-2.6591,-2.6591,-2.6591,-2.6591,-2.6591,-2.6591,-2.6591,-2.6591,-2.6591,-2.6591,-2.6591,-2.6655,-2.6839,-2.683,-2.6839,-2.6839,-2.7022,-2.6976,-3.6417,-3.6417,-3.6417,-3.6358,-3.6275,-3.6098,-3.5824,-3.5633,-3.5633,-3.5464,-3.5368,-3.5524,-3.5416,-3.503,-3.492,-3.4884,-3.4823,-3.4775,-3.4775,-3.4775,-3.4775,-3.4775,-3.4775,-3.4775,-3.4775,-3.4775,-3.4775,-3.4775,-3.4775,-3.4775,-3.4775,-3.4775,-3.4775,-3.4775,-3.4775,-3.4775,-3.4775,-3.4775,-3.4775,-3.4775,-3.4775,-3.4775,-3.4775,-3.4775,-3.4775,-3.4775,-3.4775,-3.4775,-3.4775,-3.4775,-3.4775,-3.4775,-3.4751,-3.4414,-3.427,-3.4402,-3.4426,-3.4426,-3.4426,-3.4787,-3.4991,-3.4979,-3.4739,-3.4787,-3.5027,-3.4727,-3.4619,-3.4871,-3.451,-3.4378,-3.4679,-3.4775,-3.4775,-3.4775,-3.4775,-3.4775,-3.4775,-3.4628,-3.4323,-3.4274,-3.3362,-3.275,-3.265,-3.183,-3.0753,-3.0026,-2.945,-2.888,-2.7789,-2.7314,-2.6999,-2.6736,-2.6636,-2.6591,-2.6591,-2.6591,-2.6591,-2.6591,-2.6591,-2.6591,-2.6591,-2.6591,-2.6591,-2.6591,-2.6591,-2.6591,-2.6591,-2.6591,-2.6591,-2.6591,-2.66,-2.6619,-2.6637,-2.6857,-2.6857,-3.6417,-3.6417,-3.6417,-3.6275,-3.6015,-3.6015,-3.586,-3.562,-3.562,-3.562,-3.556,-3.562,-3.5572,-3.5524,-3.532,-3.503,-3.4823,-3.4823,-3.4823,-3.4823,-3.4823,-3.4823,-3.4775,-3.4775,-3.4775,-3.4775,-3.4775,-3.4775,-3.4775,-3.4775,-3.4775,-3.4775,-3.4775,-3.4775,-3.4775,-3.4775,-3.4775,-3.4775,-3.4775,-3.4775,-3.4775,-3.4775,-3.4775,-3.4775,-3.4775,-3.4775,-3.4775,-3.4775,-3.4775,-3.4775,-3.4775,-3.4775,-3.4775,-3.4751,-3.4955,-3.5449,-3.5533,-3.5545,-3.5545,-3.5641,-3.5665,-3.5689,-3.6002,-3.6266,-3.6206,-3.5773,-3.5521,-3.5569,-3.5051,-3.4787,-3.4811,-3.4847,-3.4775,-3.4775,-3.4775,-3.4775,-3.4787,-3.4066,-3.335,-3.3201,-3.2387,-3.1626,-3.1575,-3.0701,-3.0078,-2.967,-2.9006,-2.8247,-2.8028,-2.7631,-2.7316,-2.7092,-2.6828,-2.6609,-2.6609,-2.6591,-2.6591,-2.6591,-2.6591,-2.6591,-2.6591,-2.6591,-2.6591,-2.6591,-2.6591,-2.6591,-2.6591,-2.6591,-2.6591,-2.6591,-2.6591,-2.6591,-2.6591,-2.6591,-2.6609,-3.6417,-3.6417,-3.6417,-3.631,-3.6288,-3.6275,-3.6086,-3.5872,-3.6038,-3.6003,-3.592,-3.6038,-3.5991,-3.586,-3.5764,-3.5572,-3.532,-3.532,-3.5223,-3.509,-3.5066,-3.4981,-3.4823,-3.4775,-3.4775,-3.4775,-3.4775,-3.4775,-3.4775,-3.4775,-3.4775,-3.4775,-3.4775,-3.4775,-3.4775,-3.4775,-3.4775,-3.4775,-3.4775,-3.4775,-3.4775,-3.4775,-3.4775,-3.4775,-3.4775,-3.4775,-3.4775,-3.4775,-3.4775,-3.4775,-3.4775,-3.4775,-3.4799,-3.516,-3.5569,-3.6074,-3.6435,-3.6627,-3.6663,-3.694,-3.7132,-3.712,-3.6976,-3.6904,-3.6819,-3.6435,-3.6122,-3.6038,-3.5641,-3.5352,-3.5219,-3.504,-3.4775,-3.4775,-3.4775,-3.4775,-3.4775,-3.4421,-3.3967,-3.3151,-3.1666,-3.0287,-2.9795,-2.9122,-2.891,-2.8857,-2.8558,-2.8374,-2.8263,-2.7984,-2.7776,-2.7762,-2.7558,-2.7399,-2.7399,-2.6857,-2.66,-2.6591,-2.6591,-2.6628,-2.6637,-2.6683,-2.6701,-2.6811,-2.6774,-2.6729,-2.6774,-2.6765,-2.6738,-2.671,-2.6701,-2.6747,-2.6591,-2.6729,-2.6692,-3.6417,-3.6417,-3.6417,-3.6417,-3.6417,-3.6417,-3.6263,-3.6146,-3.631,-3.6275,-3.6193,-3.6323,-3.6275,-3.6146,-3.6146,-3.6051,-3.586,-3.5716,-3.5476,-3.5223,-3.5175,-3.5078,-3.4823,-3.4775,-3.4775,-3.4775,-3.4775,-3.4775,-3.4775,-3.4775,-3.4775,-3.4775,-3.4775,-3.4775,-3.4775,-3.4775,-3.4775,-3.4775,-3.4775,-3.4775,-3.4775,-3.4775,-3.4775,-3.4775,-3.4775,-3.4775,-3.4775,-3.4775,-3.4775,-3.4787,-3.4931,-3.516,-3.5364,-3.5845,-3.6278,-3.6663,-3.7156,-3.7445,-3.7481,-3.7781,-3.7962,-3.7962,-3.7673,-3.7445,-3.7409,-3.6952,-3.6699,-3.6555,-3.6194,-3.5869,-3.5809,-3.5557,-3.5208,-3.4931,-3.4775,-3.4775,-3.4775,-3.447,-3.3641,-3.2379,-3.0853,-2.9588,-2.8908,-2.8765,-2.8785,-2.8711,-2.8701,-2.8748,-2.8687,-2.8422,-2.8201,-2.8154,-2.7937,-2.7748,-2.7711,-2.7362,-2.7132,-2.7114,-2.7077,-2.694,-2.6875,-2.6894,-2.6903,-2.6986,-2.7004,-2.6958,-2.6958,-2.6958,-2.6949,-2.694,-2.705,-2.7215,-2.705,-2.6958,-2.6967,-3.6417,-3.6417,-3.6417,-3.6417,-3.6417,-3.6417,-3.6417,-3.637,-3.6417,-3.637,-3.6358,-3.6417,-3.6358,-3.637,-3.637,-3.6358,-3.6228,-3.5847,-3.5464,-3.5271,-3.5223,-3.5066,-3.4823,-3.4775,-3.4775,-3.4775,-3.4775,-3.4775,-3.4775,-3.4775,-3.4775,-3.4775,-3.4775,-3.4775,-3.4775,-3.4775,-3.4775,-3.4775,-3.4775,-3.4775,-3.4775,-3.4775,-3.4775,-3.4775,-3.4775,-3.4775,-3.4775,-3.4775,-3.4799,-3.4883,-3.5328,-3.5845,-3.6314,-3.6795,-3.7144,-3.724,-3.7685,-3.7926,-3.7938,-3.795,-3.7974,-3.7974,-3.795,-3.789,-3.7793,-3.7469,-3.7192,-3.712,-3.6747,-3.6423,-3.6459,-3.6386,-3.5978,-3.5027,-3.4857,-3.4771,-3.4613,-3.3817,-3.2538,-3.1127,-3.0112,-2.9689,-2.9597,-2.9434,-2.9385,-2.9394,-2.9414,-2.9397,-2.9205,-2.8954,-2.8625,-2.8351,-2.8262,-2.8249,-2.8044,-2.7831,-2.784,-2.7765,-2.7693,-2.7583,-2.7509,-2.7491,-2.7454,-2.7473,-2.7454,-2.7463,-2.7445,-2.7398,-2.7519,-2.7528,-2.762,-2.7601,-2.7463,-2.7315,-2.737,-3.6417,-3.6417,-3.6417,-3.6417,-3.6417,-3.6417,-3.6417,-3.6417,-3.6417,-3.6417,-3.6417,-3.6417,-3.6417,-3.6417,-3.6417,-3.6323,-3.6098,-3.5968,-3.5716,-3.5524,-3.5476,-3.5223,-3.4872,-3.4775,-3.4775,-3.4775,-3.4775,-3.4775,-3.4775,-3.4775,-3.4775,-3.4775,-3.4775,-3.4775,-3.4775,-3.4775,-3.4775,-3.4775,-3.4775,-3.4775,-3.4775,-3.4775,-3.4775,-3.4775,-3.4775,-3.4775,-3.4775,-3.4775,-3.5004,-3.534,-3.5521,-3.6026,-3.6783,-3.7096,-3.736,-3.7697,-3.7878,-3.7974,-3.7974,-3.7974,-3.7974,-3.7974,-3.7974,-3.7974,-3.7974,-3.7829,-3.7709,-3.7673,-3.7264,-3.706,-3.7336,-3.7144,-3.6648,-3.5939,-3.5164,-3.4695,-3.4439,-3.3071,-3.1763,-3.1094,-3.0184,-2.9672,-2.9646,-2.9665,-2.9714,-2.9695,-2.9695,-2.9641,-2.9762,-2.9612,-2.9489,-2.9342,-2.9137,-2.8772,-2.8581,-2.8419,-2.8361,-2.826,-2.8122,-2.8088,-2.8033,-2.8005,-2.7969,-2.7987,-2.7969,-2.795,-2.7932,-2.7914,-2.7978,-2.8005,-2.7976,-2.7866,-2.7757,-2.7785,-2.7856,-3.6417,-3.6417,-3.6417,-3.6417,-3.6417,-3.6417,-3.6417,-3.6417,-3.6417,-3.6417,-3.6417,-3.6417,-3.6417,-3.6417,-3.6417,-3.6323,-3.6133,-3.6133,-3.6003,-3.5716,-3.5524,-3.5223,-3.4823,-3.4775,-3.4775,-3.4775,-3.4775,-3.4775,-3.4775,-3.4775,-3.4775,-3.4775,-3.4775,-3.4775,-3.4775,-3.4775,-3.4775,-3.4775,-3.4775,-3.4775,-3.4775,-3.4775,-3.4775,-3.4775,-3.4775,-3.4883,-3.5027,-3.5124,-3.5219,-3.5641,-3.5966,-3.6627,-3.7397,-3.7505,-3.7637,-3.7878,-3.7974,-3.7974,-3.7974,-3.7974,-3.7974,-3.7974,-3.7974,-3.7974,-3.7974,-3.7974,-3.7974,-3.7914,-3.789,-3.7938,-3.8125,-3.772,-3.7252,-3.6938,-3.5869,-3.4971,-3.4339,-3.2821,-3.1851,-3.1502,-3.0804,-3.0229,-3.0068,-3.0059,-3.0068,-3.0059,-3.0059,-3.0107,-3.0323,-3.0161,-3.0122,-2.9963,-2.9564,-2.9319,-2.9166,-2.9048,-2.8938,-2.8764,-2.8553,-2.848,-2.8416,-2.8425,-2.8416,-2.863,-2.8667,-2.8695,-2.8667,-2.8483,-2.8447,-2.8388,-2.837,-2.8297,-2.8214,-2.837,-2.8452,-3.6417,-3.6417,-3.6417,-3.6417,-3.6417,-3.6417,-3.6417,-3.6417,-3.6417,-3.6417,-3.6417,-3.6417,-3.6417,-3.6417,-3.6417,-3.637,-3.6358,-3.631,-3.6146,-3.586,-3.5524,-3.5126,-3.4969,-3.4872,-3.4872,-3.4823,-3.4823,-3.4775,-3.4775,-3.4775,-3.4775,-3.4775,-3.4775,-3.4775,-3.4775,-3.4775,-3.4775,-3.4775,-3.4775,-3.4775,-3.4775,-3.4775,-3.4775,-3.4775,-3.4859,-3.5075,-3.5461,-3.5689,-3.5761,-3.5845,-3.6699,-3.7385,-3.7853,-3.7974,-3.795,-3.7974,-3.7974,-3.7974,-3.7974,-3.7974,-3.7974,-3.7974,-3.7974,-3.7974,-3.7974,-3.7974,-3.8034,-3.813,-3.8443,-3.8671,-3.8566,-3.8152,-3.7688,-3.7394,-3.6195,-3.5146,-3.4086,-3.2965,-3.2414,-3.2184,-3.1568,-3.0937,-3.0889,-3.0859,-3.084,-3.0771,-3.0752,-3.0752,-3.0713,-3.0529,-3.0412,-3.0089,-2.9736,-2.944,-2.9213,-2.9103,-2.8984,-2.8929,-2.8783,-2.8755,-2.8728,-2.8746,-2.8773,-2.8966,-2.9085,-2.9177,-2.914,-2.8906,-2.8796,-2.8755,-2.8737,-2.8737,-2.8773,-2.8847,-2.8838,-3.6417,-3.6417,-3.6417,-3.6417,-3.6417,-3.6417,-3.6417,-3.6417,-3.6417,-3.6417,-3.6417,-3.6417,-3.6417,-3.6417,-3.6405,-3.6275,-3.6193,-3.6146,-3.5955,-3.5704,-3.562,-3.5464,-3.5368,-3.5175,-3.5078,-3.503,-3.4872,-3.4775,-3.4775,-3.4775,-3.4775,-3.4775,-3.4775,-3.4775,-3.4775,-3.4775,-3.4775,-3.4775,-3.4775,-3.4775,-3.4775,-3.4775,-3.4775,-3.4859,-3.5196,-3.5461,-3.5701,-3.6386,-3.6771,-3.6819,-3.7397,-3.7817,-3.795,-3.7974,-3.7974,-3.7974,-3.7974,-3.7974,-3.7974,-3.7974,-3.7974,-3.7974,-3.7974,-3.7974,-3.7974,-3.7986,-3.8178,-3.8479,-3.8725,-3.869,-3.8531,-3.8252,-3.7542,-3.6166,-3.5173,-3.4106,-3.3069,-3.2465,-3.2296,-3.2236,-3.1957,-3.1642,-3.1435,-3.1299,-3.1221,-3.1025,-3.0947,-3.0937,-3.085,-3.0645,-3.0382,-3.0039,-2.9686,-2.945,-2.9213,-2.9044,-2.8984,-2.8984,-2.8929,-2.8911,-2.8893,-2.8902,-2.8938,-2.903,-2.903,-2.9094,-2.9076,-2.8979,-2.8975,-2.8984,-2.9085,-2.9067,-2.9048,-2.9094,-2.9076,-3.6417,-3.6417,-3.6417,-3.6417,-3.6417,-3.6417,-3.6417,-3.6417,-3.6417,-3.6417,-3.6417,-3.6417,-3.6417,-3.6417,-3.6417,-3.6323,-3.6193,-3.6193,-3.6086,-3.5991,-3.5943,-3.58,-3.556,-3.5332,-3.5175,-3.5175,-3.4932,-3.4823,-3.4775,-3.4775,-3.4775,-3.4775,-3.4775,-3.4775,-3.4775,-3.4775,-3.4775,-3.4775,-3.4775,-3.4775,-3.4775,-3.4775,-3.4992,-3.5136,-3.5497,-3.5749,-3.629,-3.7096,-3.7517,-3.7577,-3.7805,-3.7974,-3.7974,-3.7974,-3.7974,-3.7974,-3.7974,-3.7974,-3.7974,-3.7974,-3.7974,-3.7974,-3.7974,-3.7974,-3.8034,-3.8166,-3.8527,-3.8743,-3.8713,-3.8564,-3.8275,-3.7708,-3.6402,-3.4851,-3.4053,-3.3314,-3.2522,-3.2121,-3.2082,-3.2021,-3.1865,-3.1748,-3.1719,-3.1641,-3.1523,-3.1426,-3.1299,-3.1171,-3.0985,-3.0644,-3.0294,-3.0038,-2.9705,-2.939,-2.9213,-2.9094,-2.8984,-2.8984,-2.8984,-2.8984,-2.8984,-2.8993,-2.9085,-2.9094,-2.903,-2.9012,-2.9058,-2.9048,-2.8984,-2.9058,-2.931,-2.9329,-2.9168,-2.9131,-2.914,-3.6417,-3.6417,-3.6417,-3.6417,-3.6417,-3.6417,-3.6417,-3.6417,-3.6417,-3.6417,-3.6417,-3.6417,-3.6417,-3.6417,-3.6417,-3.6417,-3.6405,-3.637,-3.637,-3.6323,-3.6323,-3.6133,-3.5752,-3.5416,-3.532,-3.5223,-3.4932,-3.4823,-3.4775,-3.4775,-3.4775,-3.4775,-3.4775,-3.4775,-3.4775,-3.4775,-3.4775,-3.4775,-3.4775,-3.4775,-3.4811,-3.4944,-3.5184,-3.5497,-3.5869,-3.6374,-3.7072,-3.7685,-3.7926,-3.7962,-3.7974,-3.7974,-3.7974,-3.7974,-3.7974,-3.7974,-3.7974,-3.7974,-3.7974,-3.7974,-3.7974,-3.7974,-3.7974,-3.8034,-3.8166,-3.8503,-3.8839,-3.9164,-3.8624,-3.8251,-3.7568,-3.6285,-3.4933,-3.3819,-3.3403,-3.3135,-3.2783,-3.2148,-3.1855,-3.2129,-3.1543,-3.1582,-3.1768,-3.1885,-3.1709,-3.1816,-3.1709,-3.1561,-3.1236,-3.0815,-3.0503,-3.018,-2.9799,-2.945,-2.9272,-2.9153,-2.9044,-2.8984,-2.8984,-2.8984,-2.8984,-2.903,-2.9177,-2.9204,-2.9058,-2.9094,-2.9241,-2.9186,-2.9039,-2.9003,-2.9122,-2.9076,-2.9003,-2.903,-2.9048,-3.6417,-3.6417,-3.6417,-3.6417,-3.6417,-3.6417,-3.6417,-3.6417,-3.6417,-3.6417,-3.6417,-3.6417,-3.6417,-3.6417,-3.6417,-3.6417,-3.6417,-3.6417,-3.6417,-3.6417,-3.6417,-3.637,-3.6133,-3.5752,-3.5512,-3.5416,-3.503,-3.4823,-3.4823,-3.4872,-3.4823,-3.4823,-3.4823,-3.4775,-3.4823,-3.4823,-3.4775,-3.4775,-3.4775,-3.4775,-3.4871,-3.5232,-3.5497,-3.5761,-3.6423,-3.7132,-3.7661,-3.7926,-3.7974,-3.7974,-3.7974,-3.7974,-3.7974,-3.7974,-3.7974,-3.7974,-3.7974,-3.7974,-3.7974,-3.7974,-3.7974,-3.7974,-3.8046,-3.8166,-3.8611,-3.8755,-3.926,-3.9579,-3.9078,-3.7719,-3.6214,-3.4737,-3.3902,-3.3432,-3.3174,-3.2969,-3.2842,-3.2891,-3.2754,-3.2588,-3.2402,-3.2324,-3.2178,-3.207,-3.2021,-3.2139,-3.21,-3.2021,-3.1576,-3.1034,-3.0622,-3.0222,-2.9639,-2.9222,-2.9213,-2.9094,-2.9044,-2.8984,-2.8984,-2.8984,-2.8984,-2.8993,-2.9104,-2.9104,-2.903,-2.9122,-2.9232,-2.9159,-2.8984,-2.8984,-2.8984,-2.8984,-2.8984,-2.8984,-2.8984,-3.6417,-3.6417,-3.6417,-3.6417,-3.6417,-3.6417,-3.6417,-3.6417,-3.6417,-3.6417,-3.6417,-3.6417,-3.6417,-3.6417,-3.6417,-3.6417,-3.6417,-3.6417,-3.6417,-3.6417,-3.6417,-3.6417,-3.6323,-3.6003,-3.5764,-3.5704,-3.5271,-3.5078,-3.5126,-3.5175,-3.5211,-3.5175,-3.5078,-3.503,-3.4932,-3.4872,-3.4823,-3.4775,-3.4775,-3.4775,-3.4859,-3.534,-3.5966,-3.6362,-3.712,-3.7721,-3.795,-3.7974,-3.7974,-3.7974,-3.7974,-3.7974,-3.7974,-3.7974,-3.7974,-3.7974,-3.7974,-3.7974,-3.7974,-3.7974,-3.7974,-3.7998,-3.8202,-3.8491,-3.8912,-3.9212,-3.9352,-3.9284,-3.8397,-3.6987,-3.4788,-3.4027,-3.3418,-3.3389,-3.3223,-3.3096,-3.3076,-3.2969,-3.2783,-3.25,-3.2226,-3.2178,-3.2109,-3.2101,-3.217,-3.2129,-3.2217,-3.2078,-3.1619,-3.1086,-3.0654,-3.0156,-2.9448,-2.9062,-2.9044,-2.9044,-2.9044,-2.8984,-2.8984,-2.8984,-2.8984,-2.8984,-2.8993,-2.8993,-2.8993,-2.8993,-2.9058,-2.8984,-2.8984,-2.8984,-2.8984,-2.8984,-2.8984,-2.8984,-2.8984,-3.6417,-3.6417,-3.6417,-3.6417,-3.6417,-3.6417,-3.6417,-3.6417,-3.6417,-3.6417,-3.6417,-3.6417,-3.6417,-3.6417,-3.6417,-3.6417,-3.6417,-3.6417,-3.6417,-3.6417,-3.6417,-3.6417,-3.6323,-3.6098,-3.6003,-3.6003,-3.5524,-3.5428,-3.5524,-3.5633,-3.5524,-3.5512,-3.5368,-3.5223,-3.5175,-3.5078,-3.492,-3.4823,-3.4872,-3.4823,-3.4956,-3.5449,-3.6266,-3.7168,-3.7613,-3.7902,-3.7974,-3.7974,-3.7974,-3.7974,-3.7974,-3.7974,-3.7974,-3.7974,-3.7974,-3.7974,-3.7974,-3.7974,-3.7974,-3.7986,-3.801,-3.8082,-3.8503,-3.8912,-3.9224,-3.9678,-3.9602,-3.8665,-3.7621,-3.604,-3.3786,-3.3418,-3.3418,-3.3408,-3.3408,-3.3418,-3.3281,-3.2725,-3.2432,-3.2197,-3.2109,-3.2041,-3.1963,-3.1904,-3.2012,-3.2139,-3.2236,-3.2224,-3.1722,-3.1226,-3.0742,-3.0176,-2.9527,-2.909,-2.8984,-2.903,-2.9021,-2.9021,-2.9012,-2.9003,-2.8993,-2.8984,-2.8984,-2.8984,-2.8984,-2.8984,-2.8984,-2.8984,-2.8984,-2.8984,-2.8984,-2.8984,-2.8984,-2.8984,-2.8984,-3.6417,-3.6417,-3.6417,-3.6417,-3.6417,-3.6417,-3.6417,-3.6417,-3.6417,-3.6417,-3.6417,-3.6417,-3.6417,-3.6417,-3.6417,-3.6417,-3.6417,-3.6417,-3.6417,-3.6417,-3.6417,-3.6417,-3.637,-3.6181,-3.6133,-3.6133,-3.5847,-3.562,-3.562,-3.5633,-3.5716,-3.562,-3.556,-3.5464,-3.5368,-3.532,-3.5223,-3.4981,-3.503,-3.4981,-3.5137,-3.5821,-3.6735,-3.7661,-3.7914,-3.7962,-3.7974,-3.7974,-3.7974,-3.7974,-3.7974,-3.7974,-3.7974,-3.7974,-3.7974,-3.7974,-3.7974,-3.7974,-3.7974,-3.8022,-3.825,-3.8551,-3.8864,-3.9357,-3.9886,-4.017,-3.9888,-3.8612,-3.6898,-3.5005,-3.3597,-3.3418,-3.3418,-3.3418,-3.3418,-3.3418,-3.333,-3.3018,-3.2549,-3.2305,-3.2119,-3.1855,-3.1709,-3.1689,-3.1875,-3.2139,-3.2441,-3.2455,-3.2237,-3.164,-3.0978,-3.0373,-2.9675,-2.9306,-2.8984,-2.9048,-2.9085,-2.9094,-2.9076,-2.9039,-2.9021,-2.8993,-2.8984,-2.8984,-2.8984,-2.8984,-2.8984,-2.8984,-2.8984,-2.8984,-2.8984,-2.8984,-2.8984,-2.8984,-2.8984,-3.6417,-3.6417,-3.6417,-3.6417,-3.6417,-3.6417,-3.6417,-3.6417,-3.6417,-3.6417,-3.6417,-3.6417,-3.6417,-3.6417,-3.6417,-3.6417,-3.6417,-3.6417,-3.6417,-3.6417,-3.6417,-3.6417,-3.6417,-3.6228,-3.6263,-3.631,-3.6133,-3.5991,-3.6038,-3.6038,-3.5991,-3.6003,-3.5908,-3.5716,-3.562,-3.5572,-3.5464,-3.5223,-3.5223,-3.532,-3.5501,-3.6367,-3.7216,-3.7745,-3.7974,-3.7974,-3.7974,-3.7974,-3.7974,-3.7974,-3.7974,-3.7974,-3.7974,-3.7974,-3.7974,-3.7974,-3.7974,-3.7974,-3.8058,-3.8202,-3.8563,-3.8803,-3.926,-3.9813,-4.0319,-4.0506,-3.9929,-3.8119,-3.596,-3.4153,-3.3491,-3.3418,-3.3418,-3.3418,-3.3418,-3.3418,-3.3369,-3.3223,-3.2881,-3.2441,-3.2041,-3.168,-3.1269,-3.1377,-3.168,-3.208,-3.2549,-3.263,-3.2599,-3.187,-3.1073,-3.0354,-2.9717,-2.9435,-2.9159,-2.9269,-2.925,-2.9223,-2.9195,-2.9159,-2.9058,-2.903,-2.9003,-2.8984,-2.8984,-2.8984,-2.8984,-2.8984,-2.8984,-2.8984,-2.8984,-2.8984,-2.8984,-2.8984,-2.8984,-3.6593,-3.6417,-3.6417,-3.6417,-3.6417,-3.6417,-3.6417,-3.6417,-3.6417,-3.6417,-3.6417,-3.6417,-3.6417,-3.6417,-3.6417,-3.6417,-3.6417,-3.6417,-3.6417,-3.6417,-3.6417,-3.6417,-3.6417,-3.6417,-3.6417,-3.637,-3.637,-3.6417,-3.6323,-3.6323,-3.637,-3.6323,-3.6146,-3.6063,-3.5955,-3.5847,-3.5704,-3.556,-3.5476,-3.5673,-3.6219,-3.6892,-3.7497,-3.7926,-3.7974,-3.7974,-3.7974,-3.7974,-3.7974,-3.7974,-3.7974,-3.7974,-3.7974,-3.7974,-3.7974,-3.7974,-3.7974,-3.7974,-3.8106,-3.8491,-3.8815,-3.9068,-3.9874,-4.0319,-4.0323,-4.0126,-3.9334,-3.7298,-3.5057,-3.3534,-3.3418,-3.3418,-3.3418,-3.3418,-3.3418,-3.3408,-3.3369,-3.3252,-3.3037,-3.2568,-3.2012,-3.1641,-3.1357,-3.1279,-3.1631,-3.2041,-3.25,-3.2399,-3.2229,-3.1765,-3.0987,-3.0242,-2.973,-2.9481,-2.9388,-2.958,-2.9525,-2.9434,-2.9406,-2.9439,-2.9214,-2.9067,-2.903,-2.8984,-2.8984,-2.8984,-2.8984,-2.8984,-2.8984,-2.8984,-2.8984,-2.8984,-2.8984,-2.8856,-2.8737,-3.7176,-3.6417,-3.6417,-3.6417,-3.6417,-3.6417,-3.6417,-3.6417,-3.6417,-3.6417,-3.6417,-3.6417,-3.6417,-3.6417,-3.6417,-3.6417,-3.6417,-3.6417,-3.6417,-3.6417,-3.6417,-3.6417,-3.6417,-3.6417,-3.6417,-3.6417,-3.6417,-3.6417,-3.6417,-3.6417,-3.6417,-3.637,-3.637,-3.6228,-3.6051,-3.6133,-3.6051,-3.5716,-3.5837,-3.6198,-3.6758,-3.7287,-3.7702,-3.7935,-3.8027,-3.7974,-3.7974,-3.7974,-3.7974,-3.7974,-3.7974,-3.7974,-3.7974,-3.7974,-3.7974,-3.7974,-3.7974,-3.7974,-3.807,-3.8575,-3.9068,-3.9429,-4.0102,-4.0583,-4.054,-3.93,-3.8149,-3.7429,-3.5005,-3.3733,-3.366,-3.3418,-3.3418,-3.3418,-3.3418,-3.3418,-3.3389,-3.331,-3.3096,-3.2881,-3.2383,-3.1992,-3.166,-3.1601,-3.1621,-3.2041,-3.2331,-3.2231,-3.1907,-3.1336,-3.0667,-2.9837,-2.9661,-2.9439,-2.9507,-2.9718,-2.97,-2.9608,-2.9613,-2.9577,-2.9269,-2.9076,-2.9021,-2.8984,-2.8984,-2.8984,-2.8984,-2.8984,-2.8984,-2.8856,-2.8737,-2.8797,-2.8984,-2.8797,-2.8122,-3.7268,-3.6417,-3.6417,-3.6417,-3.6417,-3.6417,-3.6417,-3.6417,-3.6417,-3.6417,-3.6417,-3.6417,-3.6417,-3.6417,-3.6417,-3.6417,-3.6417,-3.6417,-3.6417,-3.6417,-3.6417,-3.6417,-3.6417,-3.6417,-3.6417,-3.6417,-3.6417,-3.6417,-3.6417,-3.6417,-3.6417,-3.6417,-3.6417,-3.6358,-3.6181,-3.6323,-3.6263,-3.6248,-3.6599,-3.711,-3.7535,-3.788,-3.8125,-3.8226,-3.808,-3.8027,-3.7974,-3.7974,-3.7974,-3.7974,-3.7974,-3.7974,-3.7974,-3.7974,-3.7974,-3.7974,-3.7974,-3.7974,-3.807,-3.8803,-3.9296,-3.9741,-4.0319,-4.0944,-4.0779,-3.9545,-3.8317,-3.8328,-3.6032,-3.4642,-3.4225,-3.3786,-3.3481,-3.3418,-3.3418,-3.3418,-3.3398,-3.331,-3.3174,-3.2978,-3.2783,-3.2432,-3.2129,-3.208,-3.208,-3.2324,-3.249,-3.2348,-3.1742,-3.0981,-3.0146,-2.931,-2.9352,-2.9476,-2.9589,-2.9782,-2.9764,-2.9672,-2.9571,-2.954,-2.9283,-2.9067,-2.9012,-2.8984,-2.8984,-2.8984,-2.8984,-2.8984,-2.8984,-2.8677,-2.8361,-2.8301,-2.8062,-2.6831,-2.6216,-3.775,-3.707,-3.6593,-3.6417,-3.6417,-3.6417,-3.6546,-3.6734,-3.6499,-3.6546,-3.6628,-3.6546,-3.6417,-3.6417,-3.6417,-3.6417,-3.6417,-3.6417,-3.6417,-3.6417,-3.6417,-3.6417,-3.6417,-3.6417,-3.6417,-3.6417,-3.6417,-3.6417,-3.6417,-3.6417,-3.6417,-3.6417,-3.6417,-3.6405,-3.6417,-3.643,-3.642,-3.6661,-3.748,-3.7916,-3.8132,-3.8313,-3.8428,-3.8356,-3.8133,-3.7974,-3.7974,-3.7974,-3.7974,-3.7974,-3.7974,-3.7974,-3.7974,-3.7974,-3.7974,-3.7974,-3.7974,-3.8094,-3.8419,-3.9008,-3.9561,-4.0042,-4.0523,-4.1124,-4.0988,-4.0024,-3.8862,-3.8436,-3.6642,-3.5376,-3.4767,-3.3849,-3.3597,-3.3418,-3.3418,-3.3418,-3.3379,-3.3262,-3.3232,-3.3174,-3.3027,-3.2939,-3.2695,-3.2607,-3.2627,-3.2715,-3.2656,-3.2409,-3.1638,-3.072,-2.9968,-2.9177,-2.9131,-2.9314,-2.9434,-2.9608,-2.9654,-2.9727,-2.9617,-2.9525,-2.9324,-2.9122,-2.8993,-2.8984,-2.9048,-2.8984,-2.8984,-2.8984,-2.8984,-2.8677,-2.8241,-2.7504,-2.6831,-2.5485,-2.4617,-3.9064,-3.8841,-3.7163,-3.6499,-3.6499,-3.6417,-3.6943,-3.7625,-3.6815,-3.6909,-3.7268,-3.6815,-3.6417,-3.6417,-3.6417,-3.6417,-3.6417,-3.6417,-3.6417,-3.6417,-3.6417,-3.6417,-3.6417,-3.6417,-3.6417,-3.6417,-3.6417,-3.6417,-3.6417,-3.6417,-3.6417,-3.6417,-3.6417,-3.6417,-3.6455,-3.6518,-3.6795,-3.7211,-3.8116,-3.8516,-3.8561,-3.8598,-3.8607,-3.8421,-3.8145,-3.7974,-3.7974,-3.7974,-3.7974,-3.7974,-3.7974,-3.7974,-3.7974,-3.7974,-3.7974,-3.7974,-3.8094,-3.8322,-3.8815,-3.926,-3.9801,-4.0319,-4.08,-4.1184,-4.1127,-4.0024,-3.8862,-3.8078,-3.6824,-3.5366,-3.4393,-3.3418,-3.3418,-3.3418,-3.3418,-3.3418,-3.333,-3.3144,-3.3135,-3.3262,-3.3203,-3.3037,-3.3037,-3.29,-3.2881,-3.2949,-3.2604,-3.2419,-3.1453,-3.0594,-2.9882,-2.9338,-2.9182,-2.9168,-2.9168,-2.9351,-2.97,-2.9709,-2.9599,-2.9571,-2.9516,-2.9305,-2.9122,-2.9223,-2.9314,-2.914,-2.8902,-2.8763,-2.867,-2.8603,-2.8002,-2.665,-2.5415,-2.4124,-2.3512,-3.9197,-3.9108,-3.8405,-3.8134,-3.8147,-3.8134,-3.8328,-3.8464,-3.7671,-3.7049,-3.6956,-3.6546,-3.6417,-3.6417,-3.6417,-3.6417,-3.6417,-3.6417,-3.6417,-3.6417,-3.6417,-3.6417,-3.6417,-3.6417,-3.6417,-3.6417,-3.6417,-3.6417,-3.6417,-3.6417,-3.6417,-3.6417,-3.6417,-3.6417,-3.6468,-3.6769,-3.7174,-3.7726,-3.8442,-3.8867,-3.896,-3.8773,-3.8684,-3.8421,-3.8133,-3.8027,-3.7974,-3.7974,-3.7974,-3.7974,-3.7974,-3.7974,-3.7974,-3.7974,-3.7974,-3.8034,-3.8238,-3.8719,-3.9164,-3.9561,-3.997,-4.0727,-4.1064,-4.1184,-4.1184,-4.0629,-4.0327,-3.9298,-3.7719,-3.6205,-3.5909,-3.4445,-3.3418,-3.3418,-3.3418,-3.3418,-3.332,-3.3135,-3.3144,-3.331,-3.3174,-3.2988,-3.3057,-3.3125,-3.3135,-3.3135,-3.2731,-3.2257,-3.1331,-3.0658,-3.0121,-2.9698,-2.9567,-2.9562,-2.958,-2.9709,-2.9846,-2.9709,-2.9589,-2.9599,-2.9617,-2.9553,-2.9424,-2.9534,-2.9654,-2.9644,-2.9328,-2.8646,-2.8278,-2.805,-2.677,-2.5056,-2.3884,-2.2834,-2.2459,-4.0057,-4.0071,-4.0057,-3.9694,-3.9241,-3.9197,-3.9197,-3.9019,-3.8206,-3.7268,-3.6452,-3.6628,-3.6815,-3.6769,-3.6499,-3.6687,-3.6734,-3.6593,-3.6465,-3.6417,-3.6417,-3.6417,-3.6417,-3.6417,-3.6417,-3.6417,-3.6417,-3.6417,-3.6417,-3.6417,-3.6417,-3.6417,-3.6417,-3.6417,-3.6568,-3.7073,-3.7701,-3.8253,-3.8717,-3.9092,-3.9233,-3.8881,-3.8631,-3.8356,-3.8133,-3.8027,-3.7974,-3.7974,-3.7974,-3.7974,-3.7974,-3.7974,-3.7974,-3.7974,-3.7974,-3.8154,-3.8503,-3.9056,-3.9489,-4.003,-4.0379,-4.1016,-4.1148,-4.1184,-4.1184,-4.1184,-4.0815,-4.0141,-3.8684,-3.7588,-3.7116,-3.5067,-3.3786,-3.3723,-3.3418,-3.3408,-3.332,-3.3193,-3.3271,-3.3369,-3.3154,-3.2939,-3.3066,-3.3144,-3.3047,-3.2984,-3.2613,-3.2179,-3.1451,-3.0903,-3.0549,-3.0248,-3.002,-3.0094,-3.0167,-3.0103,-3.0002,-2.9755,-2.9663,-2.9672,-2.9672,-2.9681,-2.9764,-2.9874,-3.0011,-3.0158,-2.9686,-2.8897,-2.8114,-2.7409,-2.5691,-2.386,-2.2772,-2.1846,-2.1601,-4.1953,-4.2051,-4.1953,-4.0916,-3.9461,-3.9241,-3.9241,-3.9241,-3.8328,-3.7441,-3.6849,-3.7441,-3.7671,-3.7487,-3.6862,-3.6909,-3.7083,-3.6687,-3.6417,-3.6417,-3.6417,-3.6417,-3.6417,-3.6417,-3.6417,-3.6417,-3.6417,-3.6417,-3.6417,-3.6417,-3.6417,-3.6455,-3.6493,-3.6543,-3.6531,-3.745,-3.8253,-3.8818,-3.9128,-3.9262,-3.9129,-3.8724,-3.8514,-3.8303,-3.8145,-3.7974,-3.7974,-3.7974,-3.7974,-3.7974,-3.7974,-3.7974,-3.7974,-3.7974,-3.7974,-3.8022,-3.8563,-3.9104,-3.9621,-4.0559,-4.0968,-4.1136,-4.1184,-4.1184,-4.1184,-4.1127,-4.0884,-4.0269,-3.9228,-3.7839,-3.6581,-3.5325,-3.4528,-3.3786,-3.3481,-3.3398,-3.332,-3.3271,-3.334,-3.334,-3.3096,-3.291,-3.3057,-3.3115,-3.2959,-3.2756,-3.2512,-3.2018,-3.148,-3.1123,-3.0804,-3.0766,-3.0543,-3.0543,-3.0552,-3.0332,-3.0149,-2.9883,-2.9791,-2.9865,-2.9965,-3.0075,-3.0158,-3.025,-3.0396,-3.058,-2.9896,-2.9039,-2.7574,-2.6004,-2.4416,-2.2796,-2.1691,-2.1102,-2.1102,-4.2092,-4.2092,-4.2092,-4.1731,-4.1057,-4.0403,-4.0116,-3.9972,-3.9152,-3.8541,-3.8373,-3.863,-3.8315,-3.7841,-3.75,-3.7176,-3.6862,-3.6722,-3.6417,-3.6417,-3.6417,-3.6417,-3.6417,-3.6417,-3.6417,-3.6417,-3.6417,-3.6417,-3.6417,-3.6417,-3.6417,-3.6455,-3.6795,-3.6897,-3.7199,-3.7927,-3.8768,-3.8931,-3.9243,-3.9374,-3.8998,-3.8736,-3.8526,-3.8198,-3.808,-3.8027,-3.8027,-3.8027,-3.8027,-3.8027,-3.7974,-3.7974,-3.7962,-3.7962,-3.7962,-3.8178,-3.8719,-3.9573,-3.9994,-4.0547,-4.08,-4.1004,-4.1136,-4.1124,-4.1184,-4.1184,-4.0872,-4.0443,-3.9709,-3.8447,-3.7127,-3.5858,-3.4891,-3.3786,-3.3418,-3.3418,-3.3369,-3.334,-3.334,-3.3281,-3.3105,-3.291,-3.293,-3.3057,-3.2959,-3.263,-3.2367,-3.2162,-3.1707,-3.1433,-3.1158,-3.1165,-3.1084,-3.1038,-3.0947,-3.0717,-3.0543,-3.0351,-3.0231,-3.0213,-3.0323,-3.0442,-3.0662,-3.0809,-3.0901,-3.0901,-2.983,-2.849,-2.6175,-2.432,-2.3235,-2.2461,-2.1787,-2.1283,-2.1109,-4.2092,-4.2092,-4.2092,-4.2092,-4.1995,-4.1395,-4.093,-4.056,-3.9942,-3.9505,-3.9285,-3.9461,-3.9417,-3.8765,-3.8069,-3.7946,-3.7256,-3.6628,-3.6417,-3.6417,-3.6417,-3.6417,-3.6417,-3.6417,-3.6417,-3.6417,-3.6417,-3.6417,-3.6417,-3.6417,-3.6543,-3.6784,-3.7186,-3.7575,-3.7939,-3.8517,-3.8969,-3.9182,-3.9469,-3.9374,-3.905,-3.8841,-3.8631,-3.8421,-3.8303,-3.825,-3.8198,-3.8145,-3.808,-3.8027,-3.7962,-3.7962,-3.795,-3.7817,-3.7841,-3.819,-3.8755,-3.9621,-4.0174,-4.0114,-4.0319,-4.0487,-4.0763,-4.0992,-4.1124,-4.1184,-4.1184,-4.0815,-4.0257,-3.8933,-3.7489,-3.6287,-3.5304,-3.4205,-3.3418,-3.3418,-3.3408,-3.3379,-3.3369,-3.3291,-3.3242,-3.3037,-3.2842,-3.291,-3.2969,-3.2611,-3.2283,-3.2085,-3.1882,-3.1596,-3.1345,-3.1377,-3.1341,-3.1249,-3.1185,-3.1112,-3.0947,-3.0809,-3.069,-3.058,-3.0662,-3.0781,-3.1075,-3.1295,-3.1222,-3.0791,-2.9509,-2.7859,-2.5924,-2.4101,-2.2686,-2.2107,-2.1809,-2.1543,-2.1343,-4.2092,-4.2092,-4.2092,-4.2092,-4.2092,-4.1995,-4.1479,-4.0603,-4.056,-4.0116,-3.9431,-4.0389,-4.0432,-4.0116,-3.872,-3.8373,-3.8644,-3.7348,-3.6989,-3.6675,-3.6803,-3.6675,-3.6546,-3.6499,-3.6417,-3.6417,-3.6417,-3.6417,-3.6417,-3.6581,-3.682,-3.7161,-3.7713,-3.8153,-3.858,-3.8894,-3.9207,-3.9445,-3.9454,-3.9374,-3.9154,-3.8998,-3.8841,-3.8684,-3.8631,-3.8514,-3.8409,-3.8303,-3.8198,-3.8068,-3.7926,-3.7926,-3.7769,-3.7433,-3.7601,-3.7974,-3.8551,-3.9345,-3.9874,-3.9717,-3.9645,-3.9777,-4.0054,-4.0535,-4.0956,-4.11,-4.1184,-4.1184,-4.0757,-3.9239,-3.773,-3.6885,-3.5971,-3.4746,-3.3534,-3.3418,-3.3418,-3.3408,-3.3408,-3.3389,-3.3379,-3.3232,-3.3018,-3.2998,-3.3014,-3.2795,-3.2492,-3.2243,-3.1999,-3.1619,-3.144,-3.1377,-3.1368,-3.1368,-3.1313,-3.1222,-3.1167,-3.0965,-3.0992,-3.0937,-3.1029,-3.1066,-3.1222,-3.1341,-3.1359,-3.0622,-2.8869,-2.7413,-2.6052,-2.4343,-2.2626,-2.2265,-2.2064,-2.1911,-2.175,-4.2092,-4.2092,-4.2092,-4.2092,-4.2092,-4.2092,-4.1535,-4.0646,-4.0589,-4.076,-4.1283,-4.1535,-4.1254,-4.056,-4.0015,-3.9593,-3.9121,-3.872,-3.8541,-3.8134,-3.7441,-3.7407,-3.7129,-3.6734,-3.6499,-3.6417,-3.6417,-3.6417,-3.6518,-3.6707,-3.6996,-3.7262,-3.8128,-3.8642,-3.902,-3.9309,-3.9496,-3.9634,-3.9594,-3.9478,-3.9374,-3.9218,-3.905,-3.8893,-3.8841,-3.8684,-3.8473,-3.8409,-3.8238,-3.7979,-3.7601,-3.7445,-3.7372,-3.6976,-3.6952,-3.7926,-3.8491,-3.8996,-3.9188,-3.9128,-3.9044,-3.9056,-3.926,-3.9789,-4.0379,-4.0872,-4.1076,-4.116,-4.1057,-3.9732,-3.8149,-3.7056,-3.5848,-3.4393,-3.3471,-3.3418,-3.3418,-3.3418,-3.3418,-3.3418,-3.3418,-3.3379,-3.3164,-3.3184,-3.317,-3.2927,-3.272,-3.2438,-3.2096,-3.1696,-3.1478,-3.1405,-3.1377,-3.1377,-3.1258,-3.1157,-3.1167,-3.1157,-3.1167,-3.1185,-3.1222,-3.1267,-3.1341,-3.1377,-3.1377,-2.99,-2.7768,-2.6647,-2.6113,-2.4317,-2.2753,-2.2539,-2.2385,-2.2218,-2.2091,-4.2092,-4.2092,-4.2092,-4.2092,-4.2092,-4.2092,-4.1717,-4.1254,-4.1156,-4.1577,-4.2051,-4.2051,-4.1758,-4.1254,-4.0745,-4.0246,-3.9768,-3.9254,-3.8854,-3.8192,-3.8115,-3.7487,-3.7083,-3.6769,-3.6499,-3.6417,-3.6417,-3.6417,-3.6581,-3.6983,-3.7274,-3.7965,-3.873,-3.8982,-3.9233,-3.9496,-3.9634,-3.9685,-3.9697,-3.9594,-3.953,-3.9426,-3.9258,-3.905,-3.8998,-3.8788,-3.8473,-3.8409,-3.8166,-3.7774,-3.7276,-3.7072,-3.7036,-3.6759,-3.6843,-3.7709,-3.813,-3.8563,-3.8815,-3.8623,-3.8527,-3.8551,-3.8695,-3.914,-3.9741,-4.0294,-4.0763,-4.1112,-4.0906,-4.0327,-3.8696,-3.7056,-3.5355,-3.3723,-3.3534,-3.3418,-3.3418,-3.3418,-3.3418,-3.3418,-3.3418,-3.3418,-3.3398,-3.3418,-3.3345,-3.3194,-3.2894,-3.2616,-3.219,-3.1716,-3.1478,-3.1423,-3.1377,-3.1368,-3.1249,-3.1176,-3.1222,-3.1258,-3.1249,-3.1286,-3.1359,-3.1377,-3.1377,-3.1377,-3.1377,-2.9509,-2.7445,-2.7039,-2.6365,-2.4356,-2.2739,-2.2512,-2.2418,-2.2458,-2.2365,-4.2092,-4.2092,-4.2092,-4.2092,-4.2092,-4.2092,-4.2051,-4.2092,-4.1995,-4.2092,-4.2092,-4.2092,-4.2051,-4.1758,-4.1254,-4.0916,-4.0575,-4.0144,-3.9475,-3.8069,-3.8206,-3.775,-3.7036,-3.6452,-3.6417,-3.6417,-3.6443,-3.6493,-3.6694,-3.7247,-3.8102,-3.8843,-3.8956,-3.9195,-3.9534,-3.9622,-3.9697,-3.9697,-3.9697,-3.9697,-3.9633,-3.9633,-3.9581,-3.931,-3.9154,-3.8998,-3.8579,-3.8283,-3.8061,-3.7501,-3.706,-3.6843,-3.6627,-3.6747,-3.7,-3.7385,-3.7829,-3.8202,-3.8431,-3.831,-3.813,-3.8214,-3.8455,-3.8755,-3.926,-4.0042,-4.0643,-4.0944,-4.0808,-3.9803,-3.8268,-3.7298,-3.5909,-3.4268,-3.3481,-3.3418,-3.3418,-3.3418,-3.3418,-3.3418,-3.3418,-3.3418,-3.3418,-3.3355,-3.3292,-3.3238,-3.2985,-3.2667,-3.2266,-3.1717,-3.1534,-3.1377,-3.1377,-3.1377,-3.135,-3.1304,-3.1332,-3.135,-3.1322,-3.1332,-3.1368,-3.1377,-3.1377,-3.1046,-3.052,-2.9182,-2.7585,-2.6914,-2.5666,-2.3837,-2.2599,-2.2398,-2.2398,-2.2532,-2.2445,-4.2092,-4.2092,-4.2092,-4.2092,-4.2092,-4.2092,-4.2092,-4.2092,-4.2092,-4.2092,-4.2092,-4.2092,-4.2092,-4.1995,-4.1814,-4.1577,-4.1493,-4.1001,-4.0717,-3.9651,-3.9033,-3.8069,-3.7407,-3.6687,-3.6499,-3.6417,-3.6468,-3.6659,-3.7222,-3.7951,-3.8567,-3.8906,-3.917,-3.9559,-3.9672,-3.9697,-3.9697,-3.9697,-3.9697,-3.9697,-3.9697,-3.953,-3.9322,-3.9206,-3.905,-3.8788,-3.8461,-3.8319,-3.7859,-3.7328,-3.6783,-3.6338,-3.5857,-3.6338,-3.6783,-3.7192,-3.7673,-3.8034,-3.8142,-3.8106,-3.801,-3.7974,-3.819,-3.8455,-3.8984,-3.9862,-4.0427,-4.0631,-4.0285,-3.9055,-3.8022,-3.7232,-3.6356,-3.4716,-3.3418,-3.3418,-3.3418,-3.3418,-3.3418,-3.3418,-3.3418,-3.3418,-3.3418,-3.3355,-3.3228,-3.3048,-3.2731,-3.2348,-3.2093,-3.168,-3.1543,-3.1377,-3.1377,-3.1377,-3.1377,-3.1377,-3.1377,-3.1377,-3.135,-3.1359,-3.1377,-3.1377,-3.124,-3.026,-2.9339,-2.8262,-2.7062,-2.586,-2.453,-2.3052,-2.2592,-2.2452,-2.2478,-2.2605,-2.2425,-4.2092,-4.2092,-4.2092,-4.2092,-4.2092,-4.2092,-4.2092,-4.2092,-4.2092,-4.2092,-4.2092,-4.2092,-4.2092,-4.2092,-4.2092,-4.2092,-4.1995,-4.1535,-4.0589,-3.9826,-3.9299,-3.8328,-3.7579,-3.7002,-3.6956,-3.6841,-3.6852,-3.7123,-3.7852,-3.8429,-3.8932,-3.9195,-3.9584,-3.9697,-3.9697,-3.9697,-3.9697,-3.9697,-3.9697,-3.9697,-3.9645,-3.9478,-3.9102,-3.8945,-3.8736,-3.8461,-3.8194,-3.7992,-3.7468,-3.6786,-3.611,-3.5881,-3.5725,-3.617,-3.6663,-3.7168,-3.7625,-3.7974,-3.7974,-3.7974,-3.7974,-3.7974,-3.7974,-3.8274,-3.8371,-3.9164,-3.9717,-3.989,-3.929,-3.8147,-3.6975,-3.6107,-3.5093,-3.3669,-3.3334,-3.3418,-3.3418,-3.3418,-3.3418,-3.3418,-3.3418,-3.3418,-3.3418,-3.3355,-3.3228,-3.2985,-3.2603,-3.223,-3.1901,-3.1644,-3.1506,-3.1377,-3.1377,-3.1377,-3.1377,-3.1377,-3.1377,-3.1377,-3.1377,-3.1377,-3.1377,-3.1377,-3.1046,-2.9861,-2.8732,-2.7866,-2.6671,-2.5203,-2.4061,-2.2896,-2.2619,-2.2545,-2.2605,-2.2612,-2.2405,-4.2092,-4.2092,-4.2092,-4.2092,-4.2092,-4.2092,-4.2092,-4.2092,-4.2092,-4.2092,-4.2092,-4.2092,-4.2092,-4.2092,-4.2092,-4.2092,-4.1953,-4.1577,-4.0532,-3.9607,-3.8854,-3.8599,-3.8102,-3.7394,-3.7564,-3.7646,-3.7632,-3.8086,-3.8705,-3.9057,-3.9283,-3.9634,-3.9697,-3.9697,-3.9697,-3.9697,-3.9697,-3.9697,-3.9697,-3.9697,-3.9594,-3.9374,-3.8998,-3.8631,-3.8356,-3.825,-3.7923,-3.7481,-3.6964,-3.6278,-3.5591,-3.5557,-3.5761,-3.6218,-3.6771,-3.7288,-3.7733,-3.795,-3.7974,-3.7974,-3.7974,-3.7974,-3.7974,-3.8022,-3.8142,-3.8431,-3.8984,-3.8741,-3.8104,-3.7588,-3.6362,-3.5525,-3.4421,-3.3263,-3.3299,-3.3408,-3.3418,-3.3418,-3.3418,-3.3418,-3.3418,-3.3418,-3.3418,-3.3418,-3.3165,-3.2912,-3.2603,-3.223,-3.191,-3.1644,-3.1442,-3.1377,-3.1377,-3.1377,-3.1377,-3.1377,-3.1377,-3.1377,-3.1377,-3.1377,-3.1304,-3.0908,-3.0251,-2.9125,-2.8131,-2.6871,-2.5801,-2.4467,-2.3425,-2.2694,-2.268,-2.2659,-2.2579,-2.2613,-2.2425,-4.2092,-4.2092,-4.2092,-4.2092,-4.2092,-4.2092,-4.2092,-4.2092,-4.2092,-4.2092,-4.2092,-4.2092,-4.2092,-4.2092,-4.2092,-4.2092,-4.2051,-4.1619,-4.1113,-4.0346,-3.9681,-3.9329,-3.897,-3.8493,-3.8523,-3.8462,-3.838,-3.8743,-3.9108,-3.9346,-3.9546,-3.9685,-3.9697,-3.9697,-3.9697,-3.9697,-3.9697,-3.9697,-3.9697,-3.9645,-3.9374,-3.9166,-3.8893,-3.8566,-3.8291,-3.8133,-3.7841,-3.7457,-3.6952,-3.6266,-3.5543,-3.5605,-3.5918,-3.6411,-3.694,-3.7493,-3.7926,-3.7938,-3.7974,-3.7974,-3.7974,-3.7974,-3.7974,-3.7974,-3.8046,-3.8058,-3.8228,-3.7797,-3.7417,-3.7508,-3.6697,-3.6302,-3.5443,-3.3845,-3.3184,-3.334,-3.3418,-3.3418,-3.3418,-3.3418,-3.3418,-3.3418,-3.3418,-3.3292,-3.3111,-3.2858,-3.254,-3.2166,-3.1782,-3.158,-3.1377,-3.1377,-3.1377,-3.1377,-3.1377,-3.1377,-3.1377,-3.1377,-3.1377,-3.1377,-3.1046,-3.0121,-2.9321,-2.832,-2.6796,-2.527,-2.427,-2.3734,-2.3365,-2.2807,-2.2847,-2.2847,-2.274,-2.2645,-2.2605]},{"header":{"parameterUnit":"m.s-1","parameterCategory":1,"la1":31.0,"la2":29.5877,"lo1":-88.7671,"lo2":-86.6584,"dx":0.0162,"dy":0.0185,"nx":115,"ny":88,"refTime":"2023-01-04T06:00:00:Z","depth":0,"parameterNumber":3,"parameterNumberName":"V-component_of_WINDS"},"data":[0.0,0.0,0.0,0.0,0.0,0.0,0.0,0.0,0.0,0.0,0.0,0.0,0.0,0.0,0.0,0.0,0.0,0.0,0.0,0.0,0.0,0.0,0.0,0.0,0.0,0.0,0.0,0.0,0.0,0.0,0.0,0.0,0.0,0.0,0.0,0.0,0.0,0.0,0.0,0.0,0.0,0.0,0.0,0.0,0.0,0.0,0.0,0.0,0.0,0.0,0.0,0.0,0.0,0.0,0.0,0.0,0.0,0.0,0.0,0.0,0.0,0.0,0.0,0.0,0.0,0.0,0.0,0.0,0.0,0.0,0.0,0.0,0.0,0.0,0.0,0.0,0.0,0.0,0.0,0.0,0.0,0.0,0.0,0.0,0.0,0.0,0.0,0.0,0.0,0.0,0.0,0.0,0.0,0.0,0.0,0.0,0.0,0.0,0.0,0.0,0.0,0.0,0.0,0.0,0.0,0.0,0.0,0.0,0.0,0.0,0.0,0.0,0.0,0.0,0.0,0.0,0.0,0.0,0.0,0.0,0.0,0.0,0.0,0.0,0.0,0.0,0.0,0.0,0.0,0.0,0.0,0.0,0.0,0.0,0.0,0.0,0.0,0.0,0.0,0.0,0.0,0.0,0.0,0.0,0.0,0.0,0.0,0.0,0.0,0.0,0.0,0.0,0.0,0.0,0.0,0.0,0.0,0.0,0.0,0.0,0.0,0.0,0.0,0.0,0.0,0.0,0.0,0.0,0.0,0.0,0.0,0.0,0.0,0.0,0.0,0.0,0.0,0.0,0.0,0.0,0.0,0.0,0.0,0.0,0.0,0.0,0.0,0.0,0.0,0.0,0.0,0.0,0.0,0.0,0.0,0.0,0.0,0.0,0.0,0.0,0.0,0.0,0.0,0.0,0.0,0.0,0.0,0.0,0.0,0.0,0.0,0.0,0.0,0.0,0.0,0.0,0.0,0.0,0.0,0.0,0.0,0.0,0.0,0.0,0.0,0.0,0.0,0.0,0.0,0.0,0.0,0.0,0.0,0.0,0.0,0.0,0.0,0.0,0.0,0.0,0.0,0.0,0.0,0.0,0.0,0.0,0.0,0.0,0.0,0.0,0.0,0.0,0.0,0.0,0.0,0.0,0.0,0.0,0.0,0.0,0.0,0.0,0.0,0.0,0.0,0.0,0.0,0.0,0.0,0.0,0.0,0.0,0.0,0.0,0.0,0.0,0.0,0.0,0.0,0.0,0.0,0.0,0.0,0.0,0.0,0.0,0.0,0.0,0.0,0.0,0.0,0.0,0.0,0.0,0.0,0.0,0.0,0.0,0.0,0.0,0.0,0.0,0.0,0.0,0.0,0.0,0.0,0.0,0.0,0.0,0.0,0.0,0.0,0.0,0.0,0.0,0.0,0.0,0.0,0.0,0.0,0.0,0.0,0.0,0.0,0.0,0.0,0.0,0.0,0.0,0.0,0.0,0.0,0.0,0.0,0.0,0.0,0.0,0.0,0.0,0.0,0.0,0.0,0.0,0.0,0.0,0.0,0.0,0.0,0.0,0.0,0.0,0.0,0.0,0.0,0.0,0.0,0.0,0.0,0.0,0.0,0.0,0.0,0.0,0.0,0.0,0.0,0.0,0.0,0.0,0.0,0.0,0.0,0.0,0.0,0.0,0.0,0.0,0.0,0.0,0.0,0.0,0.0,0.0,0.0,0.0,0.0,0.0,0.0,0.0,0.0,0.0,0.0,0.0,0.0,0.0,0.0,0.0,0.0,0.0,0.0,0.0,0.0,0.0,0.0,0.0,0.0,0.0,0.0,0.0,0.0,0.0,0.0,0.0,0.0,0.0,0.0,0.0,0.0,0.0,0.0,0.0,0.0,0.0,0.0,0.0,0.0,0.0,0.0,0.0,0.0,0.0,0.0,0.0,0.0,0.0,0.0,0.0,0.0,0.0,0.0,0.0,0.0,0.0,0.0,0.0,0.0,0.0,0.0,0.0,0.0,0.0,0.0,0.0,0.0,0.0,0.0,0.0,0.0,0.0,0.0,0.0,0.0,0.0,0.0,0.0,0.0,0.0,0.0,0.0,0.0,0.0,0.0,0.0,0.0,0.0,0.0,0.0,0.0,0.0,0.0,0.0,0.0,0.0,0.0,0.0,0.0,0.0,0.0,0.0,0.0,0.0,0.0,0.0,0.0,0.0,0.0,0.0,0.0,0.0,0.0,0.0,0.0,0.0,0.0,0.0,0.0,0.0,0.0,0.0,0.0,0.0,0.0,0.0,0.0,0.0,0.0,0.0,0.0,0.0,0.0,0.0,0.0,0.0,0.0,0.0,0.0,0.0,0.0,0.0,0.0,0.0,0.0,0.0,0.0,0.0,0.0,0.0,0.0,0.0,0.0,0.0,0.0,0.0,0.0,0.0,0.0,0.0,0.0,0.0,0.0,0.0,0.0,0.0,0.0,0.0,0.0,0.0,0.0,0.0,0.0,0.0,0.0,0.0,0.0,0.0,0.0,0.0,0.0,0.0,0.0,0.0,0.0,0.0,0.0,0.0,0.0,0.0,0.0,0.0,0.0,0.0,0.0,0.0,0.0,0.0,0.0,0.0,0.0,0.0,0.0,0.0,0.0,0.0,0.0,0.0,0.0,0.0,0.0,0.0,0.0,0.0,0.0,0.0,0.0,0.0,0.0,0.0,0.0,0.0,0.0,0.0,0.0,0.0,0.0,0.0,0.0,0.0,0.0,0.0,0.0,0.0,0.0,0.0,0.0,0.0,0.0,0.0,0.0,0.0,0.0,0.0,0.0,0.0,0.0,0.0,0.0,0.0,0.0,0.0,0.0,0.0,0.0,0.0,0.0,0.0,0.0,0.0,0.0,0.0,0.0,0.0,0.0,0.0,0.0,0.0,0.0,0.0,0.0,0.0,0.0,0.0,0.0,0.0,0.0,0.0,0.0,0.0,0.0,0.0,0.0,0.0,0.0,0.0,0.0,0.0,0.0,0.0,0.0,0.0,0.0,0.0,0.0,0.0,0.0,0.0,0.0,0.0,0.0,0.0,0.0,0.0,0.0,0.0,0.0,0.0,0.0,0.0,0.0,0.0,0.0,0.0,0.0,0.0,0.0,0.0,0.0,0.0,0.0,0.0,0.0,0.0,0.0,0.0,0.0,0.0,0.0,0.0,0.0,0.0,0.0,0.0,0.0,0.0,0.0,0.0,0.0,0.0,0.0,0.0,0.0,0.0,0.0,0.0,0.0,0.0,0.0,0.0,0.0,0.0,0.0,0.0,0.0,0.0,0.0,0.0,0.0,0.0,0.0,0.0,0.0,0.0,0.0,0.0,0.0,0.0,0.0,0.0,0.0,0.0,0.0,0.0,0.0,0.0,0.0,0.0,0.0,0.0,0.0,0.0,0.0,0.0,0.0,0.0,0.0,0.0,0.0,0.0,0.0,0.0,0.0,0.0,0.0,0.0,0.0,0.0,0.0,0.0,0.0,0.0,0.0,0.0,0.0,0.0,0.0,0.0,0.0,0.0,0.0,0.0,0.0,0.0,0.0,0.0,0.0,0.0,0.0,0.0,0.0,0.0,0.0,0.0,0.0,0.0,0.0,0.0,0.0,0.0,0.0,0.0,0.0,0.0,0.0,0.0,0.0,0.0,0.0,0.0,0.0,0.0,0.0,0.0,0.0,0.0,0.0,0.0,0.0,0.0,0.0,0.0,0.0,0.0,0.0,0.0,0.0,0.0,0.0,0.0,0.0,0.0,0.0,0.0,0.0,0.0,0.0,0.0,0.0,0.0,0.0,0.0,0.0,0.0,0.0,0.0,0.0,0.0,0.0,0.0,0.0,0.0,0.0,0.0,0.0,0.0,0.0,0.0,0.0,0.0,0.0,0.0,0.0,0.0,0.0,0.0,0.0,0.0,0.0,0.0,0.0,0.0,0.0,0.0,0.0,0.0,0.0,0.0,0.0,0.0,0.0,0.0,0.0,0.0,0.0,0.0,0.0,0.0,0.0,0.0,0.0,0.0,0.0,0.0,0.0,0.0,0.0,0.0,0.0,0.0,0.0,0.0,0.0,0.0,0.0,0.0,0.0,0.0,0.0,0.0,0.0,0.0,0.0,0.0,0.0,0.0,0.0,0.0,0.0,0.0,0.0,0.0,0.0,0.0,0.0,0.0,0.0,0.0,0.0,0.0,0.0,0.0,0.0,0.0,0.0,0.0,0.0,0.0,0.0,0.0,0.0,0.0,0.0,0.0,1.2469,0.0,0.0,0.0,1.3849,0.0,0.0,0.0,0.0,0.0,0.0,0.0,0.0,0.0,0.0,0.0,0.0,0.0,0.0,0.0,0.0,0.0,0.0,0.0,0.0,0.0,0.0,0.0,0.0,0.0,0.0,0.0,0.0,0.0,0.0,0.0,0.0,0.0,0.0,0.0,0.0,0.0,0.0,0.0,0.0,0.0,0.0,0.0,0.0,0.0,0.0,0.0,0.0,0.0,0.0,0.0,0.0,0.0,0.0,0.0,0.0,0.0,0.0,0.0,0.0,0.0,0.0,0.0,0.0,0.0,0.0,0.0,0.0,0.0,0.0,0.0,0.0,0.0,0.0,0.0,0.0,0.0,0.0,0.0,0.0,0.0,0.0,0.0,0.0,0.0,0.0,0.0,0.0,0.0,0.0,0.0,0.0,0.0,0.0,0.0,0.0,0.0,0.0,0.0,0.0,0.0,0.0,0.0,0.0,0.0,0.0,0.0,0.0,0.0,0.0,1.3055,1.3538,1.4286,1.4718,1.4747,0.0,0.0,0.0,0.0,0.0,0.0,0.0,0.0,0.0,0.0,0.0,0.0,0.0,0.0,0.0,0.0,0.0,0.0,0.0,0.0,0.0,0.0,0.0,0.0,0.0,0.0,0.0,0.0,0.0,0.0,0.0,0.0,0.0,0.0,0.0,0.0,0.0,0.0,0.0,0.0,0.0,0.0,0.0,0.0,0.0,0.0,0.0,0.0,0.0,0.0,0.0,0.0,0.0,0.0,0.0,0.0,0.0,0.0,0.0,0.0,0.0,0.0,0.0,0.0,0.0,0.0,0.0,0.0,0.0,0.0,0.0,0.0,0.0,0.0,0.0,0.0,0.0,0.0,0.0,0.0,0.0,0.0,0.0,0.0,0.0,0.0,0.0,0.0,0.0,0.0,0.0,0.0,0.0,0.0,0.0,0.0,0.0,0.0,0.0,0.0,0.0,0.0,0.0,0.0,0.0,0.0,0.0,0.0,0.0,0.0,0.0,0.0,1.493,1.5544,1.5782,0.0,0.0,0.0,0.0,0.0,0.0,0.0,0.0,0.0,0.0,0.0,0.0,0.0,0.0,0.0,0.0,0.0,0.0,0.0,0.0,0.0,0.0,0.0,0.0,0.0,0.0,0.0,0.0,0.0,0.0,0.0,0.0,0.0,0.0,0.0,0.0,0.0,0.0,0.0,0.0,0.0,0.0,0.0,0.0,0.0,0.0,0.0,0.0,0.0,0.0,0.0,0.0,0.0,0.0,0.0,0.0,0.0,0.0,0.0,0.0,0.0,0.0,0.0,0.0,0.0,0.0,0.0,0.0,0.0,0.0,0.0,0.0,0.0,0.0,0.0,0.0,0.0,0.0,0.0,0.0,0.0,0.0,0.0,0.0,0.0,0.0,0.0,0.0,0.0,0.0,0.0,0.0,0.0,0.0,0.0,0.0,0.0,0.0,0.0,0.0,0.0,0.0,0.0,0.0,0.0,0.0,0.0,0.0,0.0,0.0,1.4469,1.4636,1.557,0.0,1.6937,0.0,0.0,0.0,0.0,0.0,0.0,0.0,0.0,0.0,0.0,0.0,0.0,0.0,0.0,0.0,0.0,0.0,0.0,0.0,0.0,0.0,0.0,0.0,0.0,0.0,0.0,0.0,0.0,0.0,0.0,0.0,0.0,0.0,0.0,0.0,0.0,0.0,0.0,0.0,0.0,0.0,0.0,0.0,0.0,0.0,0.0,0.0,0.0,0.0,0.0,0.0,0.0,0.0,0.0,0.0,0.0,0.0,0.0,0.0,0.0,0.0,0.0,0.0,0.0,0.0,0.0,0.0,0.0,0.0,0.0,0.0,0.0,0.0,0.0,0.0,0.0,0.0,0.0,0.0,0.0,0.0,0.0,0.0,0.0,0.0,0.0,0.0,0.0,0.0,0.0,0.0,0.0,0.0,0.0,0.0,0.0,0.0,0.0,0.0,0.0,0.0,0.0,0.0,0.0,0.0,0.0,0.0,0.0,0.0,0.0,1.4872,1.5,1.5961,1.6712,0.0,0.0,0.0,0.0,0.0,0.0,0.0,0.0,0.0,0.0,0.0,0.0,0.0,0.0,0.0,0.0,0.0,0.0,0.0,0.0,0.0,0.0,0.0,0.0,0.0,0.0,0.0,0.0,0.0,0.0,0.0,0.0,0.0,0.0,0.0,0.0,0.0,0.0,0.0,0.0,0.0,0.0,0.0,0.0,0.0,0.0,0.0,0.0,0.0,0.0,0.0,0.0,0.0,0.0,0.0,0.0,0.0,0.0,0.0,0.0,0.0,0.0,0.0,0.0,0.0,0.0,0.0,0.0,0.0,0.0,0.0,0.0,0.0,0.0,0.0,0.0,0.0,0.0,0.0,0.0,0.0,0.0,0.0,0.0,0.0,0.0,0.0,0.0,0.0,0.0,0.0,0.0,0.0,0.0,0.0,0.0,0.0,0.0,0.0,0.0,0.0,0.0,0.0,0.0,0.0,0.0,0.0,0.0,0.0,0.0,1.5295,1.5282,1.5601,1.6313,1.687,1.7189,0.0,0.0,0.0,0.0,0.0,0.0,0.0,0.0,0.0,0.0,0.0,0.0,0.0,0.0,0.0,0.0,0.0,0.0,0.0,0.0,0.0,0.0,0.0,0.0,0.0,0.0,0.0,0.0,0.0,0.0,0.0,0.0,0.0,0.0,0.0,0.0,0.0,0.0,0.0,0.0,0.0,0.0,0.0,0.0,0.0,0.0,0.0,0.0,0.0,0.0,0.0,0.0,0.0,0.0,0.0,0.0,0.0,0.0,0.0,0.0,0.0,0.0,0.0,0.0,0.0,0.0,0.0,0.0,0.0,0.0,0.0,0.0,0.0,0.0,0.0,0.0,0.0,0.0,0.0,0.0,0.0,0.0,0.0,0.0,0.0,0.0,0.0,0.0,0.0,0.0,0.0,0.0,0.0,0.0,0.0,0.0,0.0,0.0,0.0,0.0,0.0,0.0,0.0,0.0,0.0,0.0,0.0,0.0,1.6335,1.57,1.579,1.6558,1.6677,1.6902,0.0,0.0,0.0,0.0,0.0,0.0,0.0,0.0,0.0,0.0,0.0,0.0,0.0,0.0,0.0,0.0,0.0,0.0,0.0,0.0,0.0,0.0,0.0,0.0,0.0,0.0,0.0,0.0,0.0,0.0,0.0,0.0,0.0,0.0,0.0,0.0,0.0,0.0,0.0,0.0,0.0,0.0,0.0,0.0,0.0,0.0,0.0,0.0,0.0,0.0,0.0,0.0,0.0,0.0,0.0,0.0,0.0,0.0,0.0,0.0,0.0,0.0,0.0,0.0,0.0,0.0,0.0,0.0,0.0,0.0,0.0,0.0,0.0,0.0,0.0,0.0,0.0,0.0,0.0,0.0,0.0,0.0,0.0,0.0,0.0,0.0,0.0,0.0,0.0,0.0,0.0,0.0,0.0,0.0,0.0,0.0,0.0,0.0,0.0,0.0,0.0,0.0,0.0,0.0,0.0,0.0,0.0,0.0,0.0,1.6563,1.5809,1.58,1.6648,1.6697,1.6902,0.0,0.0,0.0,0.0,0.0,0.0,0.0,0.0,0.0,0.0,0.0,0.0,0.0,0.0,0.0,0.0,0.0,0.0,0.0,0.0,0.0,0.0,0.0,0.0,0.0,0.0,0.0,0.0,0.0,0.0,0.0,0.0,0.0,0.0,0.0,0.0,0.0,0.0,0.0,0.0,0.0,0.0,0.0,0.0,0.0,0.0,0.0,0.0,0.0,0.0,0.0,0.0,0.0,0.0,0.0,0.0,0.0,0.0,0.0,0.0,0.0,0.0,0.0,0.0,0.0,0.0,0.0,0.0,0.0,0.0,0.0,0.0,0.0,0.0,0.0,0.0,0.0,0.0,0.0,0.0,0.0,0.0,0.0,0.0,0.0,0.0,0.0,0.0,0.0,0.0,0.0,0.0,0.0,0.0,0.0,0.0,0.0,0.0,0.0,0.0,0.0,0.0,0.0,0.0,0.0,0.0,0.0,0.0,0.0,1.6514,1.6074,1.6161,1.6872,1.6911,1.708,0.0,0.0,0.0,0.0,0.0,0.0,0.0,0.0,0.0,0.0,0.0,0.0,0.0,0.0,0.0,0.0,0.0,0.0,0.0,0.0,0.0,0.0,0.0,0.0,0.0,0.0,0.0,0.0,0.0,0.0,0.0,0.0,0.0,0.0,0.0,0.0,0.0,0.0,0.0,0.0,0.0,0.0,0.0,0.0,0.0,0.0,0.0,0.0,0.0,0.0,0.0,0.0,0.0,0.0,0.0,0.0,0.0,0.0,0.0,0.0,0.0,0.0,0.0,0.0,0.0,0.0,0.0,0.0,0.0,0.0,0.0,0.0,0.0,0.0,0.0,0.0,0.0,0.0,0.0,0.0,0.0,0.0,0.0,0.0,0.0,0.0,0.0,0.0,0.0,0.0,0.0,0.0,0.0,0.0,0.0,0.0,0.0,0.0,0.0,0.0,0.0,0.0,0.0,0.0,0.0,0.0,0.0,0.0,1.6553,1.6153,1.6494,1.6863,1.7363,1.7363,1.7383,0.0,0.0,0.0,0.0,0.0,0.0,0.0,0.0,0.0,0.0,0.0,0.0,0.0,0.0,0.0,0.0,0.0,0.0,0.0,0.0,0.0,0.0,0.0,0.0,0.0,0.0,0.0,0.0,0.0,0.0,0.0,0.0,0.0,0.0,0.0,0.0,0.0,0.0,0.0,0.0,0.0,0.0,0.0,0.0,0.0,0.0,0.0,0.0,0.0,0.0,0.0,0.0,0.0,0.0,0.0,0.0,0.0,0.0,0.0,0.0,0.0,0.0,0.0,0.0,0.0,0.0,0.0,0.0,0.0,0.0,0.0,0.0,0.0,0.0,0.0,0.0,0.0,0.0,0.0,0.0,0.0,0.0,0.0,0.0,0.0,0.0,0.0,0.0,0.0,0.0,0.0,0.0,0.0,0.0,0.0,0.0,0.0,0.0,0.0,0.0,0.0,0.0,0.0,0.0,0.0,0.0,0.0,0.0,0.0,1.6562,1.6629,1.6911,1.7353,1.7416,1.7519,0.0,0.0,0.0,0.0,0.0,0.0,0.0,0.0,0.0,0.0,0.0,0.0,0.0,0.0,0.0,0.0,0.0,0.0,0.0,0.0,0.0,0.0,0.0,0.0,0.0,0.0,0.0,0.0,0.0,0.0,0.0,0.0,0.0,0.0,0.0,0.0,0.0,0.0,0.0,0.0,0.0,0.0,0.0,0.0,0.0,0.0,0.0,0.0,0.0,0.0,0.0,0.0,0.0,0.0,0.0,0.0,0.0,0.0,0.0,0.0,0.0,0.0,0.0,0.0,0.0,0.0,0.0,0.0,0.0,0.0,0.0,0.0,0.0,0.0,0.0,0.0,0.0,0.0,0.0,0.0,0.0,0.0,0.0,0.0,0.0,0.0,0.0,0.0,0.0,0.0,0.0,0.0,0.0,0.0,0.0,0.0,0.0,0.0,0.0,0.0,0.0,0.0,0.0,0.0,0.0,0.0,0.0,0.0,0.0,1.7815,1.7619,1.7713,1.8086,1.7884,1.788,1.8169,0.0,0.0,0.0,0.0,0.0,0.0,0.0,0.0,0.0,0.0,0.0,0.0,0.0,0.0,0.0,0.0,0.0,0.0,0.0,0.0,0.0,0.0,0.0,0.0,0.0,0.0,0.0,0.0,0.0,0.0,0.0,0.0,0.0,0.0,0.0,0.0,0.0,0.0,0.0,0.0,0.0,0.0,0.0,0.0,0.0,0.0,0.0,0.0,0.0,0.0,0.0,0.0,0.0,0.0,0.0,0.0,0.0,0.0,0.0,0.0,0.0,0.0,0.0,0.0,0.0,0.0,0.0,0.0,0.0,0.0,0.0,0.0,0.0,0.0,0.0,0.0,0.0,0.0,0.0,0.0,0.0,0.0,0.0,0.0,0.0,0.0,0.0,0.0,0.0,0.0,0.0,0.0,0.0,0.0,0.0,0.0,0.0,0.0,0.0,0.0,0.0,0.0,0.0,0.0,0.0,0.0,0.0,0.0,1.9644,1.9298,1.9152,1.9238,1.8695,1.8458,0.0,0.0,0.0,0.0,0.0,0.0,0.0,0.0,0.0,0.0,0.0,0.0,0.0,0.0,0.0,0.0,0.0,0.0,0.0,0.0,0.0,0.0,0.0,0.0,0.0,0.0,0.0,0.0,0.0,0.0,0.0,0.0,0.0,0.0,0.0,0.0,0.0,0.0,0.0,0.0,0.0,0.0,0.0,0.0,0.0,0.0,0.0,0.0,0.0,0.0,0.0,0.0,0.0,0.0,0.0,0.0,0.0,0.0,0.0,0.0,0.0,0.0,0.0,0.0,0.0,0.0,0.0,0.0,0.0,0.0,0.0,0.0,0.0,0.0,0.0,0.0,0.0,0.0,0.0,0.0,0.0,0.0,0.0,0.0,0.0,0.0,0.0,0.0,0.0,0.0,0.0,0.0,0.0,0.0,0.0,0.0,0.0,0.0,0.0,0.0,0.0,0.0,0.0,0.0,0.0,0.0,0.0,0.0,0.0,2.0377,2.1324,2.1047,1.936,1.9278,1.9051,0.0,0.0,0.0,0.0,0.0,0.0,0.0,0.0,0.0,0.0,0.0,0.0,0.0,0.0,0.0,0.0,0.0,0.0,0.0,0.0,0.0,0.0,0.0,0.0,0.0,0.0,0.0,0.0,0.0,0.0,0.0,0.0,0.0,0.0,0.0,0.0,0.0,0.0,0.0,0.0,0.0,0.0,0.0,0.0,0.0,0.0,0.0,0.0,0.0,0.0,0.0,0.0,0.0,0.0,0.0,0.0,0.0,0.0,0.0,0.0,0.0,0.0,0.0,0.0,0.0,0.0,0.0,0.0,0.0,0.0,0.0,0.0,0.0,0.0,0.0,0.0,0.0,0.0,0.0,0.0,0.0,0.0,0.0,0.0,0.0,0.0,0.0,0.0,0.0,0.0,0.0,0.0,0.0,0.0,0.0,0.0,0.0,0.0,0.0,0.0,0.0,0.0,0.0,0.0,0.0,0.0,0.0,0.0,2.0903,2.1387,2.2237,2.2048,2.0751,2.0529,2.024,0.0,0.0,0.0,0.0,0.0,0.0,0.0,0.0,0.0,0.0,0.0,0.0,0.0,0.0,0.0,0.0,0.0,0.0,0.0,0.0,0.0,0.0,0.0,0.0,0.0,0.0,0.0,0.0,0.0,0.0,0.0,0.0,0.0,0.0,0.0,0.0,0.0,0.0,0.0,0.0,0.0,0.0,0.0,0.0,0.0,0.0,0.0,0.0,0.0,0.0,0.0,0.0,0.0,0.0,0.0,0.0,0.0,0.0,0.0,0.0,0.0,0.0,0.0,0.0,0.0,0.0,0.0,0.0,0.0,0.0,0.0,0.0,0.0,0.0,0.0,0.0,0.0,0.0,0.0,0.0,0.0,0.0,0.0,0.0,0.0,0.0,0.0,0.0,0.0,0.0,0.0,0.0,0.0,0.0,0.0,0.0,0.0,0.0,0.0,0.0,0.0,0.0,0.0,0.0,0.0,0.0,0.0,0.0,2.1352,2.2615,2.2722,2.2829,2.296,2.2173,2.1572,0.0,0.0,0.0,0.0,0.0,0.0,0.0,0.0,0.0,0.0,0.0,0.0,0.0,0.0,0.0,0.0,0.0,0.0,0.0,0.0,0.0,0.0,0.0,0.0,0.0,0.0,0.0,0.0,0.0,0.0,0.0,0.0,0.0,0.0,0.0,0.0,0.0,0.0,0.0,0.0,0.0,0.0,0.0,0.0,0.0,0.0,0.0,0.0,0.0,0.0,0.0,0.0,0.0,0.0,0.0,0.0,0.0,0.0,0.0,0.0,0.0,0.0,0.0,0.0,0.0,0.0,0.0,0.0,0.0,0.0,0.0,0.0,0.0,0.0,0.0,0.0,0.0,0.0,0.0,0.0,0.0,0.0,0.0,0.0,0.0,0.0,0.0,0.0,0.0,0.0,0.0,0.0,0.0,0.0,0.0,0.0,0.0,0.0,0.0,0.0,0.0,0.0,0.0,0.0,0.0,0.0,0.0,0.0,2.2672,2.3587,2.4637,2.5026,2.4732,2.33,2.2015,0.0,0.0,0.0,0.0,0.0,0.0,0.0,0.0,0.0,0.0,0.0,0.0,0.0,0.0,0.0,0.0,0.0,0.0,0.0,0.0,0.0,0.0,0.0,0.0,0.0,0.0,0.0,0.0,0.0,0.0,0.0,0.0,0.0,0.0,0.0,0.0,0.0,0.0,0.0,0.0,0.0,0.0,0.0,0.0,0.0,0.0,0.0,0.0,2.6779,0.0,0.0,0.0,0.0,0.0,0.0,0.0,0.0,0.0,0.0,0.0,0.0,0.0,0.0,0.0,0.0,0.0,0.0,0.0,0.0,0.0,0.0,0.0,0.0,0.0,0.0,0.0,0.0,0.0,0.0,0.0,0.0,0.0,0.0,0.0,0.0,0.0,0.0,0.0,0.0,0.0,0.0,0.0,0.0,0.0,0.0,0.0,0.0,0.0,0.0,0.0,0.0,0.0,0.0,0.0,0.0,0.0,0.0,0.0,2.3253,2.4343,2.5229,2.5573,2.5399,2.4535,2.3453,0.0,0.0,0.0,0.0,0.0,0.0,0.0,0.0,0.0,0.0,0.0,0.0,0.0,0.0,0.0,0.0,0.0,0.0,0.0,0.0,0.0,0.0,0.0,0.0,0.0,0.0,0.0,0.0,0.0,0.0,0.0,0.0,0.0,0.0,0.0,0.0,0.0,0.0,0.0,0.0,0.0,0.0,0.0,0.0,0.0,0.0,0.0,0.0,0.0,0.0,0.0,0.0,0.0,0.0,0.0,0.0,0.0,0.0,0.0,0.0,0.0,0.0,0.0,0.0,0.0,0.0,0.0,0.0,0.0,0.0,0.0,0.0,0.0,0.0,0.0,0.0,0.0,0.0,0.0,0.0,0.0,0.0,0.0,0.0,0.0,0.0,0.0,0.0,0.0,0.0,0.0,0.0,0.0,0.0,0.0,0.0,0.0,0.0,0.0,0.0,0.0,0.0,0.0,0.0,0.0,0.0,0.0,2.2636,2.3701,2.5171,2.5429,2.564,2.585,2.5599,2.5016,2.4165,0.0,0.0,0.0,0.0,0.0,0.0,0.0,0.0,0.0,0.0,0.0,0.0,0.0,0.0,0.0,0.0,0.0,0.0,0.0,0.0,0.0,0.0,0.0,0.0,0.0,0.0,0.0,0.0,0.0,0.0,0.0,0.0,0.0,0.0,0.0,0.0,0.0,0.0,2.5776,2.6448,0.0,0.0,0.0,0.0,0.0,0.0,0.0,0.0,2.7545,0.0,0.0,0.0,0.0,0.0,0.0,0.0,0.0,0.0,0.0,0.0,0.0,0.0,0.0,0.0,0.0,0.0,0.0,0.0,0.0,0.0,0.0,0.0,0.0,0.0,0.0,0.0,0.0,0.0,0.0,0.0,0.0,0.0,0.0,0.0,0.0,0.0,0.0,0.0,0.0,0.0,0.0,0.0,0.0,0.0,0.0,0.0,0.0,0.0,0.0,0.0,0.0,0.0,0.0,0.0,0.0,2.3171,2.3903,2.5071,2.6602,2.6253,2.638,2.6954,2.6088,2.5281,2.4658,0.0,0.0,0.0,0.0,0.0,0.0,0.0,0.0,0.0,0.0,0.0,0.0,0.0,0.0,0.0,0.0,0.0,0.0,0.0,0.0,0.0,0.0,0.0,0.0,0.0,0.0,0.0,0.0,0.0,0.0,0.0,0.0,0.0,0.0,0.0,0.0,0.0,0.0,0.0,2.7135,2.7167,0.0,0.0,0.0,0.0,0.0,0.0,0.0,0.0,2.7779,0.0,0.0,0.0,0.0,0.0,0.0,0.0,0.0,0.0,0.0,0.0,0.0,0.0,0.0,0.0,0.0,0.0,0.0,0.0,0.0,0.0,0.0,0.0,0.0,0.0,0.0,0.0,0.0,0.0,0.0,0.0,0.0,0.0,0.0,0.0,0.0,0.0,0.0,0.0,0.0,0.0,0.0,0.0,0.0,0.0,0.0,0.0,0.0,0.0,0.0,0.0,0.0,0.0,0.0,0.0,2.3873,2.4444,2.5408,2.6779,2.6439,2.6567,2.7231,2.6189,2.5347,0.0,0.0,0.0,0.0,0.0,0.0,0.0,0.0,0.0,0.0,0.0,0.0,0.0,0.0,0.0,0.0,0.0,0.0,0.0,0.0,0.0,0.0,0.0,0.0,0.0,0.0,0.0,0.0,0.0,0.0,0.0,0.0,0.0,0.0,0.0,0.0,0.0,0.0,0.0,0.0,2.7324,2.7588,2.8187,0.0,0.0,0.0,0.0,0.0,0.0,2.9003,2.852,0.0,0.0,0.0,0.0,0.0,0.0,0.0,0.0,0.0,0.0,0.0,0.0,0.0,0.0,0.0,0.0,0.0,0.0,0.0,0.0,0.0,0.0,0.0,0.0,0.0,0.0,0.0,0.0,0.0,0.0,0.0,0.0,0.0,0.0,0.0,0.0,0.0,0.0,0.0,0.0,0.0,0.0,0.0,0.0,0.0,0.0,0.0,0.0,0.0,0.0,0.0,0.0,0.0,0.0,0.0,2.4369,2.4788,2.5578,2.6795,2.6507,2.6659,2.7335,2.6296,2.5407,0.0,0.0,0.0,0.0,0.0,0.0,0.0,0.0,0.0,0.0,0.0,0.0,0.0,0.0,0.0,0.0,0.0,0.0,0.0,0.0,0.0,0.0,0.0,0.0,0.0,0.0,0.0,0.0,0.0,0.0,0.0,0.0,0.0,0.0,0.0,0.0,0.0,0.0,0.0,0.0,0.0,2.8321,2.8963,2.9346,0.0,0.0,0.0,0.0,3.0794,2.9984,0.0,0.0,0.0,0.0,0.0,0.0,0.0,0.0,0.0,0.0,0.0,0.0,0.0,0.0,0.0,0.0,0.0,0.0,0.0,0.0,0.0,0.0,0.0,0.0,0.0,0.0,0.0,0.0,0.0,0.0,0.0,0.0,0.0,0.0,0.0,0.0,0.0,0.0,0.0,0.0,0.0,0.0,0.0,0.0,0.0,0.0,0.0,0.0,0.0,0.0,0.0,0.0,0.0,0.0,0.0,0.0,2.4723,2.5231,2.6115,2.7299,2.6906,2.7002,2.7717,2.6625,2.566,0.0,0.0,0.0,0.0,0.0,0.0,0.0,0.0,0.0,0.0,0.0,0.0,0.0,0.0,0.0,0.0,0.0,0.0,0.0,0.0,0.0,0.0,0.0,0.0,0.0,0.0,0.0,0.0,0.0,0.0,0.0,0.0,0.0,0.0,0.0,0.0,0.0,0.0,0.0,0.0,0.0,2.9666,3.0443,3.0864,3.1397,0.0,0.0,3.1936,3.1985,3.1387,0.0,0.0,0.0,0.0,0.0,0.0,0.0,0.0,0.0,0.0,0.0,0.0,0.0,0.0,0.0,0.0,0.0,0.0,0.0,0.0,0.0,0.0,0.0,0.0,0.0,0.0,0.0,0.0,0.0,0.0,0.0,0.0,0.0,0.0,0.0,0.0,0.0,0.0,0.0,0.0,0.0,0.0,0.0,0.0,0.0,0.0,0.0,0.0,0.0,0.0,0.0,0.0,0.0,0.0,0.0,2.3692,2.5096,2.5968,2.684,2.7741,2.7905,2.8014,2.8097,2.7345,2.6427,0.0,0.0,0.0,0.0,0.0,0.0,0.0,0.0,0.0,0.0,0.0,0.0,0.0,0.0,0.0,0.0,0.0,0.0,0.0,0.0,0.0,0.0,0.0,0.0,0.0,0.0,0.0,0.0,0.0,0.0,0.0,0.0,0.0,0.0,0.0,0.0,0.0,0.0,0.0,0.0,0.0,0.0,3.1677,3.2545,0.0,0.0,0.0,3.374,3.3256,0.0,0.0,0.0,0.0,0.0,0.0,0.0,0.0,0.0,0.0,0.0,0.0,0.0,0.0,0.0,0.0,0.0,0.0,0.0,0.0,0.0,0.0,0.0,0.0,0.0,0.0,0.0,0.0,0.0,0.0,0.0,0.0,0.0,0.0,0.0,0.0,0.0,0.0,0.0,0.0,0.0,0.0,0.0,0.0,0.0,0.0,0.0,0.0,0.0,0.0,0.0,0.0,0.0,0.0,0.0,0.0,0.0,2.5444,2.6769,2.7668,2.8168,2.8815,2.8988,2.8688,2.82,0.0,0.0,0.0,0.0,0.0,0.0,0.0,0.0,0.0,0.0,0.0,0.0,0.0,0.0,0.0,0.0,0.0,0.0,0.0,0.0,0.0,0.0,0.0,0.0,0.0,0.0,0.0,2.3112,0.0,0.0,0.0,0.0,0.0,0.0,0.0,0.0,0.0,0.0,0.0,0.0,0.0,0.0,3.2194,3.2746,3.3947,3.4956,0.0,0.0,3.5089,3.4502,3.3983,3.3571,0.0,0.0,0.0,0.0,0.0,0.0,0.0,0.0,0.0,0.0,0.0,0.0,0.0,0.0,0.0,0.0,0.0,0.0,0.0,0.0,0.0,0.0,0.0,0.0,0.0,0.0,0.0,0.0,0.0,0.0,0.0,0.0,0.0,0.0,0.0,0.0,0.0,0.0,0.0,0.0,0.0,0.0,0.0,0.0,0.0,0.0,0.0,0.0,0.0,0.0,0.0,0.0,0.0,0.0,0.0,2.5611,2.7627,2.8626,2.8592,2.9164,2.9544,2.9667,2.9145,2.8382,0.0,0.0,0.0,0.0,0.0,0.0,0.0,0.0,0.0,0.0,0.0,0.0,0.0,0.0,0.0,0.0,0.0,0.0,0.0,0.0,0.0,0.0,0.0,0.0,0.0,0.0,0.0,0.0,0.0,0.0,0.0,0.0,0.0,0.0,0.0,0.0,0.0,0.0,0.0,0.0,0.0,3.3236,3.3591,3.4706,3.5728,0.0,0.0,3.5597,3.5671,3.5419,3.536,3.5776,0.0,0.0,0.0,0.0,0.0,0.0,0.0,0.0,0.0,0.0,0.0,0.0,0.0,0.0,0.0,0.0,0.0,0.0,0.0,0.0,0.0,0.0,0.0,0.0,0.0,0.0,0.0,0.0,0.0,0.0,0.0,0.0,0.0,0.0,0.0,0.0,0.0,0.0,0.0,0.0,0.0,0.0,0.0,0.0,0.0,0.0,0.0,0.0,0.0,0.0,0.0,0.0,0.0,2.4949,2.644,2.8338,2.9248,2.9213,3.0451,3.0831,3.0197,3.0334,2.9707,0.0,0.0,0.0,0.0,0.0,0.0,0.0,0.0,0.0,0.0,0.0,0.0,0.0,0.0,0.0,0.0,0.0,0.0,0.0,0.0,0.0,0.0,0.0,0.0,0.0,0.0,0.0,0.0,2.7563,2.7897,2.7724,0.0,0.0,0.0,0.0,0.0,0.0,0.0,0.0,0.0,0.0,3.4457,3.5036,3.649,0.0,0.0,3.7626,3.7425,3.7121,3.6565,3.6119,3.6044,3.5503,0.0,0.0,0.0,0.0,0.0,0.0,0.0,0.0,0.0,0.0,0.0,0.0,0.0,0.0,0.0,0.0,0.0,0.0,0.0,0.0,0.0,0.0,0.0,0.0,0.0,0.0,0.0,0.0,0.0,0.0,0.0,0.0,0.0,0.0,0.0,0.0,0.0,0.0,0.0,0.0,0.0,0.0,0.0,0.0,0.0,0.0,0.0,0.0,0.0,0.0,0.0,0.0,2.5696,2.733,2.9151,3.009,3.0029,3.146,3.1784,3.0983,3.1155,3.0622,0.0,0.0,0.0,0.0,0.0,0.0,0.0,0.0,0.0,0.0,0.0,0.0,0.0,0.0,0.0,0.0,0.0,0.0,0.0,0.0,0.0,0.0,0.0,0.0,0.0,0.0,0.0,0.0,2.8463,2.8811,2.8402,0.0,0.0,0.0,0.0,0.0,0.0,0.0,0.0,0.0,0.0,3.5718,3.6291,3.7891,3.899,3.8959,3.899,3.8828,3.8275,3.7645,3.7084,3.6704,0.0,0.0,0.0,0.0,0.0,0.0,0.0,0.0,0.0,0.0,0.0,0.0,0.0,0.0,0.0,0.0,0.0,0.0,0.0,0.0,0.0,0.0,0.0,0.0,0.0,0.0,0.0,0.0,0.0,0.0,2.1862,0.0,0.0,0.0,0.0,0.0,0.0,0.0,0.0,0.0,0.0,0.0,0.0,0.0,0.0,0.0,0.0,0.0,0.0,0.0,0.0,0.0,0.0,2.6916,2.8091,3.0138,3.1211,3.1251,3.1857,3.2169,3.2128,3.1585,3.1002,3.0378,0.0,0.0,0.0,0.0,0.0,0.0,0.0,0.0,0.0,0.0,0.0,0.0,0.0,0.0,0.0,0.0,0.0,0.0,0.0,0.0,0.0,0.0,0.0,0.0,0.0,0.0,2.7781,2.8826,2.9639,0.0,0.0,0.0,0.0,0.0,0.0,0.0,0.0,0.0,0.0,3.5435,3.6996,3.7178,3.8648,3.9721,3.9534,3.9675,3.956,3.8994,3.8745,3.8535,0.0,0.0,0.0,0.0,0.0,0.0,0.0,0.0,0.0,0.0,0.0,0.0,0.0,0.0,0.0,0.0,0.0,0.0,0.0,0.0,0.0,0.0,0.0,0.0,0.0,0.0,0.0,2.3171,2.303,0.0,0.0,0.0,0.0,0.0,0.0,0.0,0.0,0.0,0.0,0.0,2.5717,2.5673,0.0,0.0,0.0,0.0,0.0,0.0,0.0,0.0,0.0,0.0,0.0,0.0,2.7754,2.9025,3.0106,3.0907,3.13,3.187,3.2205,3.2205,3.2015,3.1612,3.1002,0.0,0.0,0.0,0.0,0.0,0.0,0.0,0.0,0.0,0.0,0.0,0.0,0.0,0.0,0.0,0.0,0.0,0.0,0.0,0.0,0.0,0.0,0.0,0.0,0.0,2.9184,0.0,0.0,0.0,0.0,0.0,0.0,0.0,0.0,0.0,0.0,0.0,3.4501,3.5751,3.674,3.7676,3.8589,3.966,4.0309,0.0,0.0,0.0,0.0,0.0,0.0,0.0,0.0,0.0,0.0,0.0,0.0,0.0,0.0,3.7095,3.5597,3.5334,3.5472,3.5907,0.0,0.0,0.0,0.0,0.0,0.0,0.0,0.0,0.0,0.0,0.0,0.0,0.0,0.0,2.4525,0.0,2.4734,0.0,0.0,0.0,0.0,0.0,0.0,0.0,0.0,2.738,2.757,2.7449,2.7404,2.7404,0.0,2.7887,2.7184,0.0,0.0,0.0,0.0,0.0,0.0,0.0,0.0,2.8517,2.9767,3.0405,3.111,3.1884,3.2327,3.2576,3.2766,3.2399,3.2028,3.1612,3.0549,2.9785,0.0,0.0,0.0,0.0,0.0,0.0,0.0,0.0,0.0,0.0,0.0,0.0,0.0,0.0,0.0,0.0,0.0,0.0,0.0,0.0,0.0,0.0,0.0,3.1026,0.0,0.0,0.0,0.0,0.0,0.0,0.0,0.0,0.0,3.3926,3.4995,3.6254,3.7474,3.8178,3.8917,3.9756,0.0,0.0,0.0,0.0,0.0,0.0,0.0,4.0665,4.0753,4.0954,4.107,4.0922,4.0826,4.0856,4.1208,0.0,0.0,3.8174,3.7875,3.802,3.8403,3.8737,3.8999,3.9169,3.9537,3.9824,0.0,0.0,0.0,0.0,0.0,0.0,0.0,0.0,2.5205,2.5422,0.0,2.5607,0.0,0.0,0.0,0.0,0.0,2.8372,0.0,0.0,3.0566,3.0961,3.0357,3.0117,3.0179,3.037,3.0192,2.9612,2.8636,2.7966,0.0,0.0,0.0,0.0,0.0,0.0,2.9238,3.0405,3.0988,3.1857,3.3033,3.3101,3.3322,3.384,3.282,3.2246,3.2205,3.1097,3.0501,3.0617,2.9496,0.0,0.0,0.0,0.0,0.0,0.0,0.0,0.0,0.0,0.0,0.0,0.0,0.0,0.0,0.0,0.0,0.0,0.0,0.0,0.0,3.1923,0.0,0.0,0.0,0.0,0.0,0.0,0.0,0.0,0.0,0.0,3.6373,3.6997,3.778,3.8491,0.0,0.0,0.0,0.0,4.1588,4.1573,4.1588,4.1417,4.0912,4.1381,4.1564,4.0906,0.0,0.0,4.1827,4.2139,4.2354,4.2247,4.2166,4.1614,4.0425,4.0147,4.013,4.0322,4.0512,4.0627,4.0841,4.1583,4.2305,2.59,0.0,0.0,0.0,0.0,2.5768,2.6468,2.7304,2.8161,2.8391,2.8199,2.8578,0.0,0.0,0.0,0.0,0.0,0.0,2.9612,3.0079,3.0479,3.0568,3.0405,3.0336,3.0323,3.0418,3.0804,3.0818,3.054,3.075,2.9659,2.7439,0.0,0.0,0.0,0.0,3.0269,3.0988,3.1205,3.187,3.3061,3.3115,3.3335,3.3894,3.3213,3.2857,3.283,3.211,3.152,3.1246,3.0494,0.0,0.0,0.0,0.0,0.0,0.0,0.0,0.0,0.0,0.0,0.0,0.0,0.0,0.0,0.0,0.0,0.0,0.0,0.0,3.2062,3.3517,3.4349,0.0,0.0,0.0,0.0,0.0,0.0,0.0,0.0,0.0,3.9188,3.8666,3.8665,0.0,0.0,4.0783,4.1241,4.1462,4.1588,4.1588,4.1588,0.0,0.0,4.1741,4.2026,4.2474,4.2974,4.3496,4.3986,4.3959,4.3997,4.4365,4.4436,4.4281,4.388,4.2696,4.1929,4.209,4.2408,4.267,4.2849,4.3143,4.3336,2.8709,2.8282,2.7406,2.7163,2.7326,2.7777,2.8399,2.9119,2.9803,2.9969,2.9761,3.0092,3.0104,2.9914,2.9666,0.0,0.0,0.0,3.0527,3.1124,3.1341,3.1463,3.1477,3.1707,3.178,3.1829,3.2182,3.2101,3.1653,3.2273,3.1382,2.9224,0.0,0.0,2.9876,3.0459,3.0948,3.13,3.1762,3.249,3.3403,3.3865,3.4177,3.4246,3.3946,3.3823,3.3849,3.3005,3.2454,3.2249,3.1357,3.0801,0.0,0.0,0.0,0.0,0.0,0.0,0.0,0.0,0.0,0.0,0.0,2.861,2.8925,0.0,0.0,0.0,3.1855,3.273,3.4253,3.5232,0.0,0.0,0.0,0.0,0.0,0.0,0.0,3.7979,3.8433,3.9188,4.0387,3.9866,3.9756,4.0846,4.0988,4.1146,4.1525,0.0,4.1588,4.1588,4.1588,4.167,4.1866,4.2238,4.2896,4.3939,4.4344,4.4669,4.5059,4.5005,4.4988,4.5291,4.5414,4.5414,4.5414,4.4421,4.3673,4.3855,4.4078,4.4279,4.4354,4.447,4.4551,3.1102,3.096,2.9415,2.9168,2.9724,2.976,3.0067,3.0587,3.0622,3.0663,3.0655,3.069,3.1023,3.161,3.1638,0.0,3.1717,3.1703,3.2003,3.255,3.3133,3.3342,3.3383,3.3864,3.4085,3.4085,3.4085,3.3578,3.2627,3.3119,3.2782,3.173,3.1703,3.1381,3.0794,3.1311,3.1646,3.173,3.2832,3.3629,3.4153,3.5271,3.5598,3.5092,3.5012,3.511,3.5212,3.4039,3.3449,3.3579,3.236,3.193,3.256,0.0,0.0,0.0,0.0,0.0,0.0,0.0,0.0,0.0,0.0,0.0,0.0,0.0,0.0,0.0,3.4775,0.0,3.6677,3.7002,0.0,0.0,0.0,3.8246,3.8756,3.9106,3.9345,3.9329,0.0,0.0,4.0561,4.0656,4.0909,4.1509,4.1588,4.1588,4.1588,4.1588,4.1606,4.172,4.1687,4.1753,4.2125,4.2911,4.3881,4.4961,4.5371,4.5371,4.5371,4.5388,4.5414,4.5414,4.5414,4.5414,4.5414,4.5302,4.5414,4.5328,4.5345,4.5363,4.5346,4.5494,4.5656,3.1703,3.1792,3.1402,3.1097,3.0937,3.1242,3.1692,3.2243,3.239,3.2698,3.3067,3.3067,3.3481,3.4217,3.4678,3.4981,3.5203,3.5203,3.5274,3.5382,3.554,3.5612,3.5612,3.5769,3.5791,3.5791,3.5791,3.5669,3.5432,3.554,3.549,3.5203,3.5188,3.4583,3.3451,3.3974,3.4572,3.5203,3.5454,3.5862,3.6413,3.7148,3.7477,3.732,3.6862,3.6644,3.667,3.6,3.5647,3.5666,3.4821,3.4295,3.4176,3.3209,0.0,0.0,0.0,0.0,0.0,0.0,0.0,0.0,0.0,3.1486,3.1901,0.0,3.4331,0.0,3.6058,3.7117,3.7433,3.7998,0.0,0.0,3.873,3.8808,3.8932,3.938,3.9724,3.9824,4.0358,4.0831,4.1105,4.1286,4.1399,4.1573,4.1588,4.1588,4.1588,4.1588,4.1785,4.2254,4.2333,4.2554,4.3047,4.3752,4.4344,4.4669,4.5113,4.5414,4.5414,4.5414,4.5414,4.5414,4.5414,4.5414,4.5414,4.5414,4.5414,4.5414,4.5414,4.5423,4.5528,4.5589,4.5667,3.2448,3.268,3.2796,3.2648,3.2393,3.2595,3.2858,3.3154,3.3382,3.3647,3.3959,3.4574,3.5316,3.6133,3.641,3.6496,3.6393,3.6414,3.6414,3.6428,3.664,3.6771,3.6771,3.7026,3.7157,3.7157,3.7157,3.7012,3.6771,3.6771,3.664,3.6414,3.6626,3.6547,3.6106,3.587,3.6115,3.6822,3.6771,3.7026,3.7586,3.7912,3.8086,3.8086,3.7789,3.7762,3.8141,3.7236,3.6915,3.7219,3.6336,3.5956,3.6329,3.5554,3.4971,0.0,0.0,0.0,0.0,0.0,0.0,0.0,0.0,0.0,0.0,0.0,3.5988,3.6324,3.7315,3.7962,3.795,3.8457,3.8908,3.9187,3.9284,3.9474,3.9753,4.0057,4.0324,4.0475,4.0834,4.1135,4.1187,4.1321,4.1406,4.1456,4.1489,4.1489,4.1621,4.1835,4.219,4.2539,4.2818,4.3229,4.3852,4.4243,4.4586,4.4862,4.5167,4.5414,4.5414,4.5414,4.5414,4.5414,4.5414,4.5414,4.5414,4.5414,4.5414,4.5414,4.5414,4.5423,4.5485,4.5554,4.5632,3.3265,3.346,3.3684,3.3842,3.3923,3.4094,3.4039,3.3759,3.4054,3.4328,3.4646,3.5951,3.7066,3.7923,3.7806,3.755,3.7195,3.7107,3.7107,3.721,3.7476,3.7645,3.7798,3.8304,3.8567,3.853,3.8655,3.8406,3.7916,3.7901,3.7673,3.7225,3.7659,3.8271,3.9003,3.7736,3.7298,3.779,3.7703,3.7879,3.8384,3.8399,3.8399,3.8399,3.8399,3.8745,3.9376,3.8271,3.794,3.8592,3.7469,3.7345,3.8427,3.7783,3.7305,0.0,3.6485,0.0,0.0,0.0,0.0,0.0,0.0,0.0,0.0,3.739,3.76,3.8138,3.8466,3.8611,3.857,3.8866,3.9164,3.957,3.9779,4.0112,4.0687,4.0765,4.0833,4.1,4.1034,4.1068,4.1049,4.1102,4.1203,4.1598,4.1762,4.1958,4.2154,4.2446,4.2633,4.2901,4.3611,4.4495,4.4925,4.4987,4.5199,4.5618,4.5767,4.569,4.5793,4.5759,4.5742,4.5742,4.5811,4.5759,4.5707,4.5656,4.5569,4.5604,4.5518,4.5414,4.5397,4.5502,4.5563,3.3904,3.3591,3.4065,3.4553,3.5123,3.6674,3.6291,3.4626,3.5294,3.6565,3.8227,3.9039,3.9856,4.0621,4.0606,4.0897,4.1376,4.0893,4.0903,4.1376,4.0335,4.0197,4.0766,4.0868,4.0929,4.0974,4.1492,4.1675,4.1589,4.1589,4.1544,4.1422,4.1544,4.1937,4.2512,0.0,0.0,0.0,3.9878,3.9939,4.0025,4.0041,4.0041,4.0025,4.0041,0.0,4.025,4.0039,3.9928,4.0052,3.9337,0.0,0.0,0.0,0.0,0.0,0.0,0.0,0.0,0.0,0.0,0.0,3.7567,3.7646,3.8078,3.8192,3.8534,3.9146,3.9256,3.9521,4.004,4.0155,4.0216,4.0324,4.0324,4.0435,4.0543,4.0558,4.0574,4.0608,4.073,4.0882,4.0963,4.1104,4.1743,4.2813,4.3154,4.3734,4.4812,4.3645,4.3295,4.4741,4.5936,4.6867,4.7058,4.7024,4.6921,4.7258,4.7286,4.7224,4.7172,4.7189,4.7224,4.7189,4.7258,4.7207,4.7207,4.6803,4.6345,4.6362,4.5862,4.5414,4.5414,4.5441,4.5423,3.6265,0.0,3.6784,3.7085,0.0,3.8555,3.8404,3.7361,3.7866,3.9093,4.0761,4.0799,4.1413,4.2462,4.2143,4.2206,4.2586,4.2248,4.2279,4.2556,4.1878,4.174,4.2094,4.2094,4.2094,4.2109,4.2448,4.2602,4.2602,4.2602,4.2602,4.2602,4.2602,4.2771,4.3063,4.2417,4.1586,4.0505,4.0843,4.0843,4.052,4.0843,4.0843,4.0505,0.0,0.0,0.0,0.0,0.0,0.0,0.0,0.0,0.0,0.0,0.0,3.8913,3.8815,3.8595,3.8305,3.8855,3.9118,3.8913,3.9189,3.9235,3.8928,3.9256,3.9613,3.9951,3.9982,4.012,4.0459,4.0489,4.0489,4.0489,4.0489,4.0489,4.0489,4.0489,4.0678,4.1001,4.1117,4.1434,4.2144,4.2362,4.293,4.3994,4.4285,4.4815,4.5813,4.5299,4.5193,4.6425,4.7168,4.7672,4.7717,4.7717,4.7734,4.7717,4.7717,4.7717,4.7717,4.7717,4.7717,4.7717,4.7717,4.7717,4.7672,4.7407,4.7121,4.7131,4.681,4.6535,4.6483,4.5931,4.5414,3.8615,3.9399,3.9498,3.9556,3.957,4.0086,4.0448,4.0685,0.0,0.0,0.0,4.2168,4.2629,4.3694,4.3187,4.2971,4.294,4.2833,4.2848,4.2956,4.2709,4.2663,4.2771,4.2771,4.2771,4.2786,4.2894,4.2956,4.2956,4.294,4.2956,4.2956,4.2956,4.2894,4.2786,4.2786,4.2155,4.0951,4.1478,4.1494,4.0905,4.1478,4.1494,4.0874,4.0858,4.0874,4.0858,4.0735,4.0689,4.0674,4.0566,4.0489,4.0489,4.0489,4.0243,3.9721,3.9659,3.9428,3.8923,3.9874,4.0259,3.969,4.0182,4.0259,3.9739,4.0182,4.0489,4.0489,4.0489,4.0489,4.0489,4.0489,4.0536,4.0659,4.0674,4.0735,4.0843,4.0858,4.1151,4.1663,4.1771,4.2189,4.3223,4.3548,4.412,4.4968,4.5373,4.5884,4.6831,4.7077,4.7128,4.7705,4.812,4.82,4.8148,4.82,4.8114,4.8224,4.82,4.8114,4.8114,4.8131,4.8114,4.8252,4.8131,4.8183,4.8131,4.8045,4.7965,4.8068,4.7965,4.7931,4.7948,4.6983,4.6104,3.9282,3.9009,3.9504,3.9674,3.98,4.1331,4.2604,4.3585,4.2533,4.2583,4.3438,4.3929,4.425,4.4471,4.4379,4.431,4.4264,4.3747,4.3778,4.4233,4.314,4.2894,4.347,4.347,4.347,4.3516,4.4055,4.4295,4.4295,4.4317,4.431,4.4295,4.4348,4.4002,4.3516,4.3454,4.3063,4.234,4.2417,4.2417,4.2325,4.2402,4.2417,4.234,4.2294,4.2309,4.2309,4.1755,4.1447,4.1432,4.0863,4.0489,4.0489,4.052,4.0459,4.0351,4.0351,4.0305,4.0197,4.0397,4.0459,4.0366,4.0443,4.0459,4.0366,4.0443,4.0489,4.0505,4.052,4.0489,4.0489,4.0551,4.0812,4.137,4.1447,4.1663,4.2155,4.2248,4.2279,4.2432,4.2463,4.253,4.2973,4.3528,4.4443,4.5668,4.6529,4.7683,4.877,4.8919,4.8569,4.8723,4.9269,4.9614,4.951,4.9666,4.9545,4.9683,4.9579,4.9493,4.9476,4.9476,4.9493,4.9631,4.9528,4.9545,4.9562,4.9114,4.8965,4.9321,4.9034,4.8844,4.9355,4.8821,4.8086,4.1066,4.131,4.1546,4.1648,4.1718,4.2807,4.363,4.4251,4.3831,4.3777,4.4141,4.4486,4.461,4.461,4.461,4.461,4.4594,4.4286,4.4317,4.4564,4.3994,4.3833,4.4132,4.4163,4.4163,4.4178,4.4471,4.461,4.461,4.461,4.461,4.461,4.461,4.4456,4.4178,4.4163,4.3972,4.3679,4.331,4.2956,4.2617,4.2956,4.2971,4.2617,4.2602,4.2602,4.2602,4.2309,4.214,4.214,4.1832,4.1663,4.1612,4.1274,4.1109,4.1093,4.0705,4.0489,4.0489,4.0489,4.0489,4.0489,4.0489,4.0659,4.1043,4.072,4.0659,4.1063,4.1074,4.1263,4.1581,4.1648,4.1786,4.2094,4.214,4.2279,4.254,4.2602,4.274,4.3063,4.3125,4.3447,4.4174,4.4622,4.5234,4.6313,4.7355,4.847,4.9573,4.9602,4.943,4.9493,4.9786,4.9959,5.0011,5.0011,5.0011,5.0011,5.0011,5.0011,5.0011,5.0011,5.0011,5.0011,5.0011,5.0011,5.0011,4.9735,4.97,4.9786,4.9769,4.9683,4.989,4.9976,4.9528,4.2659,4.3305,4.3305,4.3344,4.3409,4.3817,4.4127,4.432,4.4496,4.461,4.461,4.461,4.461,4.461,4.461,4.461,4.461,4.461,4.461,4.461,4.461,4.461,4.461,4.461,4.461,4.461,4.461,4.461,4.461,4.461,4.461,4.461,4.461,4.461,4.461,4.461,4.461,4.4579,4.4117,4.3593,4.3094,4.3578,4.3571,4.3094,4.3063,4.3048,4.3048,4.291,4.2817,4.2817,4.2679,4.2602,4.2586,4.2109,4.1817,4.1771,4.1274,4.0889,4.0786,4.0735,4.0735,4.0735,4.0874,4.1232,4.1694,4.1324,4.1201,4.1724,4.1832,4.2032,4.2432,4.2556,4.2663,4.2786,4.2817,4.2925,4.3033,4.3048,4.3217,4.3747,4.3824,4.4248,4.517,4.5604,4.6064,4.697,4.795,4.881,4.9381,4.9742,4.9906,4.9935,4.9964,5.0011,5.0011,5.0011,5.0011,5.0011,5.0011,5.0011,5.0011,5.0011,5.0011,5.0011,5.0011,5.0011,5.0011,4.9976,5.0062,5.0235,5.0287,5.0269,5.0321,5.0666,5.0493,4.321,4.329,4.3305,4.3423,4.3675,4.3895,4.4104,4.432,4.4511,4.461,4.4572,4.461,4.4572,4.461,4.461,4.461,4.461,4.461,4.461,4.461,4.461,4.461,4.461,4.461,4.461,4.461,4.461,4.461,4.461,4.461,4.461,4.461,4.461,4.461,4.461,4.461,4.461,4.461,4.4564,4.4486,4.444,4.4486,4.4464,4.4402,4.4372,4.444,4.4295,4.384,4.3516,4.347,4.294,4.2633,4.2633,4.2556,4.2509,4.2525,4.2448,4.2155,4.1586,4.1509,4.1555,4.1555,4.2078,4.2417,4.2525,4.2448,4.2417,4.254,4.254,4.2571,4.2617,4.2679,4.2956,4.347,4.3531,4.3747,4.4209,4.444,4.4471,4.4502,4.4478,4.4586,4.4865,4.5421,4.6343,4.7655,4.84,4.9043,4.9458,4.9666,4.9784,4.9784,4.986,4.9964,5.0011,5.0011,5.0011,5.0011,5.0011,5.0011,5.0011,5.0011,5.0011,5.0011,5.0011,5.0011,5.0011,5.0028,5.0235,5.0528,5.0752,5.0925,5.0994,5.1045,5.0631,4.3305,4.3305,4.3305,4.3344,4.3503,4.3714,4.3949,4.4143,4.4205,4.432,4.4396,4.4266,4.4358,4.4572,4.461,4.461,4.461,4.461,4.461,4.461,4.461,4.461,4.461,4.461,4.461,4.461,4.461,4.461,4.461,4.461,4.461,4.461,4.461,4.461,4.461,4.461,4.461,4.461,4.461,4.461,4.461,4.461,4.461,4.461,4.461,4.461,4.4594,4.4295,4.4194,4.4178,4.391,4.3771,4.3771,4.3402,4.3171,4.3171,4.3208,4.3063,4.2823,4.3177,4.3356,4.3356,4.3233,4.3325,4.3694,4.3417,4.334,4.3664,4.3417,4.331,4.3679,4.3771,4.3895,4.4148,4.4209,4.4317,4.4548,4.461,4.461,4.4625,4.4993,4.5237,4.5348,4.5897,4.6761,4.777,4.8368,4.8793,4.9333,4.9619,4.9737,4.986,4.9935,4.9964,5.0011,5.0011,5.0011,5.0011,5.0011,5.0011,5.0011,5.0011,5.0011,5.0011,5.0011,5.0011,5.0011,5.0011,5.0131,5.0476,5.0459,5.0476,5.0476,5.0821,5.0735,4.3305,4.3305,4.3305,4.3329,4.3423,4.3596,4.3847,4.4003,4.4003,4.4089,4.4166,4.4065,4.4127,4.4435,4.4496,4.4549,4.4572,4.461,4.461,4.461,4.461,4.461,4.461,4.461,4.461,4.461,4.461,4.461,4.461,4.461,4.461,4.461,4.461,4.461,4.461,4.461,4.461,4.461,4.461,4.461,4.461,4.461,4.461,4.461,4.461,4.461,4.461,4.461,4.461,4.461,4.461,4.461,4.4579,4.4148,4.3963,4.4132,4.4163,4.4163,4.4163,4.4625,4.4887,4.4872,4.4564,4.4625,4.4933,4.4548,4.4409,4.4733,4.4271,4.4101,4.4486,4.461,4.461,4.461,4.461,4.461,4.461,4.4723,4.4933,4.4971,4.5604,4.602,4.6092,4.6638,4.7355,4.7819,4.8176,4.8543,4.9243,4.953,4.9725,4.9889,4.9964,5.0011,5.0011,5.0011,5.0011,5.0011,5.0011,5.0011,5.0011,5.0011,5.0011,5.0011,5.0011,5.0011,5.0011,5.0011,5.0011,5.0011,5.0028,5.0062,5.0097,5.0511,5.0511,4.3305,4.3305,4.3305,4.3423,4.369,4.369,4.3793,4.3988,4.3988,4.3988,4.4011,4.3988,4.4026,4.4065,4.4205,4.4435,4.4572,4.4572,4.4572,4.4572,4.4572,4.4572,4.461,4.461,4.461,4.461,4.461,4.461,4.461,4.461,4.461,4.461,4.461,4.461,4.461,4.461,4.461,4.461,4.461,4.461,4.461,4.461,4.461,4.461,4.461,4.461,4.461,4.461,4.461,4.461,4.461,4.461,4.461,4.4579,4.4841,4.5372,4.548,4.5495,4.5495,4.5618,4.5649,4.568,4.608,4.6419,4.6342,4.5788,4.5464,4.5526,4.4964,4.4625,4.4656,4.4603,4.461,4.461,4.461,4.461,4.4625,4.5104,4.5588,4.5697,4.6253,4.6777,4.6811,4.7389,4.7787,4.8064,4.8513,4.9049,4.9287,4.9466,4.9663,4.9897,5.0061,5.0045,5.0045,5.0011,5.0011,5.0011,5.0011,5.0011,5.0011,5.0011,5.0011,5.0011,5.0011,5.0011,5.0011,5.0011,5.0011,5.0011,5.0011,5.0011,5.0011,5.0011,5.0045,4.3305,4.3305,4.3305,4.3369,4.3438,4.3423,4.3581,4.3808,4.3621,4.3675,4.3769,4.3621,4.366,4.3793,4.3871,4.4026,4.4205,4.4205,4.4281,4.4412,4.4381,4.4473,4.4572,4.461,4.461,4.461,4.461,4.461,4.461,4.461,4.461,4.461,4.461,4.461,4.461,4.461,4.461,4.461,4.461,4.461,4.461,4.461,4.461,4.461,4.461,4.461,4.461,4.461,4.461,4.461,4.461,4.461,4.4641,4.5003,4.5526,4.6172,4.6634,4.688,4.6927,4.7281,4.7527,4.7511,4.7327,4.7234,4.7127,4.6634,4.6234,4.6126,4.5618,4.5249,4.518,4.4849,4.461,4.461,4.461,4.461,4.461,4.4858,4.5179,4.5733,4.6726,4.7655,4.8148,4.8467,4.8593,4.8625,4.8846,4.9269,4.9828,5.0097,5.0368,5.0999,5.1288,5.1395,5.1395,5.0511,5.0028,5.0011,5.0011,5.008,5.0097,5.0183,5.0218,5.0292,5.0223,5.0269,5.0355,5.0338,5.0287,5.0235,5.0218,5.0304,5.0011,5.0269,5.02,4.3305,4.3305,4.3305,4.3305,4.3305,4.3305,4.3409,4.3557,4.3369,4.3423,4.3518,4.3384,4.3423,4.3557,4.3557,4.3636,4.3793,4.391,4.4104,4.4281,4.432,4.4396,4.4572,4.461,4.461,4.461,4.461,4.461,4.461,4.461,4.461,4.461,4.461,4.461,4.461,4.461,4.461,4.461,4.461,4.461,4.461,4.461,4.461,4.461,4.461,4.461,4.461,4.461,4.461,4.4625,4.481,4.5003,4.5264,4.588,4.6434,4.6927,4.7558,4.7927,4.7973,4.8358,4.8589,4.8589,4.8219,4.7927,4.7881,4.7296,4.6973,4.6788,4.6326,4.5911,4.5834,4.5511,4.5064,4.471,4.461,4.461,4.461,4.4821,4.5568,4.6782,4.8197,4.9121,4.9569,4.9697,4.9731,4.9729,4.9712,5.0045,5.0575,5.0881,5.1138,5.1854,5.1993,5.205,5.1981,5.1326,5.1028,5.0994,5.0792,5.0666,5.0545,5.058,5.0597,5.0619,5.0654,5.07,5.07,5.07,5.0683,5.0666,5.0873,5.105,5.0873,5.07,5.0718,4.3305,4.3305,4.3305,4.3305,4.3305,4.3305,4.3305,4.3344,4.3305,4.3344,4.3329,4.3305,4.3329,4.3344,4.3344,4.3329,4.3463,4.3778,4.4089,4.4243,4.4281,4.4381,4.4572,4.461,4.461,4.461,4.461,4.461,4.461,4.461,4.461,4.461,4.461,4.461,4.461,4.461,4.461,4.461,4.461,4.461,4.461,4.461,4.461,4.461,4.461,4.461,4.461,4.461,4.4641,4.4748,4.5218,4.588,4.648,4.7096,4.7542,4.7665,4.8235,4.8543,4.8558,4.8573,4.8604,4.8604,4.8573,4.8496,4.8373,4.7958,4.7604,4.7511,4.7034,4.6619,4.6665,4.6573,4.6049,4.4933,4.4917,4.5008,4.5007,4.5389,4.6577,4.8509,4.9991,5.1036,5.1134,5.098,5.0896,5.0913,5.0947,5.1046,5.1359,5.1568,5.1774,5.208,5.2461,5.2712,5.2467,5.2205,5.2222,5.2218,5.1946,5.174,5.1602,5.1567,5.1498,5.1533,5.1498,5.1515,5.1481,5.1528,5.1619,5.1636,5.1808,5.1774,5.1515,5.1373,5.1476,4.3305,4.3305,4.3305,4.3305,4.3305,4.3305,4.3305,4.3305,4.3305,4.3305,4.3305,4.3305,4.3305,4.3305,4.3305,4.3384,4.3596,4.3729,4.391,4.4065,4.4104,4.4281,4.4534,4.461,4.461,4.461,4.461,4.461,4.461,4.461,4.461,4.461,4.461,4.461,4.461,4.461,4.461,4.461,4.461,4.461,4.461,4.461,4.461,4.461,4.461,4.461,4.461,4.461,4.4803,4.5234,4.5464,4.6111,4.708,4.7481,4.7819,4.825,4.8481,4.8604,4.8604,4.8604,4.8604,4.8604,4.8604,4.8604,4.8604,4.8419,4.8266,4.8219,4.7696,4.7434,4.7788,4.7542,4.7013,4.6104,4.6453,4.678,4.6969,4.7895,4.8911,4.964,5.0608,5.1136,5.1219,5.1252,5.1337,5.1303,5.1303,5.1469,5.1941,5.2206,5.2656,5.3207,5.3386,5.3407,5.3332,5.3308,5.3339,5.3149,5.2891,5.2687,5.2584,5.2532,5.2463,5.2498,5.2463,5.2429,5.2394,5.236,5.2481,5.2532,5.2615,5.2408,5.2067,5.2119,5.239,4.3305,4.3305,4.3305,4.3305,4.3305,4.3305,4.3305,4.3305,4.3305,4.3305,4.3305,4.3305,4.3305,4.3305,4.3305,4.3384,4.3542,4.3542,4.3675,4.391,4.4065,4.4281,4.4572,4.461,4.461,4.461,4.461,4.461,4.461,4.461,4.461,4.461,4.461,4.461,4.461,4.461,4.461,4.461,4.461,4.461,4.461,4.461,4.461,4.461,4.461,4.4748,4.4933,4.4957,4.518,4.5618,4.6034,4.688,4.7865,4.8004,4.8173,4.8481,4.8604,4.8604,4.8604,4.8604,4.8604,4.8604,4.8604,4.8604,4.8604,4.8604,4.8604,4.8527,4.8496,4.8558,4.8907,4.9269,4.8988,4.8687,4.8584,4.8802,4.9155,5.018,5.0848,5.1156,5.1648,5.1964,5.208,5.2063,5.208,5.2063,5.2063,5.2147,5.2654,5.2905,5.3376,5.3778,5.3888,5.3999,5.4281,5.4345,5.4425,5.4098,5.3701,5.3563,5.3442,5.346,5.3442,5.3704,5.3773,5.3825,5.3773,5.3429,5.336,5.3391,5.3356,5.3218,5.3063,5.3356,5.3511,4.3305,4.3305,4.3305,4.3305,4.3305,4.3305,4.3305,4.3305,4.3305,4.3305,4.3305,4.3305,4.3305,4.3305,4.3305,4.3344,4.3329,4.3369,4.3557,4.3793,4.4065,4.4358,4.4458,4.4534,4.4534,4.4572,4.4572,4.461,4.461,4.461,4.461,4.461,4.461,4.461,4.461,4.461,4.461,4.461,4.461,4.461,4.461,4.461,4.461,4.461,4.4718,4.4995,4.5387,4.568,4.5772,4.588,4.6973,4.785,4.845,4.8604,4.8573,4.8604,4.8604,4.8604,4.8604,4.8604,4.8604,4.8604,4.8604,4.8604,4.8604,4.8604,4.8681,4.8804,4.9204,4.972,5.0147,5.0976,5.1755,5.2064,5.1215,5.09,5.1499,5.2247,5.2636,5.2777,5.3193,5.3585,5.3501,5.345,5.3416,5.3298,5.3264,5.3264,5.3331,5.3414,5.3616,5.3865,5.4061,5.4222,5.4367,5.4448,5.4512,5.4408,5.4132,5.408,5.4029,5.4063,5.4115,5.4477,5.4701,5.4874,5.4805,5.4221,5.4015,5.408,5.4046,5.4046,5.4115,5.4253,5.4236,4.3305,4.3305,4.3305,4.3305,4.3305,4.3305,4.3305,4.3305,4.3305,4.3305,4.3305,4.3305,4.3305,4.3305,4.329,4.3423,4.3518,4.3557,4.3714,4.3895,4.3988,4.4089,4.4166,4.432,4.4396,4.4435,4.4534,4.461,4.461,4.461,4.461,4.461,4.461,4.461,4.461,4.461,4.461,4.461,4.461,4.461,4.461,4.461,4.461,4.4618,4.5049,4.5387,4.5695,4.6573,4.7065,4.7127,4.7865,4.8404,4.8573,4.8604,4.8604,4.8604,4.8604,4.8604,4.8604,4.8604,4.8604,4.8604,4.8604,4.8604,4.8604,4.862,4.8866,4.9251,4.9678,5.0421,5.1717,5.2528,5.3492,5.49,5.4033,5.3535,5.4228,5.4705,5.4828,5.4863,5.4936,5.4667,5.4448,5.4211,5.4076,5.3737,5.3602,5.3585,5.3703,5.3618,5.37,5.3915,5.411,5.4239,5.4367,5.448,5.4512,5.4512,5.4408,5.4374,5.4339,5.4356,5.4425,5.4598,5.4598,5.4718,5.4684,5.4359,5.4494,5.4512,5.4701,5.4667,5.4632,5.4718,5.4684,4.3305,4.3305,4.3305,4.3305,4.3305,4.3305,4.3305,4.3305,4.3305,4.3305,4.3305,4.3305,4.3305,4.3305,4.3305,4.3384,4.3518,4.3518,4.3581,4.366,4.3699,4.3817,4.4011,4.422,4.432,4.432,4.4511,4.4572,4.461,4.461,4.461,4.461,4.461,4.461,4.461,4.461,4.461,4.461,4.461,4.461,4.461,4.461,4.4787,4.4972,4.5434,4.5757,4.6449,4.7481,4.8019,4.8096,4.8389,4.8604,4.8604,4.8604,4.8604,4.8604,4.8604,4.8604,4.8604,4.8604,4.8604,4.8604,4.8604,4.8604,4.8681,4.885,4.9312,4.9589,5.0452,5.1643,5.2802,5.3853,5.5259,5.6595,5.6395,5.5996,5.6188,5.5495,5.5428,5.5463,5.5192,5.4989,5.4938,5.4803,5.46,5.4431,5.4211,5.4127,5.4076,5.3888,5.3817,5.405,5.4145,5.4271,5.4367,5.4431,5.4512,5.4512,5.4512,5.4512,5.4512,5.4529,5.4701,5.4718,5.4598,5.4563,5.4649,5.4632,5.4512,5.4649,5.498,5.5014,5.4856,5.4787,5.4805,4.3305,4.3305,4.3305,4.3305,4.3305,4.3305,4.3305,4.3305,4.3305,4.3305,4.3305,4.3305,4.3305,4.3305,4.3305,4.3305,4.329,4.3344,4.3344,4.3384,4.3384,4.3542,4.3856,4.4127,4.4205,4.4281,4.4511,4.4572,4.461,4.461,4.461,4.461,4.461,4.461,4.461,4.461,4.461,4.461,4.461,4.461,4.4656,4.4726,4.5033,4.5434,4.5911,4.6557,4.745,4.8235,4.8543,4.8589,4.8604,4.8604,4.8604,4.8604,4.8604,4.8604,4.8604,4.8604,4.8604,4.8604,4.8604,4.8604,4.8604,4.8681,4.885,4.9281,4.9712,5.0128,5.1842,5.2891,5.3903,5.5476,5.6728,5.7557,5.771,5.7391,5.6782,5.5683,5.5175,5.5649,5.4634,5.4702,5.5023,5.5226,5.4921,5.5108,5.4921,5.4804,5.4652,5.4465,5.4327,5.4306,5.4316,5.4239,5.4335,5.4399,5.448,5.4512,5.4512,5.4512,5.4512,5.4598,5.4874,5.4925,5.4649,5.4718,5.4994,5.4891,5.4615,5.4546,5.477,5.4684,5.4546,5.4598,5.4632,4.3305,4.3305,4.3305,4.3305,4.3305,4.3305,4.3305,4.3305,4.3305,4.3305,4.3305,4.3305,4.3305,4.3305,4.3305,4.3305,4.3305,4.3305,4.3305,4.3305,4.3305,4.3344,4.3542,4.3856,4.405,4.4127,4.4435,4.4572,4.4572,4.4534,4.4572,4.4572,4.4572,4.461,4.4572,4.4572,4.461,4.461,4.461,4.461,4.4733,4.5095,4.5434,4.5772,4.6619,4.7527,4.8204,4.8543,4.8604,4.8604,4.8604,4.8604,4.8604,4.8604,4.8604,4.8604,4.8604,4.8604,4.8604,4.8604,4.8604,4.8604,4.8696,4.885,4.942,4.9605,5.0251,5.1117,5.2332,5.3869,5.5499,5.6825,5.7554,5.776,5.7459,5.7103,5.6884,5.6968,5.6731,5.6444,5.6122,5.5987,5.5733,5.5547,5.5463,5.5666,5.5598,5.5463,5.5246,5.4992,5.482,5.4662,5.4447,5.4385,5.4367,5.4431,5.448,5.4512,5.4512,5.4512,5.4512,5.4529,5.4736,5.4736,5.4598,5.477,5.4977,5.4839,5.4512,5.4512,5.4512,5.4512,5.4512,5.4512,5.4512,4.3305,4.3305,4.3305,4.3305,4.3305,4.3305,4.3305,4.3305,4.3305,4.3305,4.3305,4.3305,4.3305,4.3305,4.3305,4.3305,4.3305,4.3305,4.3305,4.3305,4.3305,4.3305,4.3384,4.3675,4.3871,4.3895,4.4243,4.4396,4.4358,4.432,4.4266,4.432,4.4396,4.4435,4.4511,4.4534,4.4572,4.461,4.461,4.461,4.4718,4.5234,4.6034,4.6542,4.7511,4.8281,4.8573,4.8604,4.8604,4.8604,4.8604,4.8604,4.8604,4.8604,4.8604,4.8604,4.8604,4.8604,4.8604,4.8604,4.8604,4.8635,4.8897,4.9266,4.9805,5.0189,5.1169,5.225,5.346,5.4964,5.6908,5.748,5.7881,5.7831,5.7543,5.7323,5.7289,5.7103,5.6782,5.6292,5.5818,5.5733,5.5615,5.5462,5.558,5.5649,5.5801,5.5701,5.5603,5.5366,5.516,5.4967,5.4662,5.4514,5.448,5.448,5.448,5.4512,5.4512,5.4512,5.4512,5.4512,5.4529,5.4529,5.4529,5.4529,5.4649,5.4512,5.4512,5.4512,5.4512,5.4512,5.4512,5.4512,5.4512,4.3305,4.3305,4.3305,4.3305,4.3305,4.3305,4.3305,4.3305,4.3305,4.3305,4.3305,4.3305,4.3305,4.3305,4.3305,4.3305,4.3305,4.3305,4.3305,4.3305,4.3305,4.3305,4.3384,4.3596,4.3675,4.3675,4.4065,4.4143,4.4065,4.4003,4.4065,4.405,4.4166,4.4281,4.432,4.4396,4.4496,4.4572,4.4534,4.4572,4.4741,4.5372,4.6419,4.7573,4.8142,4.8512,4.8604,4.8604,4.8604,4.8604,4.8604,4.8604,4.8604,4.8604,4.8604,4.8604,4.8604,4.8604,4.8604,4.862,4.865,4.8743,4.9281,4.9805,5.0205,5.1015,5.1961,5.3218,5.4484,5.6031,5.7645,5.7881,5.7881,5.7865,5.7865,5.7881,5.7645,5.6681,5.6173,5.5767,5.5615,5.5497,5.5361,5.526,5.5446,5.5666,5.5835,5.5955,5.5926,5.5758,5.5603,5.5289,5.4952,5.4566,5.4512,5.4598,5.4581,5.4581,5.4563,5.4546,5.4529,5.4512,5.4512,5.4512,5.4512,5.4512,5.4512,5.4512,5.4512,5.4512,5.4512,5.4512,5.4512,5.4512,5.4512,4.3305,4.3305,4.3305,4.3305,4.3305,4.3305,4.3305,4.3305,4.3305,4.3305,4.3305,4.3305,4.3305,4.3305,4.3305,4.3305,4.3305,4.3305,4.3305,4.3305,4.3305,4.3305,4.3344,4.3503,4.3542,4.3542,4.3778,4.3988,4.3988,4.4003,4.391,4.3988,4.4011,4.4089,4.4166,4.4205,4.4281,4.4473,4.4435,4.4473,4.4872,4.5849,4.7019,4.8204,4.8527,4.8589,4.8604,4.8604,4.8604,4.8604,4.8604,4.8604,4.8604,4.8604,4.8604,4.8604,4.8604,4.8604,4.8604,4.8666,4.8958,4.9343,4.9743,5.0374,5.1051,5.1647,5.2455,5.3883,5.5352,5.6844,5.7755,5.7881,5.7881,5.7881,5.7881,5.7881,5.7729,5.7188,5.6376,5.5953,5.5632,5.5175,5.4921,5.4888,5.5209,5.5666,5.619,5.6498,5.669,5.6354,5.603,5.5649,5.5228,5.4827,5.4512,5.4632,5.4701,5.4718,5.4684,5.4615,5.4581,5.4529,5.4512,5.4512,5.4512,5.4512,5.4512,5.4512,5.4512,5.4512,5.4512,5.4512,5.4512,5.4512,5.4512,4.3305,4.3305,4.3305,4.3305,4.3305,4.3305,4.3305,4.3305,4.3305,4.3305,4.3305,4.3305,4.3305,4.3305,4.3305,4.3305,4.3305,4.3305,4.3305,4.3305,4.3305,4.3305,4.3305,4.3463,4.3409,4.3369,4.3542,4.366,4.3621,4.3621,4.366,4.3675,4.3754,4.391,4.3988,4.4026,4.4089,4.4281,4.4281,4.4503,4.5033,4.6339,4.7635,4.8312,4.8604,4.8604,4.8604,4.8604,4.8604,4.8604,4.8604,4.8604,4.8604,4.8604,4.8604,4.8604,4.8604,4.8604,4.8712,4.8897,4.9358,4.9666,5.0251,5.0959,5.1605,5.2079,5.2987,5.4566,5.6175,5.7406,5.7862,5.7881,5.7881,5.7881,5.7881,5.7881,5.7797,5.7543,5.6951,5.619,5.5497,5.4871,5.416,5.4346,5.4871,5.5564,5.6376,5.6803,5.7181,5.6763,5.6201,5.5615,5.5161,5.5068,5.4839,5.5046,5.5012,5.496,5.4908,5.4839,5.4649,5.4598,5.4546,5.4512,5.4512,5.4512,5.4512,5.4512,5.4512,5.4512,5.4512,5.4512,5.4512,5.4512,5.4512,4.313,4.3305,4.3305,4.3305,4.3305,4.3305,4.3305,4.3305,4.3305,4.3305,4.3305,4.3305,4.3305,4.3305,4.3305,4.3305,4.3305,4.3305,4.3305,4.3305,4.3305,4.3305,4.3305,4.3305,4.3305,4.3344,4.3344,4.3305,4.3384,4.3384,4.3344,4.3384,4.3557,4.3651,4.3714,4.3778,4.3895,4.4011,4.4104,4.4547,4.5636,4.6797,4.7886,4.8543,4.8604,4.8604,4.8604,4.8604,4.8604,4.8604,4.8604,4.8604,4.8604,4.8604,4.8604,4.8604,4.8604,4.8604,4.8773,4.9266,4.9682,5.0005,5.1036,5.1605,5.2195,5.2888,5.3891,5.5296,5.6789,5.7792,5.7881,5.7881,5.7881,5.7881,5.7881,5.7865,5.7797,5.7594,5.7222,5.641,5.5446,5.4803,5.4313,5.4177,5.4786,5.5497,5.6292,5.6687,5.6964,5.6575,5.6047,5.5409,5.5042,5.5154,5.527,5.5632,5.5529,5.5357,5.5305,5.5221,5.4943,5.4667,5.4598,5.4512,5.4512,5.4512,5.4512,5.4512,5.4512,5.4512,5.4512,5.4512,5.4512,5.4557,5.462,4.2578,4.3305,4.3305,4.3305,4.3305,4.3305,4.3305,4.3305,4.3305,4.3305,4.3305,4.3305,4.3305,4.3305,4.3305,4.3305,4.3305,4.3305,4.3305,4.3305,4.3305,4.3305,4.3305,4.3305,4.3305,4.3305,4.3305,4.3305,4.3305,4.3305,4.3305,4.3344,4.3344,4.3463,4.3636,4.3542,4.3636,4.391,4.3862,4.4601,4.6005,4.6982,4.7824,4.8337,4.8563,4.8604,4.8604,4.8604,4.8604,4.8604,4.8604,4.8604,4.8604,4.8604,4.8604,4.8604,4.8604,4.8604,4.8727,4.9374,5.0005,5.0466,5.1328,5.1944,5.2595,5.3722,5.4736,5.5231,5.6844,5.7698,5.7718,5.7881,5.7881,5.7881,5.7881,5.7881,5.7831,5.7695,5.7323,5.6951,5.6089,5.5412,5.4837,5.4735,5.4769,5.5497,5.6141,5.6536,5.654,5.6099,5.5755,5.5096,5.5058,5.5221,5.5495,5.5891,5.5857,5.5684,5.5548,5.548,5.5046,5.4684,5.4581,5.4512,5.4512,5.4512,5.4512,5.4512,5.4512,5.4557,5.462,5.4589,5.4512,5.4589,5.4896,4.2496,4.3305,4.3305,4.3305,4.3305,4.3305,4.3305,4.3305,4.3305,4.3305,4.3305,4.3305,4.3305,4.3305,4.3305,4.3305,4.3305,4.3305,4.3305,4.3305,4.3305,4.3305,4.3305,4.3305,4.3305,4.3305,4.3305,4.3305,4.3305,4.3305,4.3305,4.3305,4.3305,4.3329,4.3503,4.3384,4.3409,4.3777,4.4398,4.542,4.6559,4.7409,4.8037,4.8381,4.8521,4.8563,4.8604,4.8604,4.8604,4.8604,4.8604,4.8604,4.8604,4.8604,4.8604,4.8604,4.8604,4.8604,4.8727,4.9666,5.0297,5.0867,5.1605,5.2406,5.2905,5.3809,5.4595,5.4611,5.6152,5.7089,5.7385,5.7645,5.7845,5.7881,5.7881,5.7881,5.7848,5.7695,5.7459,5.712,5.6782,5.6173,5.5649,5.5564,5.5564,5.5987,5.6275,5.6311,5.596,5.5179,5.4949,5.4692,5.4913,5.529,5.565,5.6012,5.5977,5.5805,5.5615,5.5411,5.4928,5.4667,5.4563,5.4512,5.4512,5.4512,5.4512,5.4512,5.4512,5.4652,5.4772,5.4803,5.4926,5.5473,5.5744,4.2017,4.2644,4.313,4.3305,4.3305,4.3305,4.317,4.301,4.321,4.317,4.3076,4.317,4.3305,4.3305,4.3305,4.3305,4.3305,4.3305,4.3305,4.3305,4.3305,4.3305,4.3305,4.3305,4.3305,4.3305,4.3305,4.3305,4.3305,4.3305,4.3305,4.3305,4.3305,4.329,4.3305,4.3319,4.3404,4.3788,4.5064,4.6098,4.6879,4.7737,4.8095,4.8328,4.848,4.8604,4.8604,4.8604,4.8604,4.8604,4.8604,4.8604,4.8604,4.8604,4.8604,4.8604,4.8604,4.8758,4.9174,4.9928,5.0636,5.1251,5.1867,5.2637,5.2817,5.3477,5.4232,5.4511,5.5756,5.6614,5.7013,5.7608,5.7755,5.7881,5.7881,5.7881,5.7814,5.7611,5.756,5.7459,5.7205,5.7053,5.663,5.6478,5.6511,5.6664,5.6562,5.6276,5.5637,5.4855,5.4624,5.4586,5.4787,5.5132,5.5357,5.5684,5.577,5.5908,5.5701,5.5529,5.515,5.477,5.4529,5.4512,5.4632,5.4512,5.4512,5.4512,5.4512,5.4652,5.4834,5.5164,5.5473,5.6083,5.6447,4.0717,4.093,4.2563,4.321,4.321,4.3305,4.278,4.2155,4.2915,4.2835,4.2496,4.2915,4.3305,4.3305,4.3305,4.3305,4.3305,4.3305,4.3305,4.3305,4.3305,4.3305,4.3305,4.3305,4.3305,4.3305,4.3305,4.3305,4.3305,4.3305,4.3305,4.3305,4.3305,4.3305,4.3349,4.3424,4.3753,4.4347,4.5525,4.6311,4.6882,4.7558,4.8103,4.8301,4.8495,4.8604,4.8604,4.8604,4.8604,4.8604,4.8604,4.8604,4.8604,4.8604,4.8604,4.8604,4.8758,4.905,4.9682,5.0251,5.0944,5.1605,5.2221,5.2713,5.2758,5.3477,5.4232,5.4762,5.5636,5.6597,5.7239,5.7881,5.7881,5.7881,5.7881,5.7881,5.7729,5.7408,5.7391,5.7611,5.7509,5.7222,5.7222,5.6985,5.6951,5.707,5.6615,5.6293,5.5877,5.5193,5.4893,5.4743,5.4738,5.4856,5.4856,5.5201,5.5857,5.5874,5.5667,5.5615,5.5512,5.5115,5.477,5.496,5.5132,5.4805,5.4644,5.496,5.5074,5.4801,5.4957,5.556,5.6093,5.666,5.6938,4.0589,4.0675,4.1365,4.1616,4.163,4.1616,4.1463,4.1338,4.2114,4.2714,4.2795,4.317,4.3305,4.3305,4.3305,4.3305,4.3305,4.3305,4.3305,4.3305,4.3305,4.3305,4.3305,4.3305,4.3305,4.3305,4.3305,4.3305,4.3305,4.3305,4.3305,4.3305,4.3305,4.3305,4.3364,4.3723,4.4302,4.496,4.5813,4.6526,4.7262,4.7667,4.8091,4.8301,4.848,4.8563,4.8604,4.8604,4.8604,4.8604,4.8604,4.8604,4.8604,4.8604,4.8604,4.8681,4.8943,4.9558,5.0128,5.0636,5.1159,5.2129,5.256,5.2713,5.2713,5.3069,5.3274,5.3965,5.501,5.6018,5.6231,5.7185,5.7881,5.7881,5.7881,5.7881,5.7712,5.7391,5.7408,5.7695,5.7459,5.7137,5.7256,5.7374,5.7391,5.7391,5.6835,5.6296,5.5945,5.5738,5.5475,5.5415,5.5462,5.5598,5.5632,5.5874,5.6133,5.5874,5.565,5.5667,5.5701,5.5581,5.5339,5.5546,5.577,5.5753,5.5744,5.5768,5.5649,5.5349,5.5654,5.6276,5.6783,5.7234,5.7382,3.9796,3.9809,3.9796,4.013,4.0546,4.0589,4.0589,4.076,4.1603,4.2496,4.325,4.3076,4.2915,4.2955,4.321,4.305,4.301,4.313,4.3265,4.3305,4.3305,4.3305,4.3305,4.3305,4.3305,4.3305,4.3305,4.3305,4.3305,4.3305,4.3305,4.3305,4.3305,4.3305,4.3484,4.4182,4.493,4.5589,4.6346,4.6899,4.7593,4.7907,4.8133,4.8328,4.848,4.8563,4.8604,4.8604,4.8604,4.8604,4.8604,4.8604,4.8604,4.8604,4.8604,4.8835,4.9281,4.9989,5.0543,5.1236,5.1682,5.2498,5.2667,5.2713,5.2713,5.2713,5.2951,5.339,5.4359,5.5076,5.5418,5.6806,5.7645,5.7681,5.7881,5.7865,5.7712,5.7492,5.7628,5.7797,5.7425,5.7053,5.7273,5.7408,5.7239,5.7275,5.706,5.6588,5.6303,5.6183,5.6265,5.6294,5.646,5.6598,5.6736,5.6615,5.6426,5.596,5.5788,5.5805,5.5805,5.5822,5.5977,5.6184,5.6443,5.6719,5.6725,5.6561,5.6235,5.5887,5.6375,5.6899,5.7259,5.766,5.7774,3.8024,3.7946,3.8024,3.8997,4.0332,4.0546,4.0546,4.0546,4.1463,4.2319,4.286,4.2319,4.2114,4.2278,4.2875,4.2835,4.2659,4.305,4.3305,4.3305,4.3305,4.3305,4.3305,4.3305,4.3305,4.3305,4.3305,4.3305,4.3305,4.3305,4.3305,4.3349,4.3394,4.3454,4.3439,4.4631,4.5589,4.6262,4.7046,4.7417,4.7679,4.8034,4.8202,4.837,4.8495,4.8604,4.8604,4.8604,4.8604,4.8604,4.8604,4.8604,4.8604,4.8604,4.8604,4.8666,4.9358,5.0051,5.0713,5.1913,5.2436,5.2652,5.2713,5.2713,5.2713,5.2758,5.2922,5.3318,5.3992,5.4927,5.5796,5.6669,5.7181,5.7645,5.7845,5.7848,5.7712,5.7628,5.7746,5.7746,5.7323,5.7002,5.7256,5.7357,5.7087,5.7023,5.7028,5.6881,5.6645,5.673,5.6882,5.7258,5.7443,5.7443,5.746,5.7047,5.6702,5.6202,5.6029,5.6167,5.6357,5.6564,5.6719,5.6891,5.7167,5.7512,5.743,5.73,5.7326,5.7391,5.7173,5.7502,5.7823,5.7978,5.7978,3.79,3.79,3.79,3.8239,3.8877,3.9445,3.9681,3.9798,4.0632,4.1239,4.1421,4.1155,4.1449,4.1935,4.2293,4.2578,4.2875,4.2996,4.3305,4.3305,4.3305,4.3305,4.3305,4.3305,4.3305,4.3305,4.3305,4.3305,4.3305,4.3305,4.3305,4.3349,4.3753,4.3973,4.4332,4.52,4.61,4.6396,4.6976,4.7553,4.7837,4.8049,4.8218,4.8453,4.8521,4.8563,4.8563,4.8563,4.8563,4.8563,4.8604,4.8604,4.8589,4.8589,4.8589,4.8866,4.9558,5.0651,5.119,5.1898,5.2221,5.2483,5.2652,5.2637,5.2713,5.2713,5.2906,5.3186,5.3664,5.4527,5.5434,5.6286,5.6937,5.7645,5.7881,5.7881,5.7797,5.7746,5.7746,5.7645,5.734,5.7002,5.7036,5.7256,5.7087,5.6803,5.6773,5.7136,5.7055,5.7295,5.7535,5.8152,5.8461,5.8374,5.8202,5.7771,5.7443,5.7081,5.6857,5.6822,5.7029,5.7253,5.7667,5.7943,5.8116,5.827,5.8387,5.8575,5.8963,5.9077,5.8798,5.8513,5.8663,5.8474,5.7997,3.79,3.79,3.79,3.79,3.7979,3.8517,3.8926,3.9254,3.9855,4.0289,4.0504,4.0332,4.0375,4.1029,4.1728,4.1867,4.2482,4.3076,4.3305,4.3305,4.3305,4.3305,4.3305,4.3305,4.3305,4.3305,4.3305,4.3305,4.3305,4.3305,4.3454,4.3838,4.4317,4.4781,4.5214,4.5903,4.6441,4.6696,4.7246,4.7553,4.7794,4.7964,4.8133,4.8301,4.837,4.8412,4.8453,4.8495,4.8521,4.8563,4.8589,4.8589,4.8573,4.8404,4.8435,4.8881,4.9605,5.0713,5.1421,5.1344,5.1605,5.1821,5.2175,5.2467,5.2637,5.2713,5.2713,5.2951,5.3302,5.4205,5.519,5.6011,5.6636,5.7351,5.7881,5.7881,5.7865,5.7814,5.7797,5.7662,5.7577,5.7222,5.6884,5.7002,5.7103,5.6769,5.6484,5.7,5.7516,5.7741,5.8033,5.8548,5.8944,5.8771,5.865,5.8512,5.8202,5.7943,5.7719,5.7512,5.7667,5.7892,5.8443,5.8857,5.8719,5.8836,5.9511,5.9914,6.016,6.0409,6.0475,6.0127,5.9716,5.9189,5.8639,3.79,3.79,3.79,3.79,3.79,3.7979,3.8427,3.921,3.9254,3.9681,4.0389,3.9431,3.9387,3.9681,4.1071,4.1421,4.1169,4.24,4.2739,4.3036,4.29,4.3036,4.317,4.321,4.3305,4.3305,4.3305,4.3305,4.3305,4.3499,4.3783,4.4287,4.4945,4.5469,4.5978,4.6352,4.6726,4.7113,4.7334,4.7553,4.7709,4.7837,4.7964,4.8091,4.8133,4.8202,4.8286,4.837,4.8453,4.8506,4.8543,4.8543,4.8343,4.7912,4.8127,4.8604,4.9343,5.0359,5.1036,5.0836,5.0743,5.0913,5.1267,5.1882,5.2421,5.2606,5.2713,5.2713,5.2995,5.4008,5.5026,5.5595,5.6192,5.698,5.7792,5.7881,5.7881,5.7865,5.7865,5.7831,5.7814,5.756,5.7188,5.7154,5.7326,5.7091,5.6994,5.7427,5.7876,5.8084,5.8359,5.8703,5.8995,5.8995,5.8892,5.8719,5.8616,5.8236,5.8288,5.8185,5.8357,5.8426,5.8719,5.8944,5.8978,5.9298,6.0019,6.0677,6.1189,6.1405,6.1538,6.1172,6.0621,6.0199,5.9758,3.79,3.79,3.79,3.79,3.79,3.79,3.8395,3.9166,3.9197,3.9104,3.8666,3.8395,3.8639,3.9254,3.9754,4.0202,4.0689,4.1071,4.1239,4.1616,4.2319,4.2374,4.2618,4.301,4.321,4.3305,4.3305,4.3305,4.3424,4.3648,4.3992,4.4407,4.5439,4.6052,4.6399,4.6743,4.707,4.7234,4.7396,4.7467,4.7553,4.7681,4.7794,4.7922,4.7964,4.8091,4.826,4.8286,4.8396,4.8501,4.8127,4.7927,4.7835,4.7327,4.7296,4.8543,4.9266,4.9912,5.0159,5.0082,4.9974,4.9989,5.0251,5.0928,5.1682,5.2313,5.2575,5.2683,5.2788,5.3695,5.4736,5.5458,5.627,5.7239,5.7828,5.7881,5.7881,5.7881,5.7881,5.7881,5.7881,5.7814,5.7442,5.7476,5.7596,5.7465,5.7539,5.7922,5.8201,5.8376,5.8583,5.8909,5.9012,5.9012,5.8788,5.8599,5.8616,5.8599,5.8616,5.865,5.8719,5.8806,5.8944,5.9012,5.9012,5.9644,6.058,6.1102,6.1332,6.2129,6.2303,6.1924,6.1502,6.1043,6.0694,3.79,3.79,3.79,3.79,3.79,3.79,3.8226,3.8639,3.8715,3.8349,3.7946,3.7946,3.8181,3.8639,3.9091,3.9549,4.0029,4.056,4.0944,4.1589,4.1686,4.2278,4.2659,4.2955,4.321,4.3305,4.3305,4.3305,4.3499,4.3977,4.4421,4.5244,4.6055,4.6354,4.6756,4.707,4.7234,4.7294,4.7309,4.7396,4.7424,4.751,4.7624,4.7794,4.7837,4.8007,4.826,4.8286,4.8304,4.824,4.7711,4.745,4.7404,4.705,4.7157,4.8266,4.8804,4.9358,4.9682,4.9435,4.9312,4.9343,4.9528,5.0097,5.0867,5.1575,5.2175,5.2621,5.2831,5.3274,5.4375,5.5458,5.6581,5.7681,5.7792,5.7881,5.7881,5.7881,5.7881,5.7881,5.7881,5.7881,5.7848,5.7881,5.7901,5.7785,5.7844,5.8091,5.8373,5.8565,5.8737,5.8944,5.9012,5.8995,5.8771,5.8633,5.8719,5.8788,5.8771,5.884,5.8978,5.9012,5.9012,5.9012,5.9012,5.9838,6.0748,6.0909,6.1182,6.203,6.2475,6.1851,6.1594,6.1704,6.1447,3.79,3.79,3.79,3.79,3.79,3.79,3.7946,3.79,3.7979,3.79,3.79,3.79,3.7946,3.8181,3.8639,3.8912,3.9268,3.9708,4.0346,4.1728,4.1603,4.2017,4.2699,4.325,4.3305,4.3305,4.3334,4.3394,4.3633,4.4291,4.5308,4.6292,4.6426,4.6711,4.7115,4.7219,4.7309,4.7309,4.7309,4.7309,4.7337,4.7337,4.7381,4.7581,4.7709,4.7837,4.8175,4.8236,4.8064,4.7784,4.7434,4.7157,4.688,4.7034,4.7357,4.785,4.8419,4.8897,4.9189,4.9035,4.8804,4.8912,4.922,4.9605,5.0251,5.1251,5.2021,5.2406,5.2586,5.3545,5.4653,5.5296,5.6231,5.7314,5.7845,5.7881,5.7881,5.7881,5.7881,5.7881,5.7881,5.7881,5.7881,5.7918,5.7954,5.8007,5.8152,5.8331,5.8509,5.872,5.8841,5.9012,5.9012,5.9012,5.8961,5.8875,5.8926,5.8961,5.8909,5.8926,5.8995,5.9012,5.9012,5.9165,5.9417,5.9998,6.0706,6.0985,6.1394,6.1897,6.2089,6.1539,6.1539,6.1906,6.1667,3.79,3.79,3.79,3.79,3.79,3.79,3.79,3.79,3.79,3.79,3.79,3.79,3.79,3.7979,3.8148,3.8349,3.844,3.8908,3.9149,4.0173,4.0774,4.1728,4.2374,4.305,4.321,4.3305,4.3364,4.3688,4.4261,4.5128,4.5861,4.6367,4.6681,4.7145,4.7279,4.7309,4.7309,4.7309,4.7309,4.7309,4.7309,4.7424,4.7596,4.7666,4.7794,4.8007,4.8244,4.8282,4.8024,4.7671,4.708,4.6511,4.5895,4.6511,4.708,4.7604,4.8219,4.8681,4.882,4.8773,4.865,4.8604,4.8881,4.922,4.9897,5.1021,5.1744,5.2006,5.2619,5.3755,5.4681,5.5199,5.585,5.693,5.7881,5.7881,5.7881,5.7881,5.7881,5.7881,5.7881,5.7881,5.7881,5.7918,5.7991,5.8116,5.8295,5.8508,5.8649,5.8806,5.8858,5.9012,5.9012,5.9012,5.9012,5.9012,5.9012,5.9012,5.8961,5.8978,5.9012,5.9012,5.9064,5.9549,5.9987,6.0437,6.0962,6.1482,6.1877,6.2068,6.2071,6.1686,6.1759,6.2108,6.1612,3.79,3.79,3.79,3.79,3.79,3.79,3.79,3.79,3.79,3.79,3.79,3.79,3.79,3.79,3.79,3.79,3.7979,3.8395,3.9282,4.0,4.0518,4.1463,4.2196,4.2754,4.2795,4.2945,4.3628,4.4242,4.511,4.5696,4.6294,4.6711,4.7174,4.7309,4.7309,4.7309,4.7309,4.7309,4.7309,4.7309,4.7352,4.7467,4.7752,4.788,4.8049,4.8244,4.8232,4.8193,4.7635,4.6979,4.6219,4.5926,4.5726,4.6296,4.6927,4.7573,4.8158,4.8604,4.8604,4.8604,4.8604,4.8604,4.8604,4.8989,4.9112,5.0128,5.0836,5.1172,5.1904,5.299,5.4051,5.4682,5.5754,5.6875,5.7591,5.7881,5.7881,5.7881,5.7881,5.7881,5.7881,5.7881,5.7881,5.7918,5.7991,5.8152,5.8367,5.8596,5.8754,5.8892,5.8944,5.9012,5.9012,5.9012,5.9012,5.9012,5.9012,5.9012,5.9012,5.9012,5.9012,5.9012,5.9165,5.9729,6.0237,6.062,6.1156,6.1796,6.1873,6.1855,6.1936,6.1942,6.2108,6.2126,6.1557,3.79,3.79,3.79,3.79,3.79,3.79,3.79,3.79,3.79,3.79,3.79,3.79,3.79,3.79,3.79,3.79,3.8024,3.8349,3.9312,4.0216,4.0944,4.1212,4.1672,4.236,4.2366,4.3022,4.3964,4.4989,4.6025,4.6444,4.6815,4.7234,4.7309,4.7309,4.7309,4.7309,4.7309,4.7309,4.7309,4.7309,4.7396,4.7553,4.7837,4.8133,4.8328,4.8412,4.8321,4.7973,4.7311,4.6434,4.5657,4.5511,4.5772,4.6357,4.7065,4.7727,4.8296,4.8573,4.8604,4.8604,4.8604,4.8604,4.8604,4.8666,4.882,4.9189,4.9897,5.0603,5.1377,5.2334,5.3405,5.4573,5.5759,5.6752,5.7386,5.7865,5.7881,5.7881,5.7881,5.7881,5.7881,5.7881,5.7881,5.7881,5.8027,5.8171,5.8367,5.8596,5.8771,5.8892,5.8978,5.9012,5.9012,5.9012,5.9012,5.9012,5.9012,5.9012,5.9012,5.9012,5.9029,5.9216,5.9532,6.0048,6.0498,6.1068,6.1528,6.2112,6.2033,6.193,6.2101,6.2254,6.2034,6.1918,6.1404,3.79,3.79,3.79,3.79,3.79,3.79,3.79,3.79,3.79,3.79,3.79,3.79,3.79,3.79,3.79,3.79,3.7946,3.8304,3.876,3.9475,4.0116,4.0461,4.0887,4.155,4.1948,4.3188,4.4739,4.5866,4.6503,4.689,4.713,4.7294,4.7309,4.7309,4.7309,4.7309,4.7309,4.7309,4.7309,4.7352,4.7553,4.7724,4.7922,4.816,4.8355,4.848,4.8435,4.7942,4.7296,4.6419,4.5596,4.5572,4.5972,4.6603,4.7281,4.7989,4.8543,4.8558,4.8604,4.8604,4.8604,4.8604,4.8604,4.8604,4.8696,4.8712,4.9372,5.0045,5.0913,5.2102,5.3271,5.4717,5.5903,5.6748,5.7476,5.7746,5.7881,5.7881,5.7881,5.7881,5.7881,5.7881,5.7881,5.7954,5.808,5.8224,5.8402,5.8631,5.884,5.8927,5.9012,5.9012,5.9012,5.9012,5.9012,5.9012,5.9012,5.9012,5.9012,5.9012,5.9165,5.9598,5.9952,6.0388,6.108,6.1769,6.221,6.2438,6.2493,6.245,6.256,6.256,6.2266,6.2218,6.2108]}]]